[[{"header":{"parameterUnit":"m.s-1","parameterCategory":1,"la1":31.0,"la2":29.5877,"lo1":-88.7671,"lo2":-86.6584,"dy":0.0162,"dx":0.0185,"nx":115,"ny":88,"refTime":"2024-07-05T06:00:00:Z","depth":0,"parameterNumber":2,"parameterNumberName":"U-component_of_WINDS"},"data":[0.0,0.0,0.0,0.0,0.0,0.0,0.0,0.0,0.0,0.0,0.0,0.0,0.0,0.0,0.0,0.0,0.0,0.0,0.0,0.0,0.0,0.0,0.0,0.0,0.0,0.0,0.0,0.0,0.0,0.0,0.0,0.0,0.0,0.0,0.0,0.0,0.0,0.0,0.0,0.0,0.0,0.0,0.0,0.0,0.0,0.0,0.0,0.0,0.0,0.0,0.0,0.0,0.0,0.0,0.0,0.0,0.0,0.0,0.0,0.0,0.0,0.0,0.0,0.0,0.0,0.0,0.0,0.0,0.0,0.0,0.0,0.0,0.0,0.0,0.0,0.0,0.0,0.0,0.0,0.0,0.0,0.0,0.0,0.0,0.0,0.0,0.0,0.0,0.0,0.0,0.0,0.0,0.0,0.0,0.0,0.0,0.0,0.0,0.0,0.0,0.0,0.0,0.0,0.0,0.0,0.0,0.0,0.0,0.0,0.0,0.0,0.0,0.0,0.0,0.0,0.0,0.0,0.0,0.0,0.0,0.0,0.0,0.0,0.0,0.0,0.0,0.0,0.0,0.0,0.0,0.0,0.0,0.0,0.0,0.0,0.0,0.0,0.0,0.0,0.0,0.0,0.0,0.0,0.0,0.0,0.0,0.0,0.0,0.0,0.0,0.0,0.0,0.0,0.0,0.0,0.0,0.0,0.0,0.0,0.0,0.0,0.0,0.0,0.0,0.0,0.0,0.0,0.0,0.0,0.0,0.0,0.0,0.0,0.0,0.0,0.0,0.0,0.0,0.0,0.0,0.0,0.0,0.0,0.0,0.0,0.0,0.0,0.0,0.0,0.0,0.0,0.0,0.0,0.0,0.0,0.0,0.0,0.0,0.0,0.0,0.0,0.0,0.0,0.0,0.0,0.0,0.0,0.0,0.0,0.0,0.0,0.0,0.0,0.0,0.0,0.0,0.0,0.0,0.0,0.0,0.0,0.0,0.0,0.0,0.0,0.0,0.0,0.0,0.0,0.0,0.0,0.0,0.0,0.0,0.0,0.0,0.0,0.0,0.0,0.0,0.0,0.0,0.0,0.0,0.0,0.0,0.0,0.0,0.0,0.0,0.0,0.0,0.0,0.0,0.0,0.0,0.0,0.0,0.0,0.0,0.0,0.0,0.0,0.0,0.0,0.0,0.0,0.0,0.0,0.0,0.0,0.0,0.0,0.0,0.0,0.0,0.0,0.0,0.0,0.0,0.0,0.0,0.0,0.0,0.0,0.0,0.0,0.0,0.0,0.0,0.0,0.0,0.0,0.0,0.0,0.0,0.0,0.0,0.0,0.0,0.0,0.0,0.0,0.0,0.0,0.0,0.0,0.0,0.0,0.0,0.0,0.0,0.0,0.0,0.0,0.0,0.0,0.0,0.0,0.0,0.0,0.0,0.0,0.0,0.0,0.0,0.0,0.0,0.0,0.0,0.0,0.0,0.0,0.0,0.0,0.0,0.0,0.0,0.0,0.0,0.0,0.0,0.0,0.0,0.0,0.0,0.0,0.0,0.0,0.0,0.0,0.0,0.0,0.0,0.0,0.0,0.0,0.0,0.0,0.0,0.0,0.0,0.0,0.0,0.0,0.0,0.0,0.0,0.0,0.0,0.0,0.0,0.0,0.0,0.0,0.0,0.0,0.0,0.0,0.0,0.0,0.0,0.0,0.0,0.0,0.0,0.0,0.0,0.0,0.0,0.0,0.0,0.0,0.0,0.0,0.0,0.0,0.0,0.0,0.0,0.0,0.0,0.0,0.0,0.0,0.0,0.0,0.0,0.0,0.0,0.0,0.0,0.0,0.0,0.0,0.0,0.0,0.0,0.0,0.0,0.0,0.0,0.0,0.0,0.0,0.0,0.0,0.0,0.0,0.0,0.0,0.0,0.0,0.0,0.0,0.0,0.0,0.0,0.0,0.0,0.0,0.0,0.0,0.0,0.0,0.0,0.0,0.0,0.0,0.0,0.0,0.0,0.0,0.0,0.0,0.0,0.0,0.0,0.0,0.0,0.0,0.0,0.0,0.0,0.0,0.0,0.0,0.0,0.0,0.0,0.0,0.0,0.0,0.0,0.0,0.0,0.0,0.0,0.0,0.0,0.0,0.0,0.0,0.0,0.0,0.0,0.0,0.0,0.0,0.0,0.0,0.0,0.0,0.0,0.0,0.0,0.0,0.0,0.0,0.0,0.0,0.0,0.0,0.0,0.0,0.0,0.0,0.0,0.0,0.0,0.0,0.0,0.0,0.0,0.0,0.0,0.0,0.0,0.0,0.0,0.0,0.0,0.0,0.0,0.0,0.0,0.0,0.0,0.0,0.0,0.0,0.0,0.0,0.0,0.0,0.0,0.0,0.0,0.0,0.0,0.0,0.0,0.0,0.0,0.0,0.0,0.0,0.0,0.0,0.0,0.0,0.0,0.0,0.0,0.0,0.0,0.0,0.0,0.0,0.0,0.0,0.0,0.0,0.0,0.0,0.0,0.0,0.0,0.0,0.0,0.0,0.0,0.0,0.0,0.0,0.0,0.0,0.0,0.0,0.0,0.0,0.0,0.0,0.0,0.0,0.0,0.0,0.0,0.0,0.0,0.0,0.0,0.0,0.0,0.0,0.0,0.0,0.0,0.0,0.0,0.0,0.0,0.0,0.0,0.0,0.0,0.0,0.0,0.0,0.0,0.0,0.0,0.0,0.0,0.0,0.0,0.0,0.0,0.0,0.0,0.0,0.0,0.0,0.0,0.0,0.0,0.0,0.0,0.0,0.0,0.0,0.0,0.0,0.0,0.0,0.0,0.0,0.0,0.0,0.0,0.0,0.0,0.0,0.0,0.0,0.0,0.0,0.0,0.0,0.0,0.0,0.0,0.0,0.0,0.0,0.0,0.0,0.0,0.0,0.0,0.0,0.0,0.0,0.0,0.0,0.0,0.0,0.0,0.0,0.0,0.0,0.0,0.0,0.0,0.0,0.0,0.0,0.0,0.0,0.0,0.0,0.0,0.0,0.0,0.0,0.0,0.0,0.0,0.0,0.0,0.0,0.0,0.0,0.0,0.0,0.0,0.0,0.0,0.0,0.0,0.0,0.0,0.0,0.0,0.0,0.0,0.0,0.0,0.0,0.0,0.0,0.0,0.0,0.0,0.0,0.0,0.0,0.0,0.0,0.0,0.0,0.0,0.0,0.0,0.0,0.0,0.0,0.0,0.0,0.0,0.0,0.0,0.0,0.0,0.0,0.0,0.0,0.0,0.0,0.0,0.0,0.0,0.0,0.0,0.0,0.0,0.0,0.0,0.0,0.0,0.0,0.0,0.0,0.0,0.0,0.0,0.0,0.0,0.0,0.0,0.0,0.0,0.0,0.0,0.0,0.0,0.0,0.0,0.0,0.0,0.0,0.0,0.0,0.0,0.0,0.0,0.0,0.0,0.0,0.0,0.0,0.0,0.0,0.0,0.0,0.0,0.0,0.0,0.0,0.0,0.0,0.0,0.0,0.0,0.0,0.0,0.0,0.0,0.0,0.0,0.0,0.0,0.0,0.0,0.0,0.0,0.0,0.0,0.0,0.0,0.0,0.0,0.0,0.0,0.0,0.0,0.0,0.0,0.0,0.0,0.0,0.0,0.0,0.0,0.0,0.0,0.0,0.0,0.0,0.0,0.0,0.0,0.0,0.0,0.0,0.0,0.0,0.0,0.0,0.0,0.0,0.0,0.0,0.0,0.0,0.0,0.0,0.0,0.0,0.0,0.0,0.0,0.0,0.0,0.0,0.0,0.0,0.0,0.0,0.0,0.0,0.0,0.0,0.0,0.0,0.0,0.0,0.0,0.0,0.0,0.0,0.0,0.0,0.0,0.0,0.0,0.0,0.0,0.0,0.0,0.0,0.0,0.0,0.0,0.0,0.0,0.0,0.0,0.0,0.0,0.0,0.0,0.0,0.0,0.0,0.0,0.0,0.0,0.0,0.0,0.0,0.0,0.0,0.0,0.0,0.0,0.0,0.0,0.0,0.0,0.0,0.0,0.0,0.0,0.0,0.0,0.0,0.0,0.0,0.0,0.0,0.0,0.0,0.0,0.0,0.0,0.0,0.0,0.0,0.0,0.0,0.0,0.0,0.0,0.0,0.0,0.0,0.0,0.0,0.0,0.0,0.0,0.0,0.0,0.0,0.0,0.0,0.0,0.0,0.0,0.0,0.0,0.0,0.0,0.0,0.0,0.0,0.0,0.0,0.0,0.0,0.0,0.0,0.0,0.0,0.0,1.485,0.0,0.0,0.0,0.0,0.0,0.0,0.0,0.0,0.0,0.0,0.0,0.0,0.0,0.0,0.0,0.0,0.0,0.0,0.0,0.0,0.0,0.0,0.0,0.0,0.0,0.0,0.0,0.0,0.0,0.0,0.0,0.0,0.0,0.0,0.0,0.0,0.0,0.0,0.0,0.0,0.0,0.0,0.0,0.0,0.0,0.0,0.0,0.0,0.0,0.0,0.0,0.0,0.0,0.0,0.0,0.0,0.0,0.0,0.0,0.0,0.0,0.0,0.0,0.0,0.0,0.0,0.0,0.0,0.0,0.0,0.0,0.0,0.0,0.0,0.0,0.0,0.0,0.0,0.0,0.0,0.0,0.0,0.0,0.0,0.0,0.0,0.0,0.0,0.0,0.0,0.0,0.0,0.0,0.0,0.0,0.0,0.0,0.0,0.0,0.0,0.0,0.0,0.0,0.0,0.0,0.0,0.0,0.0,0.0,0.0,1.4804,1.4883,1.4518,1.4493,1.4878,0.0,0.0,0.0,0.0,0.0,0.0,0.0,0.0,0.0,0.0,0.0,0.0,0.0,0.0,0.0,0.0,0.0,0.0,0.0,0.0,0.0,0.0,0.0,0.0,0.0,0.0,0.0,0.0,0.0,0.0,0.0,0.0,0.0,0.0,0.0,0.0,0.0,0.0,0.0,0.0,0.0,0.0,0.0,0.0,0.0,0.0,0.0,0.0,0.0,0.0,0.0,0.0,0.0,0.0,0.0,0.0,0.0,0.0,0.0,0.0,0.0,0.0,0.0,0.0,0.0,0.0,0.0,0.0,0.0,0.0,0.0,0.0,0.0,0.0,0.0,0.0,0.0,0.0,0.0,0.0,0.0,0.0,0.0,0.0,0.0,0.0,0.0,0.0,0.0,0.0,0.0,0.0,0.0,0.0,0.0,0.0,0.0,0.0,0.0,0.0,0.0,0.0,0.0,0.0,0.0,0.0,0.0,0.0,0.0,0.0,0.0,0.0,1.4733,1.4706,1.4988,0.0,0.0,0.0,0.0,0.0,0.0,0.0,0.0,0.0,0.0,0.0,0.0,0.0,0.0,0.0,0.0,0.0,0.0,0.0,0.0,0.0,0.0,0.0,0.0,0.0,0.0,0.0,0.0,0.0,0.0,0.0,0.0,0.0,0.0,0.0,0.0,0.0,0.0,0.0,0.0,0.0,0.0,0.0,0.0,0.0,0.0,0.0,0.0,0.0,0.0,0.0,0.0,0.0,0.0,0.0,0.0,0.0,0.0,0.0,0.0,0.0,0.0,0.0,0.0,0.0,0.0,0.0,0.0,0.0,0.0,0.0,0.0,0.0,0.0,0.0,0.0,0.0,0.0,0.0,0.0,0.0,0.0,0.0,0.0,0.0,0.0,0.0,0.0,0.0,0.0,0.0,0.0,0.0,0.0,0.0,0.0,0.0,0.0,0.0,0.0,0.0,0.0,0.0,0.0,0.0,0.0,0.0,0.0,0.0,0.0,1.5092,1.5502,1.544,0.0,1.5327,0.0,0.0,0.0,0.0,0.0,0.0,0.0,0.0,0.0,0.0,0.0,0.0,0.0,0.0,0.0,0.0,0.0,0.0,0.0,0.0,0.0,0.0,0.0,0.0,0.0,0.0,0.0,0.0,0.0,0.0,0.0,0.0,0.0,0.0,0.0,0.0,0.0,0.0,0.0,0.0,0.0,0.0,0.0,0.0,0.0,0.0,0.0,0.0,0.0,0.0,0.0,0.0,0.0,0.0,0.0,0.0,0.0,0.0,0.0,0.0,0.0,0.0,0.0,0.0,0.0,0.0,0.0,0.0,0.0,0.0,0.0,0.0,0.0,0.0,0.0,0.0,0.0,0.0,0.0,0.0,0.0,0.0,0.0,0.0,0.0,0.0,0.0,0.0,0.0,0.0,0.0,0.0,0.0,0.0,0.0,0.0,0.0,0.0,0.0,0.0,0.0,0.0,0.0,0.0,0.0,0.0,0.0,0.0,0.0,0.0,1.5567,1.5594,1.5537,1.5361,0.0,0.0,0.0,0.0,0.0,0.0,0.0,0.0,0.0,0.0,0.0,0.0,0.0,0.0,0.0,0.0,0.0,0.0,0.0,0.0,0.0,0.0,0.0,0.0,0.0,0.0,0.0,0.0,0.0,0.0,0.0,0.0,0.0,0.0,0.0,0.0,0.0,0.0,0.0,0.0,0.0,0.0,0.0,0.0,0.0,0.0,0.0,0.0,0.0,0.0,0.0,0.0,0.0,0.0,0.0,0.0,0.0,0.0,0.0,0.0,0.0,0.0,0.0,0.0,0.0,0.0,0.0,0.0,0.0,0.0,0.0,0.0,0.0,0.0,0.0,0.0,0.0,0.0,0.0,0.0,0.0,0.0,0.0,0.0,0.0,0.0,0.0,0.0,0.0,0.0,0.0,0.0,0.0,0.0,0.0,0.0,0.0,0.0,0.0,0.0,0.0,0.0,0.0,0.0,0.0,0.0,0.0,0.0,0.0,0.0,1.5676,1.5843,1.5759,1.5433,1.5184,1.4966,0.0,0.0,0.0,0.0,0.0,0.0,0.0,0.0,0.0,0.0,0.0,0.0,0.0,0.0,0.0,0.0,0.0,0.0,0.0,0.0,0.0,0.0,0.0,0.0,0.0,0.0,0.0,0.0,0.0,0.0,0.0,0.0,0.0,0.0,0.0,0.0,0.0,0.0,0.0,0.0,0.0,0.0,0.0,0.0,0.0,0.0,0.0,0.0,0.0,0.0,0.0,0.0,0.0,0.0,0.0,0.0,0.0,0.0,0.0,0.0,0.0,0.0,0.0,0.0,0.0,0.0,0.0,0.0,0.0,0.0,0.0,0.0,0.0,0.0,0.0,0.0,0.0,0.0,0.0,0.0,0.0,0.0,0.0,0.0,0.0,0.0,0.0,0.0,0.0,0.0,0.0,0.0,0.0,0.0,0.0,0.0,0.0,0.0,0.0,0.0,0.0,0.0,0.0,0.0,0.0,0.0,0.0,0.0,1.6153,1.5823,1.5801,1.6139,1.5238,1.4931,0.0,0.0,0.0,0.0,0.0,0.0,0.0,0.0,0.0,0.0,0.0,0.0,0.0,0.0,0.0,0.0,0.0,0.0,0.0,0.0,0.0,0.0,0.0,0.0,0.0,0.0,0.0,0.0,0.0,0.0,0.0,0.0,0.0,0.0,0.0,0.0,0.0,0.0,0.0,0.0,0.0,0.0,0.0,0.0,0.0,0.0,0.0,0.0,0.0,0.0,0.0,0.0,0.0,0.0,0.0,0.0,0.0,0.0,0.0,0.0,0.0,0.0,0.0,0.0,0.0,0.0,0.0,0.0,0.0,0.0,0.0,0.0,0.0,0.0,0.0,0.0,0.0,0.0,0.0,0.0,0.0,0.0,0.0,0.0,0.0,0.0,0.0,0.0,0.0,0.0,0.0,0.0,0.0,0.0,0.0,0.0,0.0,0.0,0.0,0.0,0.0,0.0,0.0,0.0,0.0,0.0,0.0,0.0,0.0,1.5388,1.5371,1.5681,1.6309,1.5454,1.5072,0.0,0.0,0.0,0.0,0.0,0.0,0.0,0.0,0.0,0.0,0.0,0.0,0.0,0.0,0.0,0.0,0.0,0.0,0.0,0.0,0.0,0.0,0.0,0.0,0.0,0.0,0.0,0.0,0.0,0.0,0.0,0.0,0.0,0.0,0.0,0.0,0.0,0.0,0.0,0.0,0.0,0.0,0.0,0.0,0.0,0.0,0.0,0.0,0.0,0.0,0.0,0.0,0.0,0.0,0.0,0.0,0.0,0.0,0.0,0.0,0.0,0.0,0.0,0.0,0.0,0.0,0.0,0.0,0.0,0.0,0.0,0.0,0.0,0.0,0.0,0.0,0.0,0.0,0.0,0.0,0.0,0.0,0.0,0.0,0.0,0.0,0.0,0.0,0.0,0.0,0.0,0.0,0.0,0.0,0.0,0.0,0.0,0.0,0.0,0.0,0.0,0.0,0.0,0.0,0.0,0.0,0.0,0.0,0.0,1.5325,0.0,1.591,0.0,1.5544,1.5106,0.0,0.0,0.0,0.0,0.0,0.0,0.0,0.0,0.0,0.0,0.0,0.0,0.0,0.0,0.0,0.0,0.0,0.0,0.0,0.0,0.0,0.0,0.0,0.0,0.0,0.0,0.0,0.0,0.0,0.0,0.0,0.0,0.0,0.0,0.0,0.0,0.0,0.0,0.0,0.0,0.0,0.0,0.0,0.0,0.0,0.0,0.0,0.0,0.0,0.0,0.0,0.0,0.0,0.0,0.0,0.0,0.0,0.0,0.0,0.0,0.0,0.0,0.0,0.0,0.0,0.0,0.0,0.0,0.0,0.0,0.0,0.0,0.0,0.0,0.0,0.0,0.0,0.0,0.0,0.0,0.0,0.0,0.0,0.0,0.0,0.0,0.0,0.0,0.0,0.0,0.0,0.0,0.0,0.0,0.0,0.0,0.0,0.0,0.0,0.0,0.0,0.0,0.0,0.0,0.0,0.0,0.0,0.0,1.5305,1.6134,1.6603,1.6448,1.5738,1.5436,1.4968,0.0,0.0,0.0,0.0,0.0,0.0,0.0,0.0,0.0,0.0,0.0,0.0,0.0,0.0,0.0,0.0,0.0,0.0,0.0,0.0,0.0,0.0,0.0,0.0,0.0,0.0,0.0,0.0,0.0,0.0,0.0,0.0,0.0,0.0,0.0,0.0,0.0,0.0,0.0,0.0,0.0,0.0,0.0,0.0,0.0,0.0,0.0,0.0,0.0,0.0,0.0,0.0,0.0,0.0,0.0,0.0,0.0,0.0,0.0,0.0,0.0,0.0,0.0,0.0,0.0,0.0,0.0,0.0,0.0,0.0,0.0,0.0,0.0,0.0,0.0,0.0,0.0,0.0,0.0,0.0,0.0,0.0,0.0,0.0,0.0,0.0,0.0,0.0,0.0,0.0,0.0,0.0,0.0,0.0,0.0,0.0,0.0,0.0,0.0,0.0,0.0,0.0,0.0,0.0,0.0,0.0,0.0,0.0,0.0,1.5823,1.5941,1.6145,1.6424,1.5522,1.5123,0.0,0.0,0.0,0.0,0.0,0.0,0.0,0.0,0.0,0.0,0.0,0.0,0.0,0.0,0.0,0.0,0.0,0.0,0.0,0.0,0.0,0.0,0.0,0.0,0.0,0.0,0.0,0.0,0.0,0.0,0.0,0.0,0.0,0.0,0.0,0.0,0.0,0.0,0.0,0.0,0.0,0.0,0.0,0.0,0.0,0.0,0.0,0.0,0.0,0.0,0.0,0.0,0.0,0.0,0.0,0.0,0.0,0.0,0.0,0.0,0.0,0.0,0.0,0.0,0.0,0.0,0.0,0.0,0.0,0.0,0.0,0.0,0.0,0.0,0.0,0.0,0.0,0.0,0.0,0.0,0.0,0.0,0.0,0.0,0.0,0.0,0.0,0.0,0.0,0.0,0.0,0.0,0.0,0.0,0.0,0.0,0.0,0.0,0.0,0.0,0.0,0.0,0.0,0.0,0.0,0.0,0.0,0.0,0.0,1.61,1.6152,1.6336,1.6568,1.6021,1.5627,1.5436,0.0,0.0,0.0,0.0,0.0,0.0,0.0,0.0,0.0,0.0,0.0,0.0,0.0,0.0,0.0,0.0,0.0,0.0,0.0,0.0,0.0,0.0,0.0,0.0,0.0,0.0,0.0,0.0,0.0,0.0,0.0,0.0,0.0,0.0,0.0,0.0,0.0,0.0,0.0,0.0,0.0,0.0,0.0,0.0,0.0,0.0,0.0,0.0,0.0,0.0,0.0,0.0,0.0,0.0,0.0,0.0,0.0,0.0,0.0,0.0,0.0,0.0,0.0,0.0,0.0,0.0,0.0,0.0,0.0,0.0,0.0,0.0,0.0,0.0,0.0,0.0,0.0,0.0,0.0,0.0,0.0,0.0,0.0,0.0,0.0,0.0,0.0,0.0,0.0,0.0,0.0,0.0,0.0,0.0,0.0,0.0,0.0,0.0,0.0,0.0,0.0,0.0,0.0,0.0,0.0,0.0,0.0,0.0,1.6842,1.72,1.7035,1.6305,1.6772,1.6374,0.0,0.0,0.0,0.0,0.0,0.0,0.0,0.0,0.0,0.0,0.0,0.0,0.0,0.0,0.0,0.0,0.0,0.0,0.0,0.0,0.0,0.0,0.0,0.0,0.0,0.0,0.0,0.0,0.0,0.0,0.0,0.0,0.0,0.0,0.0,0.0,0.0,0.0,0.0,0.0,0.0,0.0,0.0,0.0,0.0,0.0,0.0,0.0,0.0,0.0,0.0,0.0,0.0,0.0,0.0,0.0,0.0,0.0,0.0,0.0,0.0,0.0,0.0,0.0,0.0,0.0,0.0,0.0,0.0,0.0,0.0,0.0,0.0,0.0,0.0,0.0,0.0,0.0,0.0,0.0,0.0,0.0,0.0,0.0,0.0,0.0,0.0,0.0,0.0,0.0,0.0,0.0,0.0,0.0,0.0,0.0,0.0,0.0,0.0,0.0,0.0,0.0,0.0,0.0,0.0,0.0,0.0,0.0,0.0,1.8364,1.8557,1.817,1.7067,1.6982,1.6505,0.0,0.0,0.0,0.0,0.0,0.0,0.0,0.0,0.0,0.0,0.0,0.0,0.0,0.0,0.0,0.0,0.0,0.0,0.0,0.0,0.0,0.0,0.0,0.0,0.0,0.0,0.0,0.0,0.0,0.0,0.0,0.0,0.0,0.0,0.0,0.0,0.0,0.0,0.0,0.0,0.0,0.0,0.0,0.0,0.0,0.0,0.0,0.0,0.0,0.0,0.0,0.0,0.0,0.0,0.0,0.0,0.0,0.0,0.0,0.0,0.0,0.0,0.0,0.0,0.0,0.0,0.0,0.0,0.0,0.0,0.0,0.0,0.0,0.0,0.0,0.0,0.0,0.0,0.0,0.0,0.0,0.0,0.0,0.0,0.0,0.0,0.0,0.0,0.0,0.0,0.0,0.0,0.0,0.0,0.0,0.0,0.0,0.0,0.0,0.0,0.0,0.0,0.0,0.0,0.0,0.0,0.0,0.0,1.9036,1.8568,1.8963,1.8755,1.7957,1.7911,1.7299,0.0,0.0,0.0,0.0,0.0,0.0,0.0,0.0,0.0,0.0,0.0,0.0,0.0,0.0,0.0,0.0,0.0,0.0,0.0,0.0,0.0,0.0,0.0,0.0,0.0,0.0,0.0,0.0,0.0,0.0,0.0,0.0,0.0,0.0,0.0,0.0,0.0,0.0,0.0,0.0,0.0,0.0,0.0,0.0,0.0,0.0,0.0,0.0,0.0,0.0,0.0,0.0,0.0,0.0,0.0,0.0,0.0,0.0,0.0,0.0,0.0,0.0,0.0,0.0,0.0,0.0,0.0,0.0,0.0,0.0,0.0,0.0,0.0,0.0,0.0,0.0,0.0,0.0,0.0,0.0,0.0,0.0,0.0,0.0,0.0,0.0,0.0,0.0,0.0,0.0,0.0,0.0,0.0,0.0,0.0,0.0,0.0,0.0,0.0,0.0,0.0,0.0,0.0,0.0,0.0,0.0,0.0,0.0,1.8944,1.8243,1.8925,1.918,1.8924,1.8998,1.8251,0.0,0.0,0.0,0.0,0.0,0.0,0.0,0.0,0.0,0.0,0.0,0.0,0.0,0.0,0.0,0.0,0.0,0.0,0.0,0.0,0.0,0.0,0.0,0.0,0.0,0.0,0.0,0.0,0.0,0.0,0.0,0.0,0.0,0.0,0.0,0.0,0.0,0.0,0.0,0.0,0.0,0.0,0.0,0.0,0.0,0.0,0.0,0.0,0.0,0.0,0.0,0.0,0.0,0.0,0.0,0.0,0.0,0.0,0.0,0.0,0.0,0.0,0.0,0.0,0.0,0.0,0.0,0.0,0.0,0.0,0.0,0.0,0.0,0.0,0.0,0.0,0.0,0.0,0.0,0.0,0.0,0.0,0.0,0.0,0.0,0.0,0.0,0.0,0.0,0.0,0.0,0.0,0.0,0.0,0.0,0.0,0.0,0.0,0.0,0.0,0.0,0.0,0.0,0.0,0.0,0.0,0.0,0.0,1.958,1.8937,2.0104,2.032,1.9452,1.872,1.7657,0.0,0.0,0.0,0.0,0.0,0.0,0.0,0.0,0.0,0.0,0.0,0.0,0.0,0.0,0.0,0.0,0.0,0.0,0.0,0.0,0.0,0.0,0.0,0.0,0.0,0.0,0.0,0.0,0.0,0.0,0.0,0.0,0.0,0.0,0.0,0.0,0.0,0.0,0.0,0.0,0.0,0.0,0.0,0.0,0.0,0.0,0.0,0.0,1.1635,0.0,0.0,0.0,0.0,0.0,0.0,0.0,0.0,0.0,0.0,0.0,0.0,0.0,0.0,0.0,0.0,0.0,0.0,0.0,0.0,0.0,0.0,0.0,0.0,0.0,0.0,0.0,0.0,0.0,0.0,0.0,0.0,0.0,0.0,0.0,0.0,0.0,0.0,0.0,0.0,0.0,0.0,0.0,0.0,0.0,0.0,0.0,0.0,0.0,0.0,0.0,0.0,0.0,0.0,0.0,0.0,0.0,0.0,0.0,1.9679,1.9501,2.0511,2.0702,1.9983,1.9029,1.7916,0.0,0.0,0.0,0.0,0.0,0.0,0.0,0.0,0.0,0.0,0.0,0.0,0.0,0.0,0.0,0.0,0.0,0.0,0.0,0.0,0.0,0.0,0.0,0.0,0.0,0.0,0.0,0.0,0.0,0.0,0.0,0.0,0.0,0.0,0.0,0.0,0.0,0.0,0.0,0.0,0.0,0.0,0.0,0.0,0.0,0.0,0.0,0.0,0.0,0.0,0.0,0.0,0.0,0.0,0.0,0.0,0.0,0.0,0.0,0.0,0.0,0.0,0.0,0.0,0.0,0.0,0.0,0.0,0.0,0.0,0.0,0.0,0.0,0.0,0.0,0.0,0.0,0.0,0.0,0.0,0.0,0.0,0.0,0.0,0.0,0.0,0.0,0.0,0.0,0.0,0.0,0.0,0.0,0.0,0.0,0.0,0.0,0.0,0.0,0.0,0.0,0.0,0.0,0.0,0.0,0.0,0.0,1.836,1.9439,1.9861,2.059,2.0789,2.0376,1.9535,1.847,1.7123,0.0,0.0,0.0,0.0,0.0,0.0,0.0,0.0,0.0,0.0,0.0,0.0,0.0,0.0,0.0,0.0,0.0,0.0,0.0,0.0,0.0,0.0,0.0,0.0,0.0,0.0,0.0,0.0,0.0,0.0,0.0,0.0,0.0,0.0,0.0,0.0,0.0,0.0,1.1616,1.2079,0.0,0.0,0.0,0.0,0.0,0.0,0.0,0.0,1.1703,0.0,0.0,0.0,0.0,0.0,0.0,0.0,0.0,0.0,0.0,0.0,0.0,0.0,0.0,0.0,0.0,0.0,0.0,0.0,0.0,0.0,0.0,0.0,0.0,0.0,0.0,0.0,0.0,0.0,0.0,0.0,0.0,0.0,0.0,0.0,0.0,0.0,0.0,0.0,0.0,0.0,0.0,0.0,0.0,0.0,0.0,0.0,0.0,0.0,0.0,0.0,0.0,0.0,0.0,0.0,0.0,1.7253,1.8062,1.8848,1.9657,2.0746,2.0996,2.0335,1.9798,1.8852,1.7462,0.0,0.0,0.0,0.0,0.0,0.0,0.0,0.0,0.0,0.0,0.0,0.0,0.0,0.0,0.0,0.0,0.0,0.0,0.0,0.0,0.0,0.0,0.0,0.0,0.0,0.0,0.0,0.0,0.0,0.0,0.0,0.0,0.0,0.0,0.0,0.0,0.0,0.0,0.0,1.1688,1.1797,0.0,0.0,0.0,0.0,0.0,0.0,0.0,0.0,1.0841,0.0,0.0,0.0,0.0,0.0,0.0,0.0,0.0,0.0,0.0,0.0,0.0,0.0,0.0,0.0,0.0,0.0,0.0,0.0,0.0,0.0,0.0,0.0,0.0,0.0,0.0,0.0,0.0,0.0,0.0,0.0,0.0,0.0,0.0,0.0,0.0,0.0,0.0,0.0,0.0,0.0,0.0,0.0,0.0,0.0,0.0,0.0,0.0,0.0,0.0,0.0,0.0,0.0,0.0,0.0,1.7142,1.8163,1.9233,2.0342,2.0663,2.0762,2.062,1.9703,1.8821,0.0,0.0,0.0,0.0,0.0,0.0,0.0,0.0,0.0,0.0,0.0,0.0,0.0,0.0,0.0,0.0,0.0,0.0,0.0,0.0,0.0,0.0,0.0,0.0,0.0,0.0,0.0,0.0,0.0,0.0,0.0,0.0,0.0,0.0,0.0,0.0,0.0,0.0,0.0,0.0,1.1908,1.2073,1.2163,0.0,0.0,0.0,0.0,0.0,0.0,1.1498,1.1118,0.0,0.0,0.0,0.0,0.0,0.0,0.0,0.0,0.0,0.0,0.0,0.0,0.0,0.0,0.0,0.0,0.0,0.0,0.0,0.0,0.0,0.0,0.0,0.0,0.0,0.0,0.0,0.0,0.0,0.0,0.0,0.0,0.0,0.0,0.0,0.0,0.0,0.0,0.0,0.0,0.0,0.0,0.0,0.0,0.0,0.0,0.0,0.0,0.0,0.0,0.0,0.0,0.0,0.0,0.0,1.6825,1.8238,1.9626,2.0959,2.0864,2.0843,2.0977,1.9859,1.8979,0.0,0.0,0.0,0.0,0.0,0.0,0.0,0.0,0.0,0.0,0.0,0.0,0.0,0.0,0.0,0.0,0.0,0.0,0.0,0.0,0.0,0.0,0.0,0.0,0.0,0.0,0.0,0.0,0.0,0.0,0.0,0.0,0.0,0.0,0.0,0.0,0.0,0.0,0.0,0.0,0.0,1.2377,1.2269,1.2034,0.0,0.0,0.0,0.0,1.1615,1.1487,0.0,0.0,0.0,0.0,0.0,0.0,0.0,0.0,0.0,0.0,0.0,0.0,0.0,0.0,0.0,0.0,0.0,0.0,0.0,0.0,0.0,0.0,0.0,0.0,0.0,0.0,0.0,0.0,0.0,0.0,0.0,0.0,0.0,0.0,0.0,0.0,0.0,0.0,0.0,0.0,0.0,0.0,0.0,0.0,0.0,0.0,0.0,0.0,0.0,0.0,0.0,0.0,0.0,0.0,0.0,0.0,1.6385,1.8068,1.9511,2.0708,2.1834,2.1973,2.1038,2.0721,1.9854,0.0,0.0,0.0,0.0,0.0,0.0,0.0,0.0,0.0,0.0,0.0,0.0,0.0,0.0,0.0,0.0,0.0,0.0,0.0,0.0,0.0,0.0,0.0,0.0,0.0,0.0,0.0,0.0,0.0,0.0,0.0,0.0,0.0,0.0,0.0,0.0,0.0,0.0,0.0,0.0,0.0,1.2289,1.2446,1.1706,1.1274,0.0,0.0,1.1241,1.0801,1.0668,0.0,0.0,0.0,0.0,0.0,0.0,0.0,0.0,0.0,0.0,0.0,0.0,0.0,0.0,0.0,0.0,0.0,0.0,0.0,0.0,0.0,0.0,0.0,0.0,0.0,0.0,0.0,0.0,0.0,0.0,0.0,0.0,0.0,0.0,0.0,0.0,0.0,0.0,0.0,0.0,0.0,0.0,0.0,0.0,0.0,0.0,0.0,0.0,0.0,0.0,0.0,0.0,0.0,0.0,0.0,1.5759,1.6285,1.8474,2.0109,2.1084,2.1774,2.1884,2.1392,2.0322,1.9083,0.0,0.0,0.0,0.0,0.0,0.0,0.0,0.0,0.0,0.0,0.0,0.0,0.0,0.0,0.0,0.0,0.0,0.0,0.0,0.0,0.0,0.0,0.0,0.0,0.0,0.0,0.0,0.0,0.0,0.0,0.0,0.0,0.0,0.0,0.0,0.0,0.0,0.0,0.0,0.0,0.0,0.0,1.2562,1.1817,0.0,0.0,0.0,1.0902,1.0723,0.0,0.0,0.0,0.0,0.0,0.0,0.0,0.0,0.0,0.0,0.0,0.0,0.0,0.0,0.0,0.0,0.0,0.0,0.0,0.0,0.0,0.0,0.0,0.0,0.0,0.0,0.0,0.0,0.0,0.0,0.0,0.0,0.0,0.0,0.0,0.0,0.0,0.0,0.0,0.0,0.0,0.0,0.0,0.0,0.0,0.0,0.0,0.0,0.0,0.0,0.0,0.0,0.0,0.0,0.0,0.0,0.0,1.6381,1.9049,2.0699,2.1263,2.1847,2.1983,2.1615,2.0158,0.0,0.0,0.0,0.0,0.0,0.0,0.0,0.0,0.0,0.0,0.0,0.0,0.0,0.0,0.0,0.0,0.0,0.0,0.0,0.0,0.0,0.0,0.0,0.0,0.0,0.0,0.0,1.0715,0.0,0.0,0.0,0.0,0.0,0.0,0.0,0.0,0.0,0.0,0.0,0.0,0.0,0.0,1.2711,1.2629,1.1921,1.1348,0.0,0.0,1.06,1.0527,1.0073,0.9745,0.0,0.0,0.0,0.0,0.0,0.0,0.0,0.0,0.0,0.0,0.0,0.0,0.0,0.0,0.0,0.0,0.0,0.0,0.0,0.0,0.0,0.0,0.0,0.0,0.0,0.0,0.0,0.0,0.0,0.0,0.0,0.0,0.0,0.0,0.0,0.0,0.0,0.0,0.0,0.0,0.0,0.0,0.0,0.0,0.0,0.0,0.0,0.0,0.0,0.0,0.0,0.0,0.0,0.0,1.6067,1.6804,1.9597,2.0988,2.0992,2.2538,2.2768,2.1473,2.0908,1.9471,0.0,0.0,0.0,0.0,0.0,0.0,0.0,0.0,0.0,0.0,0.0,0.0,0.0,0.0,0.0,0.0,0.0,0.0,0.0,0.0,0.0,0.0,0.0,0.0,0.0,0.0,0.0,0.0,0.0,0.0,0.0,0.0,0.0,0.0,0.0,0.0,0.0,0.0,0.0,0.0,0.0,1.2593,1.2763,1.1816,1.1055,0.0,1.068,1.0303,0.9745,0.9739,0.952,0.883,0.0,0.0,0.0,0.0,0.0,0.0,0.0,0.0,0.0,0.0,0.0,0.0,0.0,0.0,0.0,0.0,0.0,0.0,0.0,0.0,0.0,0.0,0.0,0.0,0.0,0.0,0.0,0.0,1.3652,0.0,0.0,0.0,0.0,0.0,0.0,0.0,0.0,0.0,0.0,0.0,0.0,0.0,0.0,0.0,0.0,0.0,0.0,0.0,0.0,0.0,0.0,0.0,0.0,1.5994,1.6758,1.9558,2.0963,2.0965,2.2526,2.2756,2.1418,2.0813,1.9334,0.0,0.0,0.0,0.0,0.0,0.0,0.0,0.0,0.0,0.0,0.0,0.0,0.0,0.0,0.0,0.0,0.0,0.0,0.0,0.0,0.0,0.0,0.0,0.0,0.0,0.0,0.0,0.0,1.0097,1.063,1.1345,0.0,0.0,0.0,0.0,0.0,0.0,0.0,0.0,0.0,0.0,1.2579,1.2239,1.1518,0.0,0.0,1.0335,0.9918,0.9547,0.9153,0.8905,0.8816,0.8887,0.0,0.0,0.0,0.0,0.0,0.0,0.0,0.0,0.0,0.0,0.0,0.0,0.0,0.0,0.0,0.0,0.0,0.0,0.0,0.0,0.0,0.0,0.0,0.0,0.0,0.0,0.0,1.346,0.0,0.0,0.0,0.0,0.0,0.0,0.0,0.0,0.0,0.0,0.0,0.0,0.0,0.0,0.0,0.0,0.0,0.0,0.0,0.0,0.0,0.0,0.0,0.0,1.5965,1.6934,1.9478,2.0924,2.1111,2.2498,2.2687,2.1505,2.083,1.9301,0.0,0.0,0.0,0.0,0.0,0.0,0.0,0.0,0.0,0.0,0.0,0.0,0.0,0.0,0.0,0.0,0.0,0.0,0.0,0.0,0.0,0.0,0.0,0.0,0.0,0.0,0.0,0.0,1.0273,1.099,1.1718,0.0,0.0,0.0,0.0,0.0,0.0,0.0,0.0,0.0,0.0,1.2087,1.1648,1.115,1.0769,1.0522,1.0138,0.9777,0.9629,0.9132,0.8797,0.889,0.0,0.0,0.0,0.0,0.0,0.0,0.0,0.0,0.0,0.0,0.0,0.0,0.0,0.0,0.0,0.0,0.0,0.0,0.0,0.0,0.0,0.0,0.0,0.0,0.0,0.0,0.0,1.3312,0.0,0.0,1.3102,0.0,0.0,0.0,0.0,0.0,0.0,0.0,0.0,0.0,0.0,0.0,0.0,0.0,0.0,0.0,0.0,0.0,0.0,0.0,0.0,0.0,0.0,1.6001,1.7504,1.9569,2.0912,2.1583,2.2569,2.2628,2.1612,2.0998,1.9539,1.7129,0.0,0.0,0.0,0.0,0.0,0.0,0.0,0.0,0.0,0.0,0.0,0.0,0.0,0.0,0.0,0.0,0.0,0.0,0.0,0.0,0.0,0.0,0.0,0.0,0.0,0.0,1.0583,1.081,1.1216,0.0,0.0,0.0,0.0,0.0,0.0,0.0,0.0,0.0,1.2278,1.1565,1.1015,1.1165,1.0897,1.0616,1.0522,1.0205,0.9999,0.9947,0.9718,0.9446,0.0,0.0,0.0,0.0,0.0,0.0,0.0,0.0,0.0,0.0,0.0,0.0,0.0,0.0,0.0,0.0,0.0,0.0,0.0,0.0,0.0,0.0,0.0,0.0,0.0,0.0,0.0,1.3724,1.3705,0.0,0.0,0.0,0.0,0.0,0.0,0.0,0.0,0.0,0.0,0.0,1.4443,1.4378,0.0,0.0,0.0,0.0,0.0,0.0,0.0,0.0,0.0,0.0,0.0,0.0,1.6771,1.8007,2.0012,2.1149,2.1271,2.2241,2.2314,2.1375,2.0478,1.8741,1.6053,0.0,0.0,0.0,0.0,0.0,0.0,0.0,0.0,0.0,0.0,0.0,0.0,0.0,0.0,0.0,0.0,0.0,0.0,0.0,0.0,0.0,0.0,0.0,0.0,0.0,1.1068,0.0,0.0,0.0,0.0,0.0,0.0,0.0,0.0,0.0,0.0,1.1983,1.147,1.1341,1.1225,1.0939,1.0474,1.0198,1.0102,0.0,0.0,0.0,0.0,0.0,0.0,0.0,0.0,0.0,0.0,0.0,0.0,0.0,0.0,0.8037,0.7804,0.8048,0.8254,0.8111,0.0,0.0,0.0,0.0,0.0,0.0,0.0,0.0,0.0,0.0,0.0,0.0,0.0,0.0,1.4615,1.4544,1.4361,0.0,0.0,0.0,0.0,0.0,0.0,0.0,0.0,1.4693,1.5065,1.5123,1.508,1.5107,1.5176,1.5005,1.4822,0.0,0.0,0.0,0.0,0.0,0.0,0.0,0.0,1.7008,1.8072,1.995,2.1143,2.1457,2.2112,2.208,2.1306,1.9889,1.807,1.5667,1.479,1.4021,0.0,0.0,0.0,0.0,0.0,0.0,0.0,0.0,0.0,0.0,0.0,0.0,0.0,0.0,0.0,0.0,0.0,0.0,0.0,0.0,0.0,0.0,0.0,1.1085,0.0,0.0,0.0,0.0,0.0,0.0,0.0,0.0,0.0,1.2211,1.1631,1.0981,1.0721,1.0712,1.0635,1.0257,0.0,0.0,0.0,0.0,0.0,0.0,0.0,0.9993,0.9684,0.9617,0.9261,0.8444,0.7921,0.7434,0.6892,0.0,0.0,0.6781,0.7067,0.7285,0.7074,0.7225,0.7383,0.7353,0.7291,0.7291,0.0,0.0,0.0,0.0,1.5154,0.0,0.0,0.0,1.5737,1.5764,0.0,1.5258,0.0,0.0,0.0,0.0,1.4439,1.5216,0.0,0.0,1.6166,1.657,1.5845,1.6295,1.6572,1.6676,1.62,1.5991,1.5946,1.4884,1.419,0.0,0.0,0.0,0.0,0.0,1.6661,1.781,1.9576,2.0934,2.1908,2.2077,2.1874,2.1232,1.9309,1.7538,1.6061,1.4969,1.4244,1.3958,1.3079,0.0,0.0,0.0,0.0,0.0,0.0,0.0,0.0,0.0,0.0,0.0,0.0,0.0,0.0,0.0,0.0,0.0,0.0,0.0,0.0,1.058,0.0,0.0,0.0,0.0,0.0,0.0,0.0,0.0,0.0,1.1353,1.1696,1.0742,1.009,1.0375,0.0,0.0,0.0,0.0,1.0785,1.0997,1.0845,1.0716,1.0664,1.0508,1.0275,1.0119,0.0,0.0,0.8215,0.7633,0.729,0.7105,0.6466,0.6017,0.6284,0.6597,0.6852,0.6811,0.683,0.6864,0.6763,0.6632,0.6753,1.7444,0.0,0.0,0.0,0.0,1.5936,1.6261,1.6647,1.6062,1.5931,1.617,1.6698,0.0,0.0,0.0,0.0,0.0,0.0,1.5682,1.5856,1.6797,1.7115,1.7008,1.7102,1.6931,1.6578,1.644,1.635,1.6337,1.599,1.5498,1.4929,0.0,0.0,0.0,0.0,1.7854,1.8888,2.0411,2.1185,2.0993,2.141,2.0952,1.9581,1.8858,1.7812,1.6417,1.5829,1.5314,1.4803,1.4,0.0,0.0,0.0,0.0,0.0,0.0,0.0,0.0,0.0,0.0,0.0,0.0,0.0,0.0,0.0,0.0,0.0,0.0,0.0,1.1355,1.0884,1.0904,0.0,0.0,0.0,0.0,0.0,0.0,0.0,0.0,0.0,1.0441,1.0336,1.0191,0.0,0.0,1.0051,1.0257,1.0294,1.0341,1.0501,1.0647,0.0,1.0476,1.0781,1.0961,1.0666,0.9773,0.8956,0.8465,0.7866,0.7345,0.7031,0.6587,0.6137,0.5724,0.5465,0.5257,0.5083,0.5013,0.5013,0.4928,0.5098,0.5413,1.814,1.7013,1.7183,1.71,1.6886,1.7149,1.7481,1.7748,1.7339,1.7315,1.763,1.7942,1.744,1.6355,1.6047,0.0,0.0,0.0,1.6849,1.7213,1.7579,1.774,1.7801,1.7748,1.7526,1.7187,1.713,1.7085,1.7072,1.6828,1.6515,1.6086,0.0,1.5915,1.6342,1.7585,1.8528,1.9203,2.0298,2.0759,2.0472,2.051,1.999,1.8929,1.8379,1.7608,1.6678,1.6198,1.5714,1.5229,1.454,1.3809,0.0,0.0,0.0,0.0,0.0,0.0,0.0,0.0,0.0,0.0,0.0,1.1176,1.072,0.0,0.0,0.0,1.0951,1.1204,1.1397,1.0995,0.0,0.0,0.0,0.0,0.0,0.0,0.0,1.1201,1.064,1.01,0.9729,0.9721,0.9622,0.9343,0.9514,0.9724,0.994,0.0,1.0343,1.0501,1.0737,1.0758,1.0473,1.0812,1.0996,1.0538,0.9659,0.8908,0.8548,0.796,0.7456,0.7134,0.6811,0.635,0.5892,0.5335,0.4835,0.4336,0.4246,0.4288,0.4186,0.4441,0.4599,1.8554,1.8469,1.8777,1.8524,1.8028,1.8569,1.8806,1.8882,1.9101,1.9329,1.9516,1.9014,1.8545,1.8031,1.7511,0.0,1.8362,1.8245,1.828,1.8396,1.8396,1.8361,1.8207,1.8219,1.8194,1.8169,1.8049,1.7989,1.7952,1.7467,1.7206,1.7215,1.7035,1.6712,1.6331,1.7847,1.8721,1.8911,1.9494,1.9914,2.0118,1.95,1.9093,1.8869,1.7868,1.7164,1.6815,1.6123,1.5676,1.5468,1.4822,1.416,1.3573,0.0,0.0,0.0,0.0,0.0,0.0,0.0,0.0,0.0,0.0,0.0,0.0,0.0,0.0,0.0,1.0244,0.0,1.1008,1.091,0.0,0.0,0.0,1.1037,1.0592,1.0629,1.0614,1.045,0.0,0.0,0.9421,0.9032,0.864,0.8374,0.881,0.9247,0.9653,1.0121,1.0609,1.0773,1.0947,1.0862,1.0617,1.0694,1.0641,1.0071,0.9402,0.8871,0.8495,0.7977,0.7526,0.7461,0.7068,0.6675,0.6482,0.5935,0.5352,0.4619,0.4425,0.4361,0.4292,0.4298,0.4428,1.9786,1.9786,1.9817,1.9102,1.7895,1.8468,1.895,1.935,1.929,1.9269,1.9224,1.9683,1.9314,1.8371,1.8138,1.8047,1.8012,1.8105,1.8232,1.8412,1.845,1.84,1.8226,1.8288,1.813,1.7751,1.781,1.7846,1.7858,1.764,1.737,1.7161,1.7455,1.7255,1.6638,1.7622,1.8164,1.8166,1.9124,1.9585,1.9423,1.8869,1.8387,1.817,1.7675,1.7247,1.6815,1.6531,1.6305,1.6116,1.5352,1.4362,1.3325,1.2958,0.0,0.0,0.0,0.0,0.0,0.0,0.0,0.0,0.0,1.1597,1.0952,0.0,1.191,0.0,1.0456,1.0268,1.072,1.046,0.0,0.0,1.1009,1.1098,1.0911,1.0602,1.0392,1.0057,0.9722,0.9319,0.8956,0.8526,0.8365,0.8428,0.8926,0.9369,0.9653,1.0141,1.0531,1.0604,1.0728,1.0835,1.0753,1.0794,1.0483,0.9755,0.925,0.8796,0.8242,0.7787,0.7526,0.7461,0.7138,0.6811,0.6679,0.6214,0.5752,0.5355,0.4954,0.4622,0.4364,0.4303,0.4303,2.0449,2.0422,2.0529,1.9859,1.8709,1.909,1.9384,1.9655,1.983,1.9729,1.9407,1.9759,1.9502,1.8808,1.8772,1.8672,1.8499,1.8561,1.8633,1.867,1.8697,1.8748,1.8709,1.8761,1.8653,1.8485,1.8435,1.8435,1.8435,1.8273,1.8127,1.7848,1.8077,1.7715,1.6913,1.7584,1.7958,1.7929,1.84,1.8524,1.8298,1.7941,1.7632,1.7429,1.7213,1.6885,1.6504,1.6277,1.6267,1.6345,1.5401,1.4435,1.3433,1.321,1.3,0.0,0.0,0.0,0.0,0.0,0.0,0.0,0.0,0.0,0.0,0.0,1.1518,1.1121,1.0488,1.0287,1.0814,1.0629,1.0436,1.0203,1.0591,1.0646,1.0179,1.0046,0.9858,0.9522,0.9328,0.9051,0.868,0.8428,0.8344,0.8495,0.8908,0.9211,0.94,0.9894,1.0239,1.019,1.051,1.0618,1.0485,1.0345,1.0078,0.9588,0.9075,0.8624,0.8247,0.7787,0.7526,0.7461,0.7265,0.7007,0.6937,0.6544,0.6214,0.5947,0.5613,0.515,0.4628,0.4503,0.4506,2.0851,2.0869,2.1082,2.0802,2.0062,2.0153,1.999,1.9712,2.022,2.0144,1.9583,1.9527,1.9408,1.9133,1.9251,1.9251,1.9133,1.9133,1.9028,1.8934,1.8946,1.9052,1.9316,1.9186,1.9239,1.9512,1.9263,1.9182,1.9117,1.8999,1.8857,1.8703,1.8531,1.796,1.7008,1.7533,1.7786,1.7846,1.7576,1.7311,1.7136,1.6982,1.6852,1.6799,1.6512,1.6252,1.6019,1.5804,1.584,1.6135,1.5241,1.4335,1.3655,1.3443,1.3313,0.0,1.2834,0.0,0.0,0.0,0.0,0.0,0.0,0.0,0.0,1.0973,1.0792,1.0937,1.0426,1.034,1.0818,1.0841,1.0404,0.9493,0.9872,0.9964,0.9254,0.9334,0.9356,0.9022,0.8952,0.8829,0.8571,0.8468,0.8424,0.8571,0.8794,0.9026,0.9062,0.9542,0.9964,0.9804,1.018,1.0364,1.0047,0.9728,0.9536,0.9414,0.8975,0.8538,0.8452,0.7952,0.7559,0.7536,0.7391,0.7352,0.7315,0.7047,0.6783,0.6597,0.6304,0.5811,0.5093,0.4903,0.4773,2.1253,2.1496,2.1678,2.167,2.1479,2.1289,2.0422,1.9158,1.9089,1.8855,1.8519,1.8915,1.9052,1.8893,1.8786,1.8721,1.8721,1.8721,1.8667,1.853,1.8518,1.8625,1.8732,1.8709,1.8881,1.9093,1.9052,1.8999,1.8863,1.8732,1.8454,1.8052,1.7821,1.7443,1.6849,0.0,0.0,0.0,1.6962,1.7017,1.6935,1.6483,1.628,1.6243,1.5997,0.0,1.5723,1.5661,1.5515,1.5286,1.4885,0.0,0.0,0.0,0.0,0.0,0.0,0.0,0.0,0.0,0.0,0.0,1.0948,1.0577,1.0526,1.0404,1.0561,1.1168,1.0706,1.0343,1.0262,1.0059,0.9761,0.9601,0.9649,0.9591,0.9476,0.9454,0.9356,0.8899,0.8835,0.8776,0.8544,0.8271,0.8317,0.8869,0.8953,0.8917,0.8874,0.9421,0.9817,0.9804,0.9989,0.9983,0.967,0.9664,0.9594,0.9215,0.904,0.8727,0.8283,0.8215,0.7969,0.7654,0.7735,0.7826,0.7686,0.7518,0.7315,0.7319,0.6989,0.6478,0.5617,0.5359,0.5229,2.1687,2.1838,2.2138,2.2375,0.0,2.1594,2.0993,2.0512,1.9419,1.9081,1.9341,1.9396,1.9347,1.9223,1.8686,1.8452,1.8417,1.8043,1.8026,1.8344,1.8356,1.8733,1.9324,1.928,1.9324,1.9479,1.9424,1.9336,1.9156,1.8899,1.8533,1.8147,1.7583,1.7174,1.6822,1.6396,1.6234,1.6351,1.6446,1.6537,1.6611,1.6266,1.6074,1.6049,1.5933,0.0,0.0,0.0,0.0,0.0,0.0,0.0,0.0,0.0,0.0,1.3203,1.2859,1.2727,1.276,1.2109,1.1676,1.1559,1.07,1.0079,0.9963,1.0112,1.0409,1.0804,1.0749,1.0585,1.0252,1.003,0.9843,0.96,0.9533,0.9478,0.9496,0.9598,0.9545,0.9168,0.9192,0.9125,0.8856,0.8675,0.8674,0.9023,0.905,0.8959,0.9034,0.9438,0.9841,0.9771,0.9734,0.967,0.9548,0.9542,0.9661,0.9432,0.9317,0.9114,0.8918,0.8811,0.8643,0.8215,0.83,0.8323,0.8031,0.7794,0.7637,0.7624,0.7444,0.7149,0.6613,0.6218,0.5751,2.2055,2.2132,2.2554,2.2802,2.2923,2.1773,2.1637,2.2059,2.0285,0.0,0.0,2.0018,1.9854,1.962,1.8894,1.8556,1.8499,1.7804,1.7874,1.8556,1.8556,1.9121,2.01,1.9889,1.9878,2.0018,1.9866,1.9643,1.9454,1.9044,1.8611,1.8154,1.7505,1.7006,1.6648,1.6239,1.6054,1.5949,1.5964,1.6056,1.6285,1.61,1.5963,1.5913,1.5903,1.5722,1.5444,1.5299,1.5151,1.4996,1.4904,1.4612,1.4244,1.4125,1.3879,1.3368,1.309,1.2885,1.2798,1.2039,1.1473,1.142,1.0404,0.9761,0.9717,1.0009,1.0214,1.0356,1.0733,1.0681,1.0174,1.011,0.9989,0.9548,0.9526,0.9556,0.9568,0.985,0.9805,0.9429,0.9501,0.9491,0.8904,0.8876,0.8836,0.8841,0.875,0.8943,0.9103,0.9485,0.9813,0.964,0.9688,0.9646,0.9628,0.9652,0.9712,0.991,0.9723,0.9622,0.9672,0.96,0.9254,0.8694,0.8705,0.8618,0.8227,0.7999,0.7891,0.792,0.7782,0.7669,0.7513,0.7124,0.6591,2.2231,2.2628,2.2653,2.2689,2.2724,2.2541,2.2359,2.214,2.1015,2.0249,1.9645,1.9831,1.9865,1.9688,1.9539,1.9529,1.9517,1.9379,1.9391,1.954,1.954,1.9703,2.0053,1.9772,1.976,1.996,1.976,1.9346,1.8966,1.8731,1.824,1.7472,1.7141,1.6688,1.6077,1.5951,1.5874,1.5746,1.5821,1.5865,1.5873,1.569,1.5604,1.5581,1.5457,1.5311,1.5185,1.5154,1.506,1.4894,1.4621,1.4375,1.4193,1.3904,1.3584,1.3092,1.3005,1.2849,1.2594,1.2227,1.1554,1.0511,0.9959,0.9773,1.0171,0.9867,0.9855,1.0266,1.0275,0.9989,0.9676,0.967,0.9612,0.9566,0.9682,0.9814,0.9814,1.0042,1.0002,0.9528,0.948,0.9162,0.8411,0.825,0.813,0.7781,0.8009,0.816,0.8646,0.9308,0.9511,0.9391,0.98,1.0149,1.0164,1.0212,1.0206,1.0191,1.0221,1.0118,0.9903,0.9982,0.9741,0.8912,0.903,0.8946,0.8543,0.8359,0.8267,0.8302,0.8155,0.799,0.781,0.7746,0.7554,2.2262,2.242,2.2445,2.2432,2.2445,2.2211,2.2099,2.1901,2.1355,2.0938,2.0545,2.061,2.0542,2.0507,1.9966,1.9783,1.9749,1.9263,1.9321,1.976,1.9772,1.9941,2.03,2.0222,2.0087,1.9941,1.9839,1.9536,1.9062,1.8763,1.827,1.7688,1.7216,1.6758,1.6376,1.6138,1.596,1.589,1.5823,1.5772,1.5828,1.5669,1.5601,1.5601,1.5567,1.5401,1.5179,1.5123,1.5058,1.4814,1.459,1.4288,1.3826,1.36,1.3263,1.2781,1.2613,1.2428,1.2305,1.2037,1.1511,1.0633,1.051,1.0503,1.0562,1.0187,1.0104,1.0401,1.0428,1.0238,0.9798,0.9798,0.967,0.9548,0.9712,0.9868,0.9922,1.0101,1.0047,0.957,0.9456,0.9165,0.8489,0.8351,0.8191,0.7899,0.7749,0.7749,0.8045,0.8773,0.9347,0.9482,0.9701,1.0055,1.0269,1.0396,1.0451,1.0514,1.0615,1.0604,1.0497,1.0583,1.0352,0.9845,0.9644,0.9412,0.8951,0.8716,0.8562,0.8398,0.8435,0.8286,0.7943,0.7828,0.7694,2.2197,2.2123,2.2197,2.2185,2.2123,2.1741,2.1565,2.1624,2.14,2.1336,2.1336,2.1221,2.1233,2.1141,2.0453,2.0107,2.0039,1.9401,1.9483,2.0049,2.0035,2.0216,2.0579,2.0506,2.0259,1.9933,1.9802,1.955,1.9166,1.8778,1.8356,1.791,1.7252,1.6855,1.6728,1.6387,1.6272,1.6253,1.6009,1.593,1.5948,1.5811,1.5811,1.5762,1.5821,1.5606,1.5156,1.5156,1.497,1.4606,1.4441,1.4116,1.3517,1.3417,1.3149,1.2657,1.2413,1.2287,1.2175,1.1877,1.1517,1.1067,1.1018,1.088,1.0685,1.0484,1.0431,1.0644,1.071,1.0574,1.0133,1.0061,0.9978,0.9735,0.9892,1.0071,0.9959,1.0107,1.0014,0.9522,0.937,0.9079,0.8703,0.8556,0.8394,0.7936,0.7714,0.7557,0.7714,0.8399,0.907,0.958,0.9871,1.0107,1.0437,1.059,1.0753,1.0785,1.0882,1.0955,1.1027,1.1099,1.0962,1.0479,1.0121,0.9765,0.9322,0.8927,0.8685,0.8523,0.8505,0.83,0.7846,0.7621,0.748,2.2123,2.1937,2.2135,2.2061,2.1874,2.1455,2.133,2.14,2.1285,2.1221,2.1221,2.1221,2.1233,2.1221,2.1095,2.1037,2.1026,2.098,2.0945,2.0963,2.0692,2.0546,2.0506,2.0194,1.9933,1.9802,1.9539,1.9218,1.8875,1.8623,1.8155,1.7504,1.6943,1.6758,1.6675,1.6636,1.6607,1.666,1.6631,1.6416,1.6096,1.6066,1.6066,1.6066,1.6066,1.577,1.5105,1.5029,1.4734,1.4156,1.4101,1.389,1.3537,1.351,1.329,1.2951,1.2884,1.2766,1.2431,1.1845,1.1471,1.1354,1.0773,1.0426,1.0426,1.0479,1.0629,1.0729,1.0797,1.0616,1.0323,1.0299,1.02,1.0125,1.0365,1.0504,1.0151,1.0313,1.0185,0.9442,0.9301,0.9018,0.8403,0.8255,0.8025,0.7714,0.7561,0.7638,0.7949,0.8399,0.9069,0.9766,1.0284,1.0707,1.0917,1.1033,1.0997,1.1039,1.1063,1.1081,1.1105,1.1111,1.0962,1.0663,1.0218,0.9846,0.9392,0.9013,0.8703,0.8546,0.8322,0.803,0.765,0.7415,0.7326,2.2135,2.2097,2.2396,2.2424,2.2145,2.1493,2.1215,2.1273,2.1233,2.1233,2.1233,2.1233,2.1233,2.1233,2.1233,2.1233,2.1169,2.0967,2.0828,2.0828,2.0431,2.0237,1.9998,1.9802,1.9605,1.9396,1.9142,1.8875,1.8617,1.8347,1.8055,1.7754,1.7559,1.749,1.7471,1.7236,1.7119,1.7109,1.6865,1.6641,1.6488,1.6268,1.6278,1.6393,1.6061,1.5745,1.5542,1.5337,1.489,1.4259,1.4084,1.3762,1.3247,1.3122,1.299,1.2721,1.2729,1.2742,1.2797,1.2318,1.1968,1.1931,1.1441,1.1009,1.0791,1.0864,1.0864,1.0827,1.0725,1.0604,1.0339,1.0333,1.0194,1.0084,1.0278,1.0292,0.9785,0.9851,0.9771,0.9322,0.9094,0.8856,0.8475,0.8255,0.803,0.7872,0.7714,0.7714,0.8102,0.8551,0.915,0.9755,1.0432,1.0812,1.1037,1.1186,1.1186,1.1186,1.1186,1.126,1.1111,1.1117,1.1037,1.0881,1.0513,1.0143,0.9771,0.9084,0.8627,0.8389,0.7795,0.735,0.7184,0.6949,0.6718,2.263,2.254,2.2669,2.265,2.2519,2.162,2.1186,2.122,2.1204,2.1158,2.1031,2.1031,2.0967,2.0892,2.1094,2.1169,2.1031,2.0711,2.0571,2.0442,2.0107,1.9846,1.9615,1.9417,1.9274,1.9008,1.8741,1.8539,1.8347,1.8144,1.8008,1.8008,1.8008,1.8008,1.7978,1.7686,1.7549,1.7529,1.7161,1.7031,1.7064,1.659,1.6384,1.6539,1.6049,1.5734,1.5569,1.531,1.478,1.3991,1.3939,1.3668,1.3067,1.302,1.2927,1.2789,1.2789,1.2892,1.3133,1.2771,1.2439,1.2271,1.1935,1.1484,1.1186,1.1117,1.1037,1.092,1.0689,1.0562,1.0473,1.0402,1.0189,0.9993,1.0153,1.003,0.9538,0.9461,0.9397,0.9165,0.8861,0.8703,0.8627,0.8479,0.825,0.8331,0.8102,0.8097,0.8479,0.9008,0.9528,0.9976,1.0507,1.0887,1.1111,1.1186,1.126,1.1186,1.1186,1.126,1.1111,1.1111,1.1117,1.0962,1.0743,1.0293,0.9771,0.916,0.8394,0.7851,0.733,0.6891,0.6721,0.649,0.6335,2.3622,2.3321,2.2905,2.2849,2.2826,2.1738,2.1203,2.1115,2.1168,2.0967,2.0635,2.0635,2.0431,2.0237,2.0828,2.0967,2.0635,2.0571,2.0366,2.0107,1.9726,1.9605,1.9539,1.9075,1.8808,1.8808,1.8539,1.8269,1.8066,1.8008,1.8008,1.8008,1.794,1.8008,1.793,1.7901,1.7978,1.7784,1.7668,1.7639,1.7736,1.6954,1.6401,1.6254,1.6294,1.5713,1.4893,1.4684,1.4148,1.3148,1.3386,1.3406,1.3086,1.3265,1.3411,1.3411,1.3418,1.3433,1.3375,1.307,1.2718,1.2298,1.1929,1.1558,1.1192,1.1117,1.1111,1.1037,1.076,1.065,1.0724,1.0535,1.0416,1.0353,1.0093,0.9809,0.9367,0.9291,0.9165,0.8861,0.878,0.878,0.8703,0.8703,0.8784,0.8865,0.8946,0.9022,0.9322,0.9771,1.0143,1.0368,1.0738,1.1037,1.1117,1.1117,1.1117,1.1111,1.1111,1.1111,1.1111,1.1117,1.1117,1.1043,1.0818,1.0368,0.9765,0.9008,0.8089,0.7557,0.7111,0.6732,0.649,0.6335,0.6261,2.3131,2.3283,2.3374,2.3522,2.3661,2.3305,2.2143,2.0565,2.0683,2.0551,2.0302,2.0302,2.0226,2.0096,2.0366,2.0431,2.0237,1.9901,1.9694,1.9573,1.9131,1.8885,1.8875,1.8684,1.8617,1.8539,1.8405,1.8212,1.8008,1.8008,1.7881,1.7745,1.7676,1.7529,1.7314,1.7323,1.7323,1.7245,1.7245,1.7028,1.6673,1.6254,1.5834,1.5312,1.5435,1.5436,1.4963,1.4755,1.4337,1.3706,1.3821,1.3739,1.3395,1.3433,1.3492,1.3492,1.3492,1.3492,1.3419,1.3119,1.2746,1.2298,1.1929,1.1552,1.1186,1.1117,1.1037,1.0962,1.0962,1.0887,1.0743,1.0588,1.0368,1.0143,1.0067,0.9765,0.916,0.9089,0.917,0.8941,0.9013,0.9089,0.9089,0.9089,0.9094,0.917,0.9175,0.9246,0.9397,0.9765,0.9992,1.0143,1.0443,1.0738,1.0887,1.1037,1.1117,1.1117,1.1111,1.1111,1.1117,1.1111,1.1037,1.0962,1.0812,1.0288,0.9614,0.8475,0.7633,0.6949,0.6578,0.6578,0.6338,0.6261,0.6261,2.321,2.3353,2.3569,2.3827,2.3862,2.2949,2.1497,1.9873,2.014,2.0129,1.9987,1.9922,1.9846,1.9715,1.9781,1.9715,1.9584,1.9375,1.9243,1.911,1.8674,1.8482,1.8482,1.8482,1.8405,1.8414,1.8279,1.8066,1.7872,1.7881,1.7676,1.7332,1.7332,1.7185,1.6908,1.6908,1.6908,1.6908,1.6839,1.6542,1.6044,1.5771,1.5338,1.4768,1.4776,1.484,1.484,1.4561,1.4274,1.3992,1.3912,1.3775,1.3572,1.3492,1.3492,1.3492,1.3492,1.3492,1.3492,1.3273,1.29,1.2378,1.2077,1.1706,1.1186,1.1037,1.0956,1.0887,1.0795,1.0795,1.0812,1.0663,1.0363,1.0143,1.0067,0.9841,0.9231,0.9322,0.9322,0.9175,0.917,0.9246,0.9322,0.9322,0.9322,0.9392,0.9316,0.9241,0.9392,0.9463,0.969,0.9771,0.9986,1.0212,1.0438,1.0588,1.0887,1.0962,1.1037,1.1037,1.0962,1.0962,1.0887,1.0887,1.0588,1.0062,0.9231,0.8093,0.7176,0.649,0.6338,0.6416,0.6261,0.6261,0.6278,2.4009,2.3779,2.3548,2.3441,2.3161,2.092,1.9344,1.941,1.9621,1.9736,1.969,1.9626,1.9341,1.8998,1.9142,1.8952,1.8802,1.9127,1.9096,1.8808,1.8549,1.8414,1.8414,1.8397,1.8339,1.8329,1.8086,1.7803,1.7539,1.7539,1.7263,1.6978,1.6899,1.6839,1.6839,1.6769,1.6839,1.676,1.6542,1.6394,1.6237,1.5621,1.5125,1.4537,1.4266,1.4129,1.4122,1.4129,1.3912,1.3564,1.3564,1.3492,1.3492,1.3492,1.3492,1.3492,1.3492,1.3492,1.3492,1.3419,1.3053,1.2425,1.2244,1.1942,1.1309,1.0974,1.087,1.095,1.0628,1.0461,1.0875,1.0738,1.0513,1.0438,1.0212,0.9916,0.9841,0.9695,0.9544,0.9397,0.9397,0.9316,0.9306,0.9387,0.9468,0.9544,0.9311,0.916,0.9392,0.9311,0.9236,0.9387,0.9463,0.9604,0.9836,1.0067,1.0438,1.0738,1.0887,1.0887,1.0657,1.0507,1.0288,1.0212,0.9755,0.9226,0.8542,0.7484,0.6945,0.6412,0.6335,0.6281,0.6308,0.6325,0.6329,2.315,2.3001,2.2703,2.2669,2.2622,2.1459,2.0607,1.995,1.9555,1.9515,1.9614,1.9421,1.9075,1.8875,1.8875,1.8914,1.8992,1.9041,1.8821,1.8464,1.8299,1.8173,1.8222,1.838,1.8507,1.8379,1.7938,1.7608,1.748,1.7194,1.6908,1.6551,1.6482,1.6351,1.6211,1.6149,1.6079,1.5929,1.5771,1.5409,1.4982,1.4705,1.4346,1.3912,1.371,1.3702,1.371,1.371,1.3637,1.3492,1.3492,1.3492,1.3492,1.3492,1.3492,1.3492,1.3492,1.3346,1.3193,1.328,1.3086,1.245,1.2276,1.1977,1.1417,1.0988,1.0812,1.0887,1.072,1.072,1.0812,1.0887,1.0812,1.0519,1.0363,1.0218,0.9916,0.9841,0.9771,0.9695,0.9695,0.969,0.969,0.9695,0.9695,0.9771,0.9463,0.9316,0.9316,0.9008,0.8851,0.8932,0.8927,0.9003,0.9231,0.9458,0.9685,1.0132,1.0357,1.0432,1.0207,0.9981,0.976,0.9306,0.8846,0.8313,0.7553,0.7019,0.656,0.6349,0.6285,0.6329,0.6386,0.6417,0.6434,2.2628,2.2478,2.2262,2.2167,2.2115,2.1713,2.1356,2.0834,1.999,1.9725,1.9844,1.9472,1.9121,1.8917,1.8927,1.8873,1.8783,1.886,1.866,1.8296,1.8477,1.8477,1.8436,1.8537,1.8672,1.8514,1.7826,1.7409,1.7259,1.6912,1.6491,1.614,1.614,1.6008,1.5805,1.5726,1.5655,1.5505,1.5213,1.4856,1.4497,1.4209,1.392,1.3564,1.3492,1.3492,1.3492,1.3492,1.3492,1.3492,1.3492,1.3492,1.3492,1.3492,1.3492,1.3492,1.3492,1.3419,1.32,1.3314,1.3075,1.2408,1.2218,1.196,1.1417,1.0958,1.0812,1.0812,1.0749,1.0755,1.0818,1.0812,1.0812,1.0887,1.0663,1.0443,1.0067,0.9997,0.9992,0.9922,0.9846,0.9916,0.9992,0.9997,1.0067,1.0067,0.962,0.916,0.9084,0.8627,0.8475,0.8327,0.825,0.8399,0.8699,0.8851,0.8932,0.9382,0.9836,0.9755,0.9674,0.9453,0.9226,0.8394,0.7787,0.7395,0.671,0.6475,0.6093,0.6122,0.6198,0.6281,0.6361,0.639,0.6413,2.2402,2.2101,2.2101,2.1949,2.1811,2.1373,2.1397,2.1513,2.071,2.0145,2.0012,1.9473,1.9113,1.8954,1.8844,1.8652,1.829,1.8623,1.8693,1.8536,1.8832,1.918,1.9131,1.8734,1.8623,1.8587,1.7868,1.7297,1.6884,1.6546,1.6167,1.5797,1.5797,1.5831,1.5715,1.561,1.553,1.5446,1.5111,1.4721,1.4353,1.4137,1.3848,1.3492,1.3492,1.3492,1.3492,1.3492,1.3492,1.3492,1.3492,1.3492,1.3492,1.3492,1.3492,1.3543,1.3528,1.3477,1.3447,1.3397,1.2996,1.2309,1.2181,1.1808,1.1232,1.0935,1.0807,1.0738,1.0622,1.0564,1.0709,1.0796,1.0952,1.1322,1.1208,1.0808,1.0396,1.0332,1.0338,1.0078,0.9992,0.9997,1.0218,1.0218,1.0218,1.0218,0.9609,0.9079,0.8851,0.8394,0.7791,0.7714,0.7791,0.7944,0.8246,0.8327,0.8435,0.8613,0.901,0.899,0.8789,0.8546,0.808,0.7246,0.6806,0.6335,0.6045,0.5755,0.5811,0.5891,0.5966,0.6113,0.6245,0.6284,0.6412,2.2176,2.2101,2.1949,2.1873,2.1797,2.1662,2.147,2.1281,2.0254,1.9919,1.9736,1.8844,1.8487,1.8421,1.8247,1.8244,1.849,1.8637,1.8896,1.8962,1.9145,1.9268,1.9126,1.854,1.8363,1.8561,1.7888,1.7125,1.6466,1.6375,1.61,1.5576,1.576,1.5736,1.5688,1.5568,1.5458,1.5251,1.476,1.4369,1.4008,1.3797,1.3637,1.3492,1.3492,1.3492,1.3492,1.3492,1.3492,1.3492,1.3492,1.3492,1.3492,1.3506,1.3609,1.3784,1.3536,1.3386,1.34,1.3313,1.2934,1.2253,1.2149,1.1966,1.1266,1.093,1.0767,1.0599,1.0553,1.0568,1.0841,1.1106,1.1486,1.1967,1.1927,1.1643,1.1389,1.1401,1.1264,1.0709,1.0519,1.0513,1.0363,1.0293,1.0218,1.0137,0.9453,0.8775,0.8542,0.8012,0.733,0.7484,0.7561,0.7638,0.7714,0.7799,0.7905,0.7918,0.8116,0.8173,0.772,0.7115,0.6479,0.5625,0.5743,0.5439,0.5192,0.4921,0.5235,0.5465,0.5527,0.5664,0.606,0.6275,0.6417,2.2035,2.1959,2.1883,2.1818,2.1762,2.1741,2.1492,2.1024,2.0188,1.9851,1.9757,1.872,1.829,1.8432,1.8248,1.8172,1.8457,1.8578,1.8698,1.8683,1.8718,1.8919,1.9034,1.8648,1.861,1.8646,1.7787,1.7151,1.6622,1.6191,1.5838,1.5766,1.5668,1.5705,1.5708,1.5511,1.5243,1.4935,1.4571,1.4167,1.3812,1.3785,1.3601,1.3536,1.3492,1.3492,1.3499,1.3623,1.3645,1.3536,1.3492,1.3492,1.3506,1.341,1.3554,1.3906,1.355,1.3271,1.3335,1.3153,1.2645,1.2101,1.1947,1.1683,1.1246,1.0988,1.0842,1.0599,1.0631,1.07,1.0829,1.1384,1.197,1.2401,1.258,1.2356,1.176,1.1478,1.1217,1.0859,1.0663,1.0663,1.0513,1.0368,1.0218,0.9911,0.9226,0.8618,0.8237,0.7557,0.7042,0.7142,0.7254,0.7278,0.7469,0.7564,0.7608,0.7593,0.736,0.735,0.6911,0.6198,0.5686,0.5137,0.4915,0.4634,0.4544,0.4449,0.4675,0.4898,0.4959,0.5269,0.5748,0.6127,0.6274,2.1949,2.1807,2.1807,2.1772,2.1803,2.1533,2.1349,2.1038,2.023,2.0012,1.9784,1.8854,1.8313,1.8629,1.8321,1.8321,1.8021,1.8417,1.8301,1.8193,1.8193,1.839,1.8824,1.8644,1.8599,1.8512,1.7611,1.7104,1.6647,1.5813,1.5592,1.5692,1.5593,1.5634,1.5581,1.5359,1.4996,1.4825,1.4568,1.4306,1.4015,1.3984,1.3916,1.3673,1.3542,1.3521,1.3572,1.3792,1.3857,1.355,1.3594,1.3631,1.3572,1.3393,1.3668,1.3899,1.3535,1.3131,1.3271,1.2908,1.226,1.1809,1.1612,1.1354,1.1205,1.1105,1.1135,1.069,1.079,1.0908,1.113,1.1706,1.2432,1.2845,1.3091,1.2608,1.1744,1.1106,1.0871,1.0594,1.0588,1.0513,1.0438,1.0368,1.0137,0.9609,0.878,0.8047,0.761,0.7106,0.6741,0.6534,0.6727,0.7009,0.7205,0.7327,0.7307,0.7256,0.6884,0.6662,0.6368,0.5794,0.5317,0.4898,0.4461,0.417,0.4127,0.4187,0.425,0.4396,0.4537,0.5015,0.5494,0.5855,0.6068,2.1807,2.1807,2.1655,2.1609,2.1727,2.1379,2.1031,2.0653,2.0031,1.963,1.9269,1.8263,1.7921,1.8166,1.7978,1.7848,1.802,1.8078,1.8031,1.8031,1.8031,1.7951,1.8035,1.7854,1.7778,1.7648,1.7206,1.6566,1.6037,1.5968,1.5737,1.5494,1.5594,1.5559,1.5576,1.5374,1.5242,1.5086,1.4769,1.455,1.4322,1.4366,1.4227,1.3942,1.3672,1.3572,1.3647,1.3863,1.391,1.3887,1.4014,1.4081,1.3914,1.3712,1.3945,1.4152,1.355,1.3094,1.3478,1.2842,1.2171,1.1583,1.1639,1.1658,1.101,1.1432,1.1462,1.1271,1.1173,1.139,1.1823,1.229,1.2835,1.3252,1.327,1.2863,1.2213,1.1942,1.1548,1.1051,1.0692,1.0513,1.046,0.9635,0.9327,0.9084,0.8277,0.7394,0.6902,0.6479,0.6131,0.5848,0.6325,0.6528,0.6603,0.6819,0.6895,0.6877,0.6471,0.6085,0.5715,0.5385,0.4992,0.4481,0.391,0.3771,0.3792,0.3505,0.3561,0.3782,0.4172,0.4628,0.5087,0.5463,0.5824,2.1665,2.1655,2.1425,2.1389,2.143,2.1158,2.0876,2.0459,1.9564,1.921,1.9034,1.8041,1.77,1.7952,1.782,1.778,1.7819,1.7708,1.7627,1.7627,1.7635,1.7465,1.7115,1.696,1.6934,1.7238,1.6905,1.6323,1.6086,1.5725,1.5584,1.5552,1.5466,1.5449,1.5458,1.5313,1.5057,1.4821,1.4793,1.4626,1.4337,1.446,1.4338,1.4002,1.3811,1.3726,1.3726,1.3889,1.3867,1.3887,1.4076,1.428,1.4037,1.3866,1.4055,1.4266,1.3454,1.2896,1.2955,1.2537,1.1878,1.1285,1.1413,1.1395,1.1218,1.1425,1.1397,1.1324,1.1305,1.1539,1.2163,1.2246,1.2699,1.3043,1.2902,1.2357,1.1982,1.1909,1.1797,1.1183,1.089,1.069,1.0204,0.9208,0.8613,0.8407,0.7223,0.6317,0.5799,0.5448,0.5112,0.5079,0.5733,0.6017,0.5993,0.6198,0.6452,0.6347,0.6078,0.5659,0.5349,0.5033,0.4644,0.4191,0.3735,0.359,0.353,0.3233,0.3087,0.3375,0.3751,0.4208,0.475,0.5287,0.5552,2.1436,2.1425,2.1205,2.1091,2.1131,2.0926,2.0731,2.043,1.935,1.9086,1.9034,1.8057,1.7706,1.7883,1.7844,1.7781,1.7627,1.7392,1.7229,1.7139,1.7139,1.6804,1.6378,1.6198,1.6273,1.6935,1.6387,1.6069,1.5903,1.5566,1.5348,1.5541,1.5491,1.5352,1.5249,1.5234,1.5006,1.4561,1.4684,1.4676,1.4337,1.4479,1.4363,1.4057,1.3836,1.3815,1.377,1.3822,1.3837,1.37,1.3966,1.3988,1.3851,1.3702,1.3628,1.4008,1.2978,1.2539,1.2324,1.1935,1.1487,1.1043,1.0877,1.0907,1.1045,1.0954,1.095,1.0969,1.1025,1.13,1.1837,1.1923,1.21,1.2281,1.2093,1.1618,1.1318,1.1369,1.1027,1.0645,1.0152,0.9796,0.9475,0.872,0.8201,0.7533,0.6324,0.5375,0.4925,0.4564,0.4466,0.4444,0.5021,0.5305,0.5284,0.5712,0.6048,0.5813,0.5539,0.5359,0.4907,0.4519,0.4204,0.4161,0.38,0.3564,0.3409,0.3263,0.3112,0.3133,0.3499,0.4218,0.4665,0.5107,0.5282,2.0964,2.1195,2.0654,2.0693,2.1121,2.0829,2.0634,2.0479,1.9797,1.9423,1.9116,1.808,1.7662,1.7691,1.7554,1.7473,1.7302,1.6984,1.673,1.664,1.6476,1.6139,1.5816,1.5567,1.5575,1.5409,1.5231,1.5209,1.5381,1.5209,1.5114,1.5223,1.5313,1.5313,1.5216,1.5253,1.5022,1.4735,1.4738,1.4627,1.462,1.4538,1.4496,1.4149,1.3966,1.3811,1.3723,1.377,1.379,1.3671,1.3931,1.3807,1.3374,1.3099,1.316,1.3111,1.2514,1.1973,1.1717,1.145,1.0964,1.057,1.0537,1.0357,1.0274,1.0461,1.0534,1.0371,1.0464,1.0727,1.1322,1.1499,1.1757,1.1935,1.1601,1.1227,1.0559,1.0083,0.9779,0.9341,0.9032,0.8787,0.8538,0.8119,0.7405,0.6644,0.5655,0.4941,0.4482,0.4276,0.4159,0.4214,0.4358,0.445,0.4446,0.5154,0.5528,0.5154,0.5008,0.4921,0.4474,0.4032,0.3826,0.3873,0.3774,0.3615,0.3369,0.3206,0.3106,0.3016,0.357,0.4314,0.4576,0.4926,0.5282,1.9968,2.0287,1.962,1.9955,2.0678,2.0226,2.0072,2.0264,2.0134,1.972,1.8904,1.806,1.7585,1.7538,1.7473,1.7221,1.6894,1.6574,1.6245,1.5906,1.5733,1.5477,1.5144,1.5061,1.4894,1.4741,1.458,1.458,1.4824,1.4901,1.4915,1.4908,1.4999,1.4999,1.4908,1.4894,1.4748,1.4664,1.4657,1.465,1.4566,1.4559,1.4379,1.4158,1.3944,1.3785,1.3695,1.3438,1.351,1.3457,1.3398,1.2946,1.2529,1.2346,1.2438,1.2605,1.2054,1.1449,1.1258,1.1022,1.0726,1.0324,1.0213,1.0158,1.0002,1.0069,1.0024,1.0069,1.0029,1.0294,1.0549,1.0722,1.0895,1.0854,1.0524,1.0075,0.9545,0.8776,0.8325,0.8036,0.8235,0.8181,0.7901,0.7314,0.6483,0.5704,0.4947,0.4468,0.408,0.3853,0.371,0.3641,0.3671,0.358,0.3669,0.4208,0.4842,0.4567,0.4474,0.4389,0.421,0.3765,0.3676,0.3748,0.366,0.3476,0.339,0.3215,0.3014,0.2998,0.3653,0.4222,0.4482,0.4746,0.5102,1.8976,1.935,1.8563,1.8995,1.999,1.945,1.942,1.979,2.0261,1.9767,1.8691,1.7874,1.7334,1.7302,1.7229,1.6976,1.6394,1.6162,1.5665,1.5333,1.5159,1.4817,1.4566,1.4489,1.4496,1.4405,1.425,1.4334,1.4573,1.4657,1.465,1.465,1.465,1.465,1.4566,1.465,1.4405,1.4328,1.4412,1.4482,1.4398,1.423,1.4153,1.3913,1.3652,1.3464,1.3269,1.3184,1.3118,1.307,1.2869,1.2318,1.1538,1.1479,1.1686,1.1933,1.154,1.1042,1.068,1.0686,1.0466,1.0057,0.9911,0.9822,0.962,0.9385,0.9375,0.9675,0.9722,0.9689,0.9772,0.9772,0.9772,0.9483,0.9035,0.8508,0.8173,0.7666,0.6983,0.6976,0.7435,0.7348,0.687,0.6511,0.5754,0.5315,0.4626,0.4278,0.3877,0.3367,0.3121,0.286,0.2778,0.2777,0.2865,0.3132,0.3582,0.376,0.3849,0.3942,0.3853,0.3585,0.3587,0.3499,0.3494,0.3398,0.3312,0.3212,0.3092,0.3263,0.384,0.4218,0.4478,0.4743,0.501,1.8073,1.8526,1.7728,1.8013,1.8789,1.8415,1.869,1.9288,1.9636,1.9552,1.8628,1.7476,1.6993,1.7041,1.6902,1.6738,1.6402,1.5816,1.5409,1.5075,1.4664,1.4334,1.4173,1.4166,1.425,1.4159,1.4082,1.4243,1.4405,1.4398,1.4398,1.4475,1.4566,1.465,1.4573,1.4482,1.4398,1.4321,1.4243,1.4166,1.4082,1.373,1.3568,1.3392,1.3137,1.279,1.2705,1.2711,1.2729,1.2765,1.2729,1.2222,1.1466,1.1328,1.0983,1.0748,1.0417,1.0181,1.0003,1.0176,1.0245,0.9889,0.9677,0.9304,0.8931,0.8711,0.8687,0.8761,0.8911,0.8995,0.899,0.8986,0.8807,0.8452,0.8066,0.7519,0.7088,0.6692,0.6002,0.5753,0.6145,0.5885,0.5429,0.5257,0.4991,0.4639,0.437,0.4099,0.3744,0.322,0.2598,0.2331,0.2242,0.2152,0.2331,0.2508,0.2777,0.3045,0.3315,0.3585,0.3497,0.3318,0.3141,0.3053,0.3139,0.3215,0.3024,0.3006,0.3072,0.3437,0.3827,0.42,0.4565,0.4741,0.4832,1.6541,1.7341,1.663,1.6706,1.7237,1.6977,1.72,1.7751,1.803,1.806,1.7912,1.7179,1.674,1.6804,1.6492,1.6162,1.5899,1.5311,1.4901,1.4748,1.4334,1.4088,1.4088,1.4088,1.4088,1.4088,1.4088,1.4082,1.4243,1.4243,1.4243,1.4243,1.4328,1.4328,1.4412,1.4243,1.4243,1.4159,1.3906,1.3743,1.3568,1.3307,1.3045,1.296,1.2705,1.2454,1.2369,1.2283,1.2392,1.2416,1.2295,1.1714,1.1009,1.0699,1.046,0.9801,0.9582,0.9553,0.9785,0.9917,0.9941,0.9979,0.9703,0.9312,0.8649,0.8472,0.8281,0.8197,0.8204,0.8201,0.8025,0.7841,0.7757,0.7492,0.7136,0.6874,0.634,0.5719,0.5265,0.5097,0.4924,0.4832,0.4743,0.4741,0.4828,0.465,0.438,0.42,0.3842,0.331,0.2598,0.1794,0.1705,0.1615,0.1884,0.2153,0.2422,0.269,0.296,0.3141,0.3141,0.2963,0.2873,0.2694,0.2782,0.2767,0.2741,0.3003,0.3269,0.3541,0.3813,0.4188,0.4565,0.4656,0.4746,1.5242,1.6028,1.5673,1.5621,1.5928,1.587,1.6187,1.6657,1.6742,1.692,1.7025,1.6879,1.6683,1.6648,1.6335,1.5997,1.5567,1.4985,1.4573,1.4334,1.4173,1.4088,1.4088,1.4088,1.4088,1.4004,1.3913,1.3997,1.3997,1.3997,1.3997,1.4088,1.4166,1.4082,1.3997,1.3913,1.3828,1.3646,1.3392,1.3222,1.3137,1.2784,1.2613,1.2443,1.2277,1.2112,1.2112,1.2032,1.2049,1.1963,1.186,1.1379,1.049,1.0277,0.9976,0.9349,0.8996,0.911,0.9456,0.9712,0.9799,0.9873,0.98,0.9262,0.8935,0.8652,0.83,0.7852,0.7672,0.7408,0.7143,0.7051,0.6962,0.6786,0.6432,0.6169,0.5905,0.5455,0.5099,0.4924,0.4746,0.4567,0.4478,0.4567,0.4567,0.4569,0.4478,0.4297,0.3851,0.3403,0.2778,0.1884,0.1615,0.1525,0.1795,0.1974,0.2244,0.2424,0.2694,0.2875,0.2963,0.2873,0.2694,0.2604,0.2515,0.2756,0.2904,0.3187,0.3476,0.3565,0.3835,0.4111,0.4391,0.4569,0.4569,1.4403,1.4742,1.5261,1.52,1.4867,1.5599,1.625,1.6669,1.6718,1.6734,1.6702,1.6668,1.664,1.6492,1.617,1.5922,1.5922,1.5075,1.4657,1.4489,1.4328,1.4173,1.4088,1.4088,1.3997,1.3828,1.3828,1.3822,1.3737,1.3737,1.3906,1.4082,1.4088,1.3913,1.3737,1.3483,1.3307,1.3045,1.279,1.279,1.2619,1.2357,1.2015,1.1935,1.1602,1.1348,1.1435,1.1521,1.1521,1.1354,1.1338,1.1086,1.0224,0.9945,0.9569,0.9105,0.8668,0.8822,0.9177,0.9386,0.9447,0.9521,0.9452,0.9209,0.8815,0.8204,0.7852,0.7676,0.7319,0.7054,0.6789,0.6612,0.6435,0.6257,0.5991,0.5816,0.5638,0.5369,0.5013,0.4748,0.4659,0.4656,0.4567,0.4656,0.4478,0.4478,0.4391,0.421,0.3762,0.3315,0.2868,0.2242,0.1794,0.1705,0.1885,0.2155,0.2334,0.2515,0.2784,0.2875,0.2875,0.2785,0.2604,0.2603,0.2599,0.2835,0.3071,0.3167,0.3361,0.357,0.3765,0.4123,0.4302,0.4389,0.4389,1.4171,1.4372,1.4915,1.5157,1.5325,1.5701,1.6182,1.6665,1.6709,1.6527,1.632,1.6363,1.6154,1.5824,1.5492,1.5242,1.5159,1.4671,1.4412,1.4328,1.4166,1.4088,1.4088,1.4082,1.4082,1.3913,1.3913,1.3913,1.3913,1.3652,1.3561,1.3737,1.3913,1.3568,1.3307,1.3052,1.279,1.2619,1.2443,1.2272,1.2192,1.1854,1.1602,1.1516,1.1073,1.0906,1.0901,1.0733,1.0651,1.0651,1.0559,1.0225,0.9909,0.9647,0.9212,0.8953,0.8606,0.8677,0.8827,0.9017,0.919,0.9316,0.9305,0.9082,0.8552,0.794,0.7496,0.7143,0.6786,0.652,0.6174,0.5997,0.5908,0.5822,0.573,0.5552,0.5371,0.528,0.5102,0.4926,0.5015,0.5102,0.5013,0.4924,0.4567,0.4389,0.43,0.421,0.3764,0.3406,0.3048,0.269,0.2242,0.2064,0.2243,0.2334,0.2515,0.2604,0.2785,0.2785,0.2785,0.2694,0.2515,0.2513,0.2512,0.2675,0.283,0.3065,0.3332,0.3625,0.3922,0.4212,0.43,0.4389,0.43,1.402,1.4125,1.4497,1.4911,1.5324,1.5805,1.5921,1.5994,1.6203,1.6154,1.5906,1.5906,1.5741,1.5318,1.4985,1.4734,1.4657,1.4334,1.4166,1.4088,1.4088,1.4088,1.3997,1.3913,1.3822,1.3828,1.3828,1.3743,1.3568,1.3313,1.313,1.313,1.3392,1.3137,1.2796,1.2454,1.2369,1.2198,1.202,1.1671,1.1591,1.1246,1.0997,1.0911,1.0554,1.0467,1.0381,1.0207,1.0212,1.0125,0.9951,0.9777,0.9515,0.9257,0.8911,0.874,0.8652,0.8572,0.8703,0.8913,0.9117,0.9131,0.8978,0.8552,0.8025,0.7492,0.6697,0.634,0.6074,0.5811,0.5552,0.546,0.546,0.546,0.5552,0.5463,0.5463,0.5371,0.5282,0.5191,0.5282,0.5282,0.5102,0.4921,0.4743,0.4476,0.43,0.421,0.4032,0.3674,0.3406,0.3048,0.269,0.2602,0.2602,0.2603,0.2513,0.2515,0.2604,0.2604,0.2604,0.2515,0.2334,0.2243,0.2243,0.2333,0.2677,0.3098,0.3515,0.3851,0.407,0.421,0.43,0.43,0.4297,1.3794,1.4062,1.4139,1.4283,1.4617,1.6018,1.5741,1.4634,1.5162,1.5477,1.5394,1.5394,1.5401,1.5228,1.4734,1.4657,1.4573,1.425,1.4088,1.4088,1.3997,1.3913,1.3828,1.3737,1.3561,1.3222,1.3228,1.3222,1.2875,1.279,1.2528,1.2357,1.2534,1.2619,1.2363,1.1952,1.1613,1.1354,1.1343,1.1079,1.0895,1.0722,1.0467,1.0299,1.0038,0.9946,0.9951,0.9777,0.9781,0.9777,0.9602,0.9432,0.9262,0.9087,0.874,0.8564,0.8564,0.8568,0.8564,0.8986,0.8894,0.8727,0.8376,0.7933,0.7485,0.6691,0.5897,0.5719,0.5453,0.5188,0.5099,0.5099,0.5099,0.5191,0.5371,0.5371,0.5371,0.5463,0.5371,0.5371,0.5371,0.5371,0.5191,0.501,0.4743,0.4565,0.4387,0.43,0.421,0.4119,0.3941,0.3674,0.3406,0.3227,0.3138,0.2691,0.2603,0.2513,0.2515,0.2425,0.2334,0.2155,0.1974,0.1885,0.2064,0.2333,0.278,0.3221,0.3554,0.38,0.3997,0.4208,0.4297,0.4297,0.4208,1.3995,1.4088,1.4088,1.4105,1.4268,1.4768,1.458,1.4338,1.4913,1.5228,1.4977,1.4901,1.4741,1.458,1.4419,1.4334,1.425,1.425,1.4088,1.4088,1.3997,1.3822,1.3652,1.3568,1.3392,1.3313,1.3137,1.2966,1.296,1.2448,1.2186,1.21,1.1763,1.1935,1.1935,1.1688,1.1348,1.1262,1.1079,1.0727,1.0549,1.0294,1.012,0.9946,0.9689,0.9519,0.9519,0.9349,0.9262,0.9257,0.9082,0.8999,0.8911,0.874,0.856,0.8384,0.8296,0.8208,0.812,0.8021,0.7757,0.7669,0.758,0.7136,0.6425,0.6071,0.563,0.5275,0.5099,0.4921,0.501,0.501,0.501,0.501,0.5102,0.5102,0.5191,0.5371,0.546,0.5549,0.5549,0.5547,0.5455,0.5188,0.4919,0.4832,0.4654,0.4567,0.4567,0.4654,0.4565,0.4478,0.4212,0.4032,0.3764,0.3229,0.2781,0.2602,0.2424,0.2244,0.2155,0.1885,0.1795,0.1795,0.1974,0.2244,0.2602,0.2959,0.3315,0.358,0.3762,0.403,0.4208,0.4119,0.403,1.4088,1.4088,1.4088,1.4088,1.4082,1.4126,1.4079,1.4232,1.4706,1.4734,1.4573,1.4489,1.4419,1.4173,1.4088,1.4088,1.4088,1.4088,1.4088,1.4088,1.3913,1.3737,1.3561,1.3398,1.3137,1.3058,1.2802,1.2631,1.246,1.1935,1.1499,1.1154,1.0992,1.0992,1.1073,1.0992,1.0992,1.0906,1.0641,1.0294,1.0033,0.9864,0.9694,0.9432,0.9262,0.9003,0.8999,0.8828,0.8656,0.8652,0.8564,0.8472,0.8472,0.838,0.8208,0.8116,0.7848,0.7764,0.7499,0.7054,0.6786,0.634,0.6432,0.6166,0.5544,0.5275,0.5008,0.4832,0.4743,0.4743,0.4743,0.4743,0.4743,0.4743,0.4835,0.4835,0.5013,0.5104,0.5282,0.546,0.5552,0.5636,0.5633,0.5455,0.5099,0.501,0.4924,0.4835,0.4746,0.4921,0.4921,0.4835,0.4569,0.43,0.4032,0.3676,0.3229,0.278,0.2512,0.2155,0.1885,0.1615,0.1615,0.1615,0.1705,0.1885,0.2333,0.269,0.3047,0.3226,0.3406,0.3674,0.4032,0.3941,0.3851,1.4088,1.4088,1.4088,1.4088,1.4088,1.4082,1.4082,1.4082,1.4166,1.4166,1.4088,1.4166,1.4088,1.4088,1.4088,1.4088,1.4088,1.4088,1.3997,1.3997,1.3828,1.3652,1.3307,1.3052,1.2711,1.2375,1.2118,1.186,1.1613,1.1251,1.0727,1.0294,1.0299,1.0299,1.0386,1.0381,1.0554,1.0467,1.0212,0.9864,0.9607,0.9345,0.9087,0.8915,0.8744,0.8652,0.8564,0.8476,0.8476,0.8296,0.8028,0.8028,0.7937,0.7753,0.776,0.7588,0.7319,0.7058,0.6704,0.6346,0.5902,0.5544,0.5366,0.5191,0.5013,0.4654,0.4478,0.4387,0.43,0.43,0.43,0.43,0.43,0.4391,0.448,0.4569,0.4748,0.4926,0.5104,0.5193,0.5374,0.5371,0.5282,0.5191,0.4741,0.4652,0.4474,0.4474,0.4565,0.4921,0.4921,0.4832,0.4656,0.4478,0.4121,0.3765,0.3317,0.2869,0.2333,0.1974,0.1705,0.1436,0.1525,0.1525,0.1436,0.1615,0.1973,0.2332,0.2689,0.2869,0.3139,0.3408,0.3765,0.3674,0.3585,1.4088,1.4088,1.4088,1.4088,1.4088,1.4088,1.4088,1.4088,1.4088,1.4088,1.4088,1.4088,1.4088,1.4088,1.4088,1.4088,1.4088,1.4082,1.3822,1.3652,1.3483,1.3052,1.2711,1.2369,1.2026,1.1677,1.1332,1.1079,1.0733,1.0381,1.0294,1.0033,0.9864,0.9951,0.9864,0.9777,0.9951,0.9951,0.9689,0.9432,0.9174,0.9003,0.8744,0.8568,0.8568,0.8388,0.812,0.8028,0.794,0.7584,0.7408,0.7404,0.7316,0.7136,0.6959,0.6612,0.652,0.6428,0.6077,0.5544,0.5188,0.4832,0.4743,0.4567,0.4389,0.421,0.4034,0.4034,0.3942,0.3942,0.3942,0.3942,0.3944,0.4034,0.4214,0.4304,0.4482,0.4661,0.4837,0.4837,0.4926,0.4748,0.4746,0.4385,0.4026,0.4024,0.4026,0.4026,0.4204,0.4474,0.4741,0.4654,0.4565,0.4208,0.4121,0.3764,0.3317,0.2869,0.2332,0.1885,0.1615,0.1436,0.1436,0.1256,0.1076,0.1166,0.1525,0.1883,0.2061,0.2691,0.2963,0.323,0.3408,0.3408,0.3317,1.4088,1.4088,1.4088,1.4088,1.4088,1.4088,1.4088,1.4088,1.4088,1.4088,1.4088,1.4088,1.4088,1.4088,1.4082,1.3997,1.3822,1.3743,1.3574,1.3326,1.2881,1.2351,1.2015,1.1591,1.1246,1.0895,1.0722,1.0467,1.012,0.9864,0.9694,0.9432,0.9432,0.9432,0.9345,0.9174,0.9174,0.9262,0.917,0.9087,0.8915,0.8744,0.8564,0.83,0.8296,0.8028,0.7584,0.7496,0.7316,0.6962,0.6871,0.67,0.6609,0.634,0.6248,0.5811,0.5364,0.5272,0.5008,0.4474,0.4295,0.4117,0.4028,0.3941,0.3942,0.3855,0.3855,0.3765,0.3676,0.3587,0.3587,0.3587,0.3676,0.3765,0.3857,0.3946,0.4214,0.4482,0.4569,0.4478,0.43,0.4119,0.3849,0.3491,0.3312,0.3314,0.3314,0.3227,0.3492,0.3848,0.4026,0.4115,0.4117,0.3941,0.3853,0.3585,0.3138,0.269,0.2333,0.1885,0.1525,0.1346,0.1256,0.0987,0.0628,0.0628,0.0538,0.0897,0.1166,0.1974,0.2694,0.3053,0.3141,0.3141,0.3141,1.4041,1.4041,1.4075,1.4088,1.4088,1.4088,1.4088,1.4088,1.3997,1.4082,1.4082,1.4004,1.3997,1.3913,1.3828,1.3652,1.3392,1.3307,1.3241,1.3089,1.2283,1.1746,1.1139,1.0799,1.0549,1.0294,1.0038,0.9864,0.9781,0.9437,0.9091,0.8652,0.8744,0.8832,0.8832,0.8744,0.8832,0.8828,0.8736,0.856,0.8652,0.8476,0.8296,0.794,0.7764,0.7496,0.7143,0.6962,0.6874,0.6605,0.634,0.5991,0.5633,0.5364,0.5275,0.5006,0.4383,0.4204,0.4028,0.3583,0.3314,0.3135,0.3045,0.3227,0.3317,0.3587,0.3587,0.3497,0.3408,0.3409,0.332,0.3318,0.3408,0.3408,0.3496,0.3585,0.3674,0.3942,0.3942,0.3851,0.3494,0.3315,0.3226,0.2867,0.2508,0.2599,0.2601,0.2423,0.2601,0.3044,0.3401,0.358,0.3582,0.3494,0.3405,0.3138,0.2871,0.2512,0.2154,0.1885,0.1525,0.1256,0.1166,0.0628,-0.0,-0.0448,-0.0538,-0.0269,0.0359,0.1436,0.2155,0.2694,0.2875,0.2963,0.2963,1.3748,1.3774,1.3995,1.4088,1.4088,1.4088,1.4082,1.3997,1.3561,1.3626,1.3997,1.373,1.3568,1.3568,1.3222,1.3045,1.2875,1.279,1.2735,1.2307,1.1688,1.0799,1.0183,1.0024,0.9859,0.9607,0.9437,0.9349,0.9091,0.8915,0.8744,0.8656,0.8572,0.8572,0.8568,0.8568,0.848,0.848,0.8212,0.8208,0.8388,0.812,0.7852,0.7672,0.7492,0.6966,0.6612,0.6349,0.5988,0.5542,0.5364,0.5008,0.4474,0.4206,0.3937,0.3669,0.358,0.3401,0.3224,0.2957,0.2777,0.2777,0.2868,0.278,0.2869,0.3229,0.3318,0.3229,0.3229,0.3141,0.3142,0.3141,0.3051,0.3138,0.3136,0.3136,0.3136,0.3315,0.3403,0.3136,0.278,0.2601,0.2511,0.2241,0.1883,0.1793,0.1705,0.1705,0.1705,0.2061,0.2688,0.2867,0.3045,0.2957,0.2778,0.2601,0.2242,0.2154,0.1885,0.1615,0.1346,0.0897,0.0359,-0.009,-0.0628,-0.1076,-0.1436,-0.1346,-0.0628,0.0628,0.1974,0.2694,0.2875,0.2873,0.2875,1.3454,1.3487,1.3768,1.3985,1.4102,1.4139,1.3762,1.3194,1.2847,1.2868,1.3176,1.3084,1.3045,1.3045,1.279,1.2443,1.2357,1.21,1.1763,1.1338,1.0824,0.9937,0.9501,0.9336,0.917,0.8999,0.8999,0.8828,0.8656,0.866,0.866,0.8572,0.8572,0.8572,0.8568,0.8388,0.8296,0.8208,0.7764,0.7676,0.7944,0.7676,0.7319,0.7139,0.6786,0.6346,0.5991,0.5727,0.5369,0.4832,0.4565,0.4117,0.3582,0.3226,0.3136,0.2957,0.2777,0.2688,0.2601,0.242,0.233,0.2331,0.2241,0.2063,0.2153,0.2422,0.2781,0.2691,0.2962,0.2964,0.2964,0.2963,0.2784,0.2781,0.269,0.269,0.2869,0.3048,0.3139,0.3051,0.2512,0.1973,0.1884,0.1884,0.1524,0.1166,0.1076,0.1076,0.1076,0.1076,0.1704,0.2061,0.2061,0.1972,0.1703,0.1614,0.1615,0.1525,0.1346,0.0987,0.0538,-0.0,-0.0448,-0.0807,-0.1256,-0.1705,-0.1974,-0.1885,-0.1166,0.009,0.1525,0.2785,0.2785,0.2515,0.2334,1.3015,1.3081,1.3319,1.3696,1.4036,1.3961,1.3098,1.1975,1.1922,1.191,1.2017,1.2314,1.2421,1.2565,1.2395,1.2077,1.1752,1.1327,1.0804,1.0289,0.9781,0.9336,0.899,0.8644,0.874,0.874,0.8656,0.8656,0.8572,0.8572,0.8572,0.8572,0.8572,0.8572,0.8476,0.812,0.7852,0.7764,0.7408,0.7054,0.7051,0.7051,0.6786,0.6432,0.608,0.5816,0.5371,0.5013,0.4835,0.43,0.3853,0.3317,0.2868,0.2511,0.242,0.233,0.1972,0.1973,0.1884,0.1615,0.1435,0.1346,0.1346,0.1346,0.1436,0.1705,0.2064,0.2244,0.2515,0.2604,0.2604,0.2515,0.2334,0.2244,0.2154,0.2063,0.2332,0.2511,0.2512,0.2515,0.2064,0.1346,0.1256,0.1256,0.1076,0.0807,0.0538,0.0538,0.0538,0.0538,0.0807,0.0896,0.0896,0.0807,0.0717,0.0538,0.0628,0.0359,0.0179,-0.0,-0.0179,-0.0628,-0.1076,-0.1436,-0.1885,-0.2155,-0.2064,-0.1885,-0.1076,-0.0269,0.1256,0.2424,0.1795,0.1525,0.1436,1.2342,1.2227,1.2289,1.2933,1.3884,1.3263,1.2134,1.1059,1.1249,1.1407,1.1312,1.1092,1.1265,1.1801,1.1047,1.0773,1.101,1.0514,1.0115,0.9611,0.9432,0.8995,0.8736,0.8564,0.8568,0.8572,0.8572,0.8572,0.8572,0.8572,0.8572,0.8572,0.8572,0.8568,0.8476,0.812,0.7672,0.7496,0.6966,0.6523,0.652,0.652,0.6435,0.608,0.5727,0.5282,0.4837,0.4387,0.403,0.3585,0.3048,0.2691,0.2243,0.1884,0.1704,0.1793,0.1435,0.1435,0.1346,0.0897,0.0628,0.0628,0.0628,0.0718,0.0897,0.1077,0.1346,0.1436,0.1615,0.1525,0.1525,0.1525,0.1346,0.1346,0.1345,0.1166,0.1166,0.1166,0.1166,0.1166,0.0987,0.0718,0.0807,0.0807,0.0807,0.0269,-0.0448,-0.0448,-0.0269,-0.0179,-0.009,-0.009,-0.009,-0.0,0.009,-0.0448,-0.0538,-0.0808,-0.0898,-0.0987,-0.1076,-0.1256,-0.1615,-0.1885,-0.2064,-0.2334,-0.2244,-0.1885,-0.1346,-0.0448,0.1077,0.1974,0.1166,0.0359,0.0179]},{"header":{"parameterUnit":"m.s-1","parameterCategory":1,"la1":31.0,"la2":29.5877,"lo1":-88.7671,"lo2":-86.6584,"dy":0.0162,"dx":0.0185,"nx":115,"ny":88,"refTime":"2024-07-05T06:00:00:Z","depth":0,"parameterNumber":3,"parameterNumberName":"V-component_of_WINDS"},"data":[0.0,0.0,0.0,0.0,0.0,0.0,0.0,0.0,0.0,0.0,0.0,0.0,0.0,0.0,0.0,0.0,0.0,0.0,0.0,0.0,0.0,0.0,0.0,0.0,0.0,0.0,0.0,0.0,0.0,0.0,0.0,0.0,0.0,0.0,0.0,0.0,0.0,0.0,0.0,0.0,0.0,0.0,0.0,0.0,0.0,0.0,0.0,0.0,0.0,0.0,0.0,0.0,0.0,0.0,0.0,0.0,0.0,0.0,0.0,0.0,0.0,0.0,0.0,0.0,0.0,0.0,0.0,0.0,0.0,0.0,0.0,0.0,0.0,0.0,0.0,0.0,0.0,0.0,0.0,0.0,0.0,0.0,0.0,0.0,0.0,0.0,0.0,0.0,0.0,0.0,0.0,0.0,0.0,0.0,0.0,0.0,0.0,0.0,0.0,0.0,0.0,0.0,0.0,0.0,0.0,0.0,0.0,0.0,0.0,0.0,0.0,0.0,0.0,0.0,0.0,0.0,0.0,0.0,0.0,0.0,0.0,0.0,0.0,0.0,0.0,0.0,0.0,0.0,0.0,0.0,0.0,0.0,0.0,0.0,0.0,0.0,0.0,0.0,0.0,0.0,0.0,0.0,0.0,0.0,0.0,0.0,0.0,0.0,0.0,0.0,0.0,0.0,0.0,0.0,0.0,0.0,0.0,0.0,0.0,0.0,0.0,0.0,0.0,0.0,0.0,0.0,0.0,0.0,0.0,0.0,0.0,0.0,0.0,0.0,0.0,0.0,0.0,0.0,0.0,0.0,0.0,0.0,0.0,0.0,0.0,0.0,0.0,0.0,0.0,0.0,0.0,0.0,0.0,0.0,0.0,0.0,0.0,0.0,0.0,0.0,0.0,0.0,0.0,0.0,0.0,0.0,0.0,0.0,0.0,0.0,0.0,0.0,0.0,0.0,0.0,0.0,0.0,0.0,0.0,0.0,0.0,0.0,0.0,0.0,0.0,0.0,0.0,0.0,0.0,0.0,0.0,0.0,0.0,0.0,0.0,0.0,0.0,0.0,0.0,0.0,0.0,0.0,0.0,0.0,0.0,0.0,0.0,0.0,0.0,0.0,0.0,0.0,0.0,0.0,0.0,0.0,0.0,0.0,0.0,0.0,0.0,0.0,0.0,0.0,0.0,0.0,0.0,0.0,0.0,0.0,0.0,0.0,0.0,0.0,0.0,0.0,0.0,0.0,0.0,0.0,0.0,0.0,0.0,0.0,0.0,0.0,0.0,0.0,0.0,0.0,0.0,0.0,0.0,0.0,0.0,0.0,0.0,0.0,0.0,0.0,0.0,0.0,0.0,0.0,0.0,0.0,0.0,0.0,0.0,0.0,0.0,0.0,0.0,0.0,0.0,0.0,0.0,0.0,0.0,0.0,0.0,0.0,0.0,0.0,0.0,0.0,0.0,0.0,0.0,0.0,0.0,0.0,0.0,0.0,0.0,0.0,0.0,0.0,0.0,0.0,0.0,0.0,0.0,0.0,0.0,0.0,0.0,0.0,0.0,0.0,0.0,0.0,0.0,0.0,0.0,0.0,0.0,0.0,0.0,0.0,0.0,0.0,0.0,0.0,0.0,0.0,0.0,0.0,0.0,0.0,0.0,0.0,0.0,0.0,0.0,0.0,0.0,0.0,0.0,0.0,0.0,0.0,0.0,0.0,0.0,0.0,0.0,0.0,0.0,0.0,0.0,0.0,0.0,0.0,0.0,0.0,0.0,0.0,0.0,0.0,0.0,0.0,0.0,0.0,0.0,0.0,0.0,0.0,0.0,0.0,0.0,0.0,0.0,0.0,0.0,0.0,0.0,0.0,0.0,0.0,0.0,0.0,0.0,0.0,0.0,0.0,0.0,0.0,0.0,0.0,0.0,0.0,0.0,0.0,0.0,0.0,0.0,0.0,0.0,0.0,0.0,0.0,0.0,0.0,0.0,0.0,0.0,0.0,0.0,0.0,0.0,0.0,0.0,0.0,0.0,0.0,0.0,0.0,0.0,0.0,0.0,0.0,0.0,0.0,0.0,0.0,0.0,0.0,0.0,0.0,0.0,0.0,0.0,0.0,0.0,0.0,0.0,0.0,0.0,0.0,0.0,0.0,0.0,0.0,0.0,0.0,0.0,0.0,0.0,0.0,0.0,0.0,0.0,0.0,0.0,0.0,0.0,0.0,0.0,0.0,0.0,0.0,0.0,0.0,0.0,0.0,0.0,0.0,0.0,0.0,0.0,0.0,0.0,0.0,0.0,0.0,0.0,0.0,0.0,0.0,0.0,0.0,0.0,0.0,0.0,0.0,0.0,0.0,0.0,0.0,0.0,0.0,0.0,0.0,0.0,0.0,0.0,0.0,0.0,0.0,0.0,0.0,0.0,0.0,0.0,0.0,0.0,0.0,0.0,0.0,0.0,0.0,0.0,0.0,0.0,0.0,0.0,0.0,0.0,0.0,0.0,0.0,0.0,0.0,0.0,0.0,0.0,0.0,0.0,0.0,0.0,0.0,0.0,0.0,0.0,0.0,0.0,0.0,0.0,0.0,0.0,0.0,0.0,0.0,0.0,0.0,0.0,0.0,0.0,0.0,0.0,0.0,0.0,0.0,0.0,0.0,0.0,0.0,0.0,0.0,0.0,0.0,0.0,0.0,0.0,0.0,0.0,0.0,0.0,0.0,0.0,0.0,0.0,0.0,0.0,0.0,0.0,0.0,0.0,0.0,0.0,0.0,0.0,0.0,0.0,0.0,0.0,0.0,0.0,0.0,0.0,0.0,0.0,0.0,0.0,0.0,0.0,0.0,0.0,0.0,0.0,0.0,0.0,0.0,0.0,0.0,0.0,0.0,0.0,0.0,0.0,0.0,0.0,0.0,0.0,0.0,0.0,0.0,0.0,0.0,0.0,0.0,0.0,0.0,0.0,0.0,0.0,0.0,0.0,0.0,0.0,0.0,0.0,0.0,0.0,0.0,0.0,0.0,0.0,0.0,0.0,0.0,0.0,0.0,0.0,0.0,0.0,0.0,0.0,0.0,0.0,0.0,0.0,0.0,0.0,0.0,0.0,0.0,0.0,0.0,0.0,0.0,0.0,0.0,0.0,0.0,0.0,0.0,0.0,0.0,0.0,0.0,0.0,0.0,0.0,0.0,0.0,0.0,0.0,0.0,0.0,0.0,0.0,0.0,0.0,0.0,0.0,0.0,0.0,0.0,0.0,0.0,0.0,0.0,0.0,0.0,0.0,0.0,0.0,0.0,0.0,0.0,0.0,0.0,0.0,0.0,0.0,0.0,0.0,0.0,0.0,0.0,0.0,0.0,0.0,0.0,0.0,0.0,0.0,0.0,0.0,0.0,0.0,0.0,0.0,0.0,0.0,0.0,0.0,0.0,0.0,0.0,0.0,0.0,0.0,0.0,0.0,0.0,0.0,0.0,0.0,0.0,0.0,0.0,0.0,0.0,0.0,0.0,0.0,0.0,0.0,0.0,0.0,0.0,0.0,0.0,0.0,0.0,0.0,0.0,0.0,0.0,0.0,0.0,0.0,0.0,0.0,0.0,0.0,0.0,0.0,0.0,0.0,0.0,0.0,0.0,0.0,0.0,0.0,0.0,0.0,0.0,0.0,0.0,0.0,0.0,0.0,0.0,0.0,0.0,0.0,0.0,0.0,0.0,0.0,0.0,0.0,0.0,0.0,0.0,0.0,0.0,0.0,0.0,0.0,0.0,0.0,0.0,0.0,0.0,0.0,0.0,0.0,0.0,0.0,0.0,0.0,0.0,0.0,0.0,0.0,0.0,0.0,0.0,0.0,0.0,0.0,0.0,0.0,0.0,0.0,0.0,0.0,0.0,0.0,0.0,0.0,0.0,0.0,0.0,0.0,0.0,0.0,0.0,0.0,0.0,0.0,0.0,0.0,0.0,0.0,0.0,0.0,0.0,0.0,0.0,0.0,0.0,0.0,0.0,0.0,0.0,0.0,0.0,0.0,0.0,0.0,0.0,0.0,0.0,0.0,0.0,0.0,0.0,0.0,0.0,0.0,0.0,0.0,0.0,0.0,0.0,0.0,0.0,0.0,0.0,0.0,0.0,0.0,0.0,0.0,0.0,0.0,0.0,0.0,0.0,0.0,0.0,0.0,0.0,0.0,0.0,0.0,0.0,0.0,0.0,0.0,0.0,0.0,0.0,0.0,0.0,0.0,0.0,0.0,0.0,0.0,0.0,0.0,0.0,0.0,0.0,0.0,0.0,0.0,0.0,-0.4188,0.0,0.0,0.0,0.0,0.0,0.0,0.0,0.0,0.0,0.0,0.0,0.0,0.0,0.0,0.0,0.0,0.0,0.0,0.0,0.0,0.0,0.0,0.0,0.0,0.0,0.0,0.0,0.0,0.0,0.0,0.0,0.0,0.0,0.0,0.0,0.0,0.0,0.0,0.0,0.0,0.0,0.0,0.0,0.0,0.0,0.0,0.0,0.0,0.0,0.0,0.0,0.0,0.0,0.0,0.0,0.0,0.0,0.0,0.0,0.0,0.0,0.0,0.0,0.0,0.0,0.0,0.0,0.0,0.0,0.0,0.0,0.0,0.0,0.0,0.0,0.0,0.0,0.0,0.0,0.0,0.0,0.0,0.0,0.0,0.0,0.0,0.0,0.0,0.0,0.0,0.0,0.0,0.0,0.0,0.0,0.0,0.0,0.0,0.0,0.0,0.0,0.0,0.0,0.0,0.0,0.0,0.0,0.0,0.0,0.0,-0.421,-0.3918,-0.4928,-0.5061,-0.4161,0.0,0.0,0.0,0.0,0.0,0.0,0.0,0.0,0.0,0.0,0.0,0.0,0.0,0.0,0.0,0.0,0.0,0.0,0.0,0.0,0.0,0.0,0.0,0.0,0.0,0.0,0.0,0.0,0.0,0.0,0.0,0.0,0.0,0.0,0.0,0.0,0.0,0.0,0.0,0.0,0.0,0.0,0.0,0.0,0.0,0.0,0.0,0.0,0.0,0.0,0.0,0.0,0.0,0.0,0.0,0.0,0.0,0.0,0.0,0.0,0.0,0.0,0.0,0.0,0.0,0.0,0.0,0.0,0.0,0.0,0.0,0.0,0.0,0.0,0.0,0.0,0.0,0.0,0.0,0.0,0.0,0.0,0.0,0.0,0.0,0.0,0.0,0.0,0.0,0.0,0.0,0.0,0.0,0.0,0.0,0.0,0.0,0.0,0.0,0.0,0.0,0.0,0.0,0.0,0.0,0.0,0.0,0.0,0.0,0.0,0.0,0.0,-0.5145,-0.528,-0.4618,0.0,0.0,0.0,0.0,0.0,0.0,0.0,0.0,0.0,0.0,0.0,0.0,0.0,0.0,0.0,0.0,0.0,0.0,0.0,0.0,0.0,0.0,0.0,0.0,0.0,0.0,0.0,0.0,0.0,0.0,0.0,0.0,0.0,0.0,0.0,0.0,0.0,0.0,0.0,0.0,0.0,0.0,0.0,0.0,0.0,0.0,0.0,0.0,0.0,0.0,0.0,0.0,0.0,0.0,0.0,0.0,0.0,0.0,0.0,0.0,0.0,0.0,0.0,0.0,0.0,0.0,0.0,0.0,0.0,0.0,0.0,0.0,0.0,0.0,0.0,0.0,0.0,0.0,0.0,0.0,0.0,0.0,0.0,0.0,0.0,0.0,0.0,0.0,0.0,0.0,0.0,0.0,0.0,0.0,0.0,0.0,0.0,0.0,0.0,0.0,0.0,0.0,0.0,0.0,0.0,0.0,0.0,0.0,0.0,0.0,-0.4614,-0.5604,-0.5773,0.0,-0.596,0.0,0.0,0.0,0.0,0.0,0.0,0.0,0.0,0.0,0.0,0.0,0.0,0.0,0.0,0.0,0.0,0.0,0.0,0.0,0.0,0.0,0.0,0.0,0.0,0.0,0.0,0.0,0.0,0.0,0.0,0.0,0.0,0.0,0.0,0.0,0.0,0.0,0.0,0.0,0.0,0.0,0.0,0.0,0.0,0.0,0.0,0.0,0.0,0.0,0.0,0.0,0.0,0.0,0.0,0.0,0.0,0.0,0.0,0.0,0.0,0.0,0.0,0.0,0.0,0.0,0.0,0.0,0.0,0.0,0.0,0.0,0.0,0.0,0.0,0.0,0.0,0.0,0.0,0.0,0.0,0.0,0.0,0.0,0.0,0.0,0.0,0.0,0.0,0.0,0.0,0.0,0.0,0.0,0.0,0.0,0.0,0.0,0.0,0.0,0.0,0.0,0.0,0.0,0.0,0.0,0.0,0.0,0.0,0.0,0.0,-0.4796,-0.5637,-0.5848,-0.5705,0.0,0.0,0.0,0.0,0.0,0.0,0.0,0.0,0.0,0.0,0.0,0.0,0.0,0.0,0.0,0.0,0.0,0.0,0.0,0.0,0.0,0.0,0.0,0.0,0.0,0.0,0.0,0.0,0.0,0.0,0.0,0.0,0.0,0.0,0.0,0.0,0.0,0.0,0.0,0.0,0.0,0.0,0.0,0.0,0.0,0.0,0.0,0.0,0.0,0.0,0.0,0.0,0.0,0.0,0.0,0.0,0.0,0.0,0.0,0.0,0.0,0.0,0.0,0.0,0.0,0.0,0.0,0.0,0.0,0.0,0.0,0.0,0.0,0.0,0.0,0.0,0.0,0.0,0.0,0.0,0.0,0.0,0.0,0.0,0.0,0.0,0.0,0.0,0.0,0.0,0.0,0.0,0.0,0.0,0.0,0.0,0.0,0.0,0.0,0.0,0.0,0.0,0.0,0.0,0.0,0.0,0.0,0.0,0.0,0.0,-0.4905,-0.534,-0.6089,-0.5847,-0.5452,-0.5007,0.0,0.0,0.0,0.0,0.0,0.0,0.0,0.0,0.0,0.0,0.0,0.0,0.0,0.0,0.0,0.0,0.0,0.0,0.0,0.0,0.0,0.0,0.0,0.0,0.0,0.0,0.0,0.0,0.0,0.0,0.0,0.0,0.0,0.0,0.0,0.0,0.0,0.0,0.0,0.0,0.0,0.0,0.0,0.0,0.0,0.0,0.0,0.0,0.0,0.0,0.0,0.0,0.0,0.0,0.0,0.0,0.0,0.0,0.0,0.0,0.0,0.0,0.0,0.0,0.0,0.0,0.0,0.0,0.0,0.0,0.0,0.0,0.0,0.0,0.0,0.0,0.0,0.0,0.0,0.0,0.0,0.0,0.0,0.0,0.0,0.0,0.0,0.0,0.0,0.0,0.0,0.0,0.0,0.0,0.0,0.0,0.0,0.0,0.0,0.0,0.0,0.0,0.0,0.0,0.0,0.0,0.0,0.0,-0.6982,-0.6193,-0.6304,-0.7398,-0.5811,-0.5287,0.0,0.0,0.0,0.0,0.0,0.0,0.0,0.0,0.0,0.0,0.0,0.0,0.0,0.0,0.0,0.0,0.0,0.0,0.0,0.0,0.0,0.0,0.0,0.0,0.0,0.0,0.0,0.0,0.0,0.0,0.0,0.0,0.0,0.0,0.0,0.0,0.0,0.0,0.0,0.0,0.0,0.0,0.0,0.0,0.0,0.0,0.0,0.0,0.0,0.0,0.0,0.0,0.0,0.0,0.0,0.0,0.0,0.0,0.0,0.0,0.0,0.0,0.0,0.0,0.0,0.0,0.0,0.0,0.0,0.0,0.0,0.0,0.0,0.0,0.0,0.0,0.0,0.0,0.0,0.0,0.0,0.0,0.0,0.0,0.0,0.0,0.0,0.0,0.0,0.0,0.0,0.0,0.0,0.0,0.0,0.0,0.0,0.0,0.0,0.0,0.0,0.0,0.0,0.0,0.0,0.0,0.0,0.0,0.0,-0.5223,-0.59,-0.6495,-0.6965,-0.648,-0.6281,0.0,0.0,0.0,0.0,0.0,0.0,0.0,0.0,0.0,0.0,0.0,0.0,0.0,0.0,0.0,0.0,0.0,0.0,0.0,0.0,0.0,0.0,0.0,0.0,0.0,0.0,0.0,0.0,0.0,0.0,0.0,0.0,0.0,0.0,0.0,0.0,0.0,0.0,0.0,0.0,0.0,0.0,0.0,0.0,0.0,0.0,0.0,0.0,0.0,0.0,0.0,0.0,0.0,0.0,0.0,0.0,0.0,0.0,0.0,0.0,0.0,0.0,0.0,0.0,0.0,0.0,0.0,0.0,0.0,0.0,0.0,0.0,0.0,0.0,0.0,0.0,0.0,0.0,0.0,0.0,0.0,0.0,0.0,0.0,0.0,0.0,0.0,0.0,0.0,0.0,0.0,0.0,0.0,0.0,0.0,0.0,0.0,0.0,0.0,0.0,0.0,0.0,0.0,0.0,0.0,0.0,0.0,0.0,0.0,-0.5165,0.0,-0.7335,0.0,-0.6961,-0.6647,0.0,0.0,0.0,0.0,0.0,0.0,0.0,0.0,0.0,0.0,0.0,0.0,0.0,0.0,0.0,0.0,0.0,0.0,0.0,0.0,0.0,0.0,0.0,0.0,0.0,0.0,0.0,0.0,0.0,0.0,0.0,0.0,0.0,0.0,0.0,0.0,0.0,0.0,0.0,0.0,0.0,0.0,0.0,0.0,0.0,0.0,0.0,0.0,0.0,0.0,0.0,0.0,0.0,0.0,0.0,0.0,0.0,0.0,0.0,0.0,0.0,0.0,0.0,0.0,0.0,0.0,0.0,0.0,0.0,0.0,0.0,0.0,0.0,0.0,0.0,0.0,0.0,0.0,0.0,0.0,0.0,0.0,0.0,0.0,0.0,0.0,0.0,0.0,0.0,0.0,0.0,0.0,0.0,0.0,0.0,0.0,0.0,0.0,0.0,0.0,0.0,0.0,0.0,0.0,0.0,0.0,0.0,0.0,-0.5345,-0.7268,-0.8414,-0.8838,-0.859,-0.7198,-0.6276,0.0,0.0,0.0,0.0,0.0,0.0,0.0,0.0,0.0,0.0,0.0,0.0,0.0,0.0,0.0,0.0,0.0,0.0,0.0,0.0,0.0,0.0,0.0,0.0,0.0,0.0,0.0,0.0,0.0,0.0,0.0,0.0,0.0,0.0,0.0,0.0,0.0,0.0,0.0,0.0,0.0,0.0,0.0,0.0,0.0,0.0,0.0,0.0,0.0,0.0,0.0,0.0,0.0,0.0,0.0,0.0,0.0,0.0,0.0,0.0,0.0,0.0,0.0,0.0,0.0,0.0,0.0,0.0,0.0,0.0,0.0,0.0,0.0,0.0,0.0,0.0,0.0,0.0,0.0,0.0,0.0,0.0,0.0,0.0,0.0,0.0,0.0,0.0,0.0,0.0,0.0,0.0,0.0,0.0,0.0,0.0,0.0,0.0,0.0,0.0,0.0,0.0,0.0,0.0,0.0,0.0,0.0,0.0,0.0,-0.6353,-0.7948,-0.8903,-0.8964,-0.7781,-0.7173,0.0,0.0,0.0,0.0,0.0,0.0,0.0,0.0,0.0,0.0,0.0,0.0,0.0,0.0,0.0,0.0,0.0,0.0,0.0,0.0,0.0,0.0,0.0,0.0,0.0,0.0,0.0,0.0,0.0,0.0,0.0,0.0,0.0,0.0,0.0,0.0,0.0,0.0,0.0,0.0,0.0,0.0,0.0,0.0,0.0,0.0,0.0,0.0,0.0,0.0,0.0,0.0,0.0,0.0,0.0,0.0,0.0,0.0,0.0,0.0,0.0,0.0,0.0,0.0,0.0,0.0,0.0,0.0,0.0,0.0,0.0,0.0,0.0,0.0,0.0,0.0,0.0,0.0,0.0,0.0,0.0,0.0,0.0,0.0,0.0,0.0,0.0,0.0,0.0,0.0,0.0,0.0,0.0,0.0,0.0,0.0,0.0,0.0,0.0,0.0,0.0,0.0,0.0,0.0,0.0,0.0,0.0,0.0,0.0,-0.7295,-0.877,-0.9671,-0.9662,-0.8518,-0.792,-0.795,0.0,0.0,0.0,0.0,0.0,0.0,0.0,0.0,0.0,0.0,0.0,0.0,0.0,0.0,0.0,0.0,0.0,0.0,0.0,0.0,0.0,0.0,0.0,0.0,0.0,0.0,0.0,0.0,0.0,0.0,0.0,0.0,0.0,0.0,0.0,0.0,0.0,0.0,0.0,0.0,0.0,0.0,0.0,0.0,0.0,0.0,0.0,0.0,0.0,0.0,0.0,0.0,0.0,0.0,0.0,0.0,0.0,0.0,0.0,0.0,0.0,0.0,0.0,0.0,0.0,0.0,0.0,0.0,0.0,0.0,0.0,0.0,0.0,0.0,0.0,0.0,0.0,0.0,0.0,0.0,0.0,0.0,0.0,0.0,0.0,0.0,0.0,0.0,0.0,0.0,0.0,0.0,0.0,0.0,0.0,0.0,0.0,0.0,0.0,0.0,0.0,0.0,0.0,0.0,0.0,0.0,0.0,0.0,-0.9577,-1.0695,-1.1063,-1.0538,-0.9345,-0.8433,0.0,0.0,0.0,0.0,0.0,0.0,0.0,0.0,0.0,0.0,0.0,0.0,0.0,0.0,0.0,0.0,0.0,0.0,0.0,0.0,0.0,0.0,0.0,0.0,0.0,0.0,0.0,0.0,0.0,0.0,0.0,0.0,0.0,0.0,0.0,0.0,0.0,0.0,0.0,0.0,0.0,0.0,0.0,0.0,0.0,0.0,0.0,0.0,0.0,0.0,0.0,0.0,0.0,0.0,0.0,0.0,0.0,0.0,0.0,0.0,0.0,0.0,0.0,0.0,0.0,0.0,0.0,0.0,0.0,0.0,0.0,0.0,0.0,0.0,0.0,0.0,0.0,0.0,0.0,0.0,0.0,0.0,0.0,0.0,0.0,0.0,0.0,0.0,0.0,0.0,0.0,0.0,0.0,0.0,0.0,0.0,0.0,0.0,0.0,0.0,0.0,0.0,0.0,0.0,0.0,0.0,0.0,0.0,0.0,-1.0496,-1.1765,-1.1969,-1.0978,-0.9608,-0.873,0.0,0.0,0.0,0.0,0.0,0.0,0.0,0.0,0.0,0.0,0.0,0.0,0.0,0.0,0.0,0.0,0.0,0.0,0.0,0.0,0.0,0.0,0.0,0.0,0.0,0.0,0.0,0.0,0.0,0.0,0.0,0.0,0.0,0.0,0.0,0.0,0.0,0.0,0.0,0.0,0.0,0.0,0.0,0.0,0.0,0.0,0.0,0.0,0.0,0.0,0.0,0.0,0.0,0.0,0.0,0.0,0.0,0.0,0.0,0.0,0.0,0.0,0.0,0.0,0.0,0.0,0.0,0.0,0.0,0.0,0.0,0.0,0.0,0.0,0.0,0.0,0.0,0.0,0.0,0.0,0.0,0.0,0.0,0.0,0.0,0.0,0.0,0.0,0.0,0.0,0.0,0.0,0.0,0.0,0.0,0.0,0.0,0.0,0.0,0.0,0.0,0.0,0.0,0.0,0.0,0.0,0.0,0.0,-1.0497,-1.1379,-1.2433,-1.271,-1.2112,-1.103,-1.0038,0.0,0.0,0.0,0.0,0.0,0.0,0.0,0.0,0.0,0.0,0.0,0.0,0.0,0.0,0.0,0.0,0.0,0.0,0.0,0.0,0.0,0.0,0.0,0.0,0.0,0.0,0.0,0.0,0.0,0.0,0.0,0.0,0.0,0.0,0.0,0.0,0.0,0.0,0.0,0.0,0.0,0.0,0.0,0.0,0.0,0.0,0.0,0.0,0.0,0.0,0.0,0.0,0.0,0.0,0.0,0.0,0.0,0.0,0.0,0.0,0.0,0.0,0.0,0.0,0.0,0.0,0.0,0.0,0.0,0.0,0.0,0.0,0.0,0.0,0.0,0.0,0.0,0.0,0.0,0.0,0.0,0.0,0.0,0.0,0.0,0.0,0.0,0.0,0.0,0.0,0.0,0.0,0.0,0.0,0.0,0.0,0.0,0.0,0.0,0.0,0.0,0.0,0.0,0.0,0.0,0.0,0.0,0.0,-1.0937,-1.2247,-1.2946,-1.3368,-1.3561,-1.2874,-1.1627,0.0,0.0,0.0,0.0,0.0,0.0,0.0,0.0,0.0,0.0,0.0,0.0,0.0,0.0,0.0,0.0,0.0,0.0,0.0,0.0,0.0,0.0,0.0,0.0,0.0,0.0,0.0,0.0,0.0,0.0,0.0,0.0,0.0,0.0,0.0,0.0,0.0,0.0,0.0,0.0,0.0,0.0,0.0,0.0,0.0,0.0,0.0,0.0,0.0,0.0,0.0,0.0,0.0,0.0,0.0,0.0,0.0,0.0,0.0,0.0,0.0,0.0,0.0,0.0,0.0,0.0,0.0,0.0,0.0,0.0,0.0,0.0,0.0,0.0,0.0,0.0,0.0,0.0,0.0,0.0,0.0,0.0,0.0,0.0,0.0,0.0,0.0,0.0,0.0,0.0,0.0,0.0,0.0,0.0,0.0,0.0,0.0,0.0,0.0,0.0,0.0,0.0,0.0,0.0,0.0,0.0,0.0,0.0,-1.1707,-1.2894,-1.3817,-1.4294,-1.4263,-1.2866,-1.1576,0.0,0.0,0.0,0.0,0.0,0.0,0.0,0.0,0.0,0.0,0.0,0.0,0.0,0.0,0.0,0.0,0.0,0.0,0.0,0.0,0.0,0.0,0.0,0.0,0.0,0.0,0.0,0.0,0.0,0.0,0.0,0.0,0.0,0.0,0.0,0.0,0.0,0.0,0.0,0.0,0.0,0.0,0.0,0.0,0.0,0.0,0.0,0.0,-1.3384,0.0,0.0,0.0,0.0,0.0,0.0,0.0,0.0,0.0,0.0,0.0,0.0,0.0,0.0,0.0,0.0,0.0,0.0,0.0,0.0,0.0,0.0,0.0,0.0,0.0,0.0,0.0,0.0,0.0,0.0,0.0,0.0,0.0,0.0,0.0,0.0,0.0,0.0,0.0,0.0,0.0,0.0,0.0,0.0,0.0,0.0,0.0,0.0,0.0,0.0,0.0,0.0,0.0,0.0,0.0,0.0,0.0,0.0,0.0,-1.2477,-1.3591,-1.4362,-1.4835,-1.499,-1.4081,-1.2721,0.0,0.0,0.0,0.0,0.0,0.0,0.0,0.0,0.0,0.0,0.0,0.0,0.0,0.0,0.0,0.0,0.0,0.0,0.0,0.0,0.0,0.0,0.0,0.0,0.0,0.0,0.0,0.0,0.0,0.0,0.0,0.0,0.0,0.0,0.0,0.0,0.0,0.0,0.0,0.0,0.0,0.0,0.0,0.0,0.0,0.0,0.0,0.0,0.0,0.0,0.0,0.0,0.0,0.0,0.0,0.0,0.0,0.0,0.0,0.0,0.0,0.0,0.0,0.0,0.0,0.0,0.0,0.0,0.0,0.0,0.0,0.0,0.0,0.0,0.0,0.0,0.0,0.0,0.0,0.0,0.0,0.0,0.0,0.0,0.0,0.0,0.0,0.0,0.0,0.0,0.0,0.0,0.0,0.0,0.0,0.0,0.0,0.0,0.0,0.0,0.0,0.0,0.0,0.0,0.0,0.0,0.0,-1.1529,-1.2989,-1.4232,-1.4823,-1.5313,-1.5635,-1.5539,-1.4301,-1.1879,0.0,0.0,0.0,0.0,0.0,0.0,0.0,0.0,0.0,0.0,0.0,0.0,0.0,0.0,0.0,0.0,0.0,0.0,0.0,0.0,0.0,0.0,0.0,0.0,0.0,0.0,0.0,0.0,0.0,0.0,0.0,0.0,0.0,0.0,0.0,0.0,0.0,0.0,-1.2402,-1.3774,0.0,0.0,0.0,0.0,0.0,0.0,0.0,0.0,-1.5047,0.0,0.0,0.0,0.0,0.0,0.0,0.0,0.0,0.0,0.0,0.0,0.0,0.0,0.0,0.0,0.0,0.0,0.0,0.0,0.0,0.0,0.0,0.0,0.0,0.0,0.0,0.0,0.0,0.0,0.0,0.0,0.0,0.0,0.0,0.0,0.0,0.0,0.0,0.0,0.0,0.0,0.0,0.0,0.0,0.0,0.0,0.0,0.0,0.0,0.0,0.0,0.0,0.0,0.0,0.0,0.0,-1.0572,-1.1452,-1.2713,-1.4479,-1.5633,-1.6111,-1.5816,-1.6176,-1.5266,-1.298,0.0,0.0,0.0,0.0,0.0,0.0,0.0,0.0,0.0,0.0,0.0,0.0,0.0,0.0,0.0,0.0,0.0,0.0,0.0,0.0,0.0,0.0,0.0,0.0,0.0,0.0,0.0,0.0,0.0,0.0,0.0,0.0,0.0,0.0,0.0,0.0,0.0,0.0,0.0,-1.496,-1.5443,0.0,0.0,0.0,0.0,0.0,0.0,0.0,0.0,-1.5058,0.0,0.0,0.0,0.0,0.0,0.0,0.0,0.0,0.0,0.0,0.0,0.0,0.0,0.0,0.0,0.0,0.0,0.0,0.0,0.0,0.0,0.0,0.0,0.0,0.0,0.0,0.0,0.0,0.0,0.0,0.0,0.0,0.0,0.0,0.0,0.0,0.0,0.0,0.0,0.0,0.0,0.0,0.0,0.0,0.0,0.0,0.0,0.0,0.0,0.0,0.0,0.0,0.0,0.0,0.0,-1.1185,-1.2777,-1.4297,-1.568,-1.5999,-1.6221,-1.6402,-1.617,-1.5241,0.0,0.0,0.0,0.0,0.0,0.0,0.0,0.0,0.0,0.0,0.0,0.0,0.0,0.0,0.0,0.0,0.0,0.0,0.0,0.0,0.0,0.0,0.0,0.0,0.0,0.0,0.0,0.0,0.0,0.0,0.0,0.0,0.0,0.0,0.0,0.0,0.0,0.0,0.0,0.0,-1.602,-1.677,-1.721,0.0,0.0,0.0,0.0,0.0,0.0,-1.6887,-1.6719,0.0,0.0,0.0,0.0,0.0,0.0,0.0,0.0,0.0,0.0,0.0,0.0,0.0,0.0,0.0,0.0,0.0,0.0,0.0,0.0,0.0,0.0,0.0,0.0,0.0,0.0,0.0,0.0,0.0,0.0,0.0,0.0,0.0,0.0,0.0,0.0,0.0,0.0,0.0,0.0,0.0,0.0,0.0,0.0,0.0,0.0,0.0,0.0,0.0,0.0,0.0,0.0,0.0,0.0,0.0,-1.1726,-1.4122,-1.5893,-1.6822,-1.6596,-1.6654,-1.6987,-1.6225,-1.5232,0.0,0.0,0.0,0.0,0.0,0.0,0.0,0.0,0.0,0.0,0.0,0.0,0.0,0.0,0.0,0.0,0.0,0.0,0.0,0.0,0.0,0.0,0.0,0.0,0.0,0.0,0.0,0.0,0.0,0.0,0.0,0.0,0.0,0.0,0.0,0.0,0.0,0.0,0.0,0.0,0.0,-1.8178,-1.8275,-1.8268,0.0,0.0,0.0,0.0,-1.7631,-1.8294,0.0,0.0,0.0,0.0,0.0,0.0,0.0,0.0,0.0,0.0,0.0,0.0,0.0,0.0,0.0,0.0,0.0,0.0,0.0,0.0,0.0,0.0,0.0,0.0,0.0,0.0,0.0,0.0,0.0,0.0,0.0,0.0,0.0,0.0,0.0,0.0,0.0,0.0,0.0,0.0,0.0,0.0,0.0,0.0,0.0,0.0,0.0,0.0,0.0,0.0,0.0,0.0,0.0,0.0,0.0,0.0,-1.2235,-1.4244,-1.5941,-1.7222,-1.8159,-1.8113,-1.7036,-1.693,-1.6077,0.0,0.0,0.0,0.0,0.0,0.0,0.0,0.0,0.0,0.0,0.0,0.0,0.0,0.0,0.0,0.0,0.0,0.0,0.0,0.0,0.0,0.0,0.0,0.0,0.0,0.0,0.0,0.0,0.0,0.0,0.0,0.0,0.0,0.0,0.0,0.0,0.0,0.0,0.0,0.0,0.0,-1.9289,-1.9258,-1.8917,-1.8951,0.0,0.0,-1.9084,-2.0315,-2.0385,0.0,0.0,0.0,0.0,0.0,0.0,0.0,0.0,0.0,0.0,0.0,0.0,0.0,0.0,0.0,0.0,0.0,0.0,0.0,0.0,0.0,0.0,0.0,0.0,0.0,0.0,0.0,0.0,0.0,0.0,0.0,0.0,0.0,0.0,0.0,0.0,0.0,0.0,0.0,0.0,0.0,0.0,0.0,0.0,0.0,0.0,0.0,0.0,0.0,0.0,0.0,0.0,0.0,0.0,0.0,-1.1768,-1.2496,-1.5296,-1.7175,-1.7928,-1.8352,-1.8282,-1.7713,-1.6678,-1.5384,0.0,0.0,0.0,0.0,0.0,0.0,0.0,0.0,0.0,0.0,0.0,0.0,0.0,0.0,0.0,0.0,0.0,0.0,0.0,0.0,0.0,0.0,0.0,0.0,0.0,0.0,0.0,0.0,0.0,0.0,0.0,0.0,0.0,0.0,0.0,0.0,0.0,0.0,0.0,0.0,0.0,0.0,-2.0202,-2.0263,0.0,0.0,0.0,-2.0504,-2.0489,0.0,0.0,0.0,0.0,0.0,0.0,0.0,0.0,0.0,0.0,0.0,0.0,0.0,0.0,0.0,0.0,0.0,0.0,0.0,0.0,0.0,0.0,0.0,0.0,0.0,0.0,0.0,0.0,0.0,0.0,0.0,0.0,0.0,0.0,0.0,0.0,0.0,0.0,0.0,0.0,0.0,0.0,0.0,0.0,0.0,0.0,0.0,0.0,0.0,0.0,0.0,0.0,0.0,0.0,0.0,0.0,0.0,-1.2914,-1.6341,-1.8313,-1.8647,-1.8659,-1.8528,-1.8298,-1.6691,0.0,0.0,0.0,0.0,0.0,0.0,0.0,0.0,0.0,0.0,0.0,0.0,0.0,0.0,0.0,0.0,0.0,0.0,0.0,0.0,0.0,0.0,0.0,0.0,0.0,0.0,0.0,-1.1048,0.0,0.0,0.0,0.0,0.0,0.0,0.0,0.0,0.0,0.0,0.0,0.0,0.0,0.0,-2.0844,-2.1122,-2.1395,-2.1683,0.0,0.0,-2.1733,-2.1115,-2.1357,-2.1508,0.0,0.0,0.0,0.0,0.0,0.0,0.0,0.0,0.0,0.0,0.0,0.0,0.0,0.0,0.0,0.0,0.0,0.0,0.0,0.0,0.0,0.0,0.0,0.0,0.0,0.0,0.0,0.0,0.0,0.0,0.0,0.0,0.0,0.0,0.0,0.0,0.0,0.0,0.0,0.0,0.0,0.0,0.0,0.0,0.0,0.0,0.0,0.0,0.0,0.0,0.0,0.0,0.0,0.0,-1.3303,-1.3914,-1.7111,-1.8898,-1.9068,-1.9592,-1.9445,-1.8584,-1.7622,-1.6051,0.0,0.0,0.0,0.0,0.0,0.0,0.0,0.0,0.0,0.0,0.0,0.0,0.0,0.0,0.0,0.0,0.0,0.0,0.0,0.0,0.0,0.0,0.0,0.0,0.0,0.0,0.0,0.0,0.0,0.0,0.0,0.0,0.0,0.0,0.0,0.0,0.0,0.0,0.0,0.0,0.0,-2.1166,-2.1995,-2.1876,-2.2052,0.0,-2.2517,-2.2349,-2.3382,-2.3512,-2.2842,-2.0801,0.0,0.0,0.0,0.0,0.0,0.0,0.0,0.0,0.0,0.0,0.0,0.0,0.0,0.0,0.0,0.0,0.0,0.0,0.0,0.0,0.0,0.0,0.0,0.0,0.0,0.0,0.0,0.0,-0.7107,0.0,0.0,0.0,0.0,0.0,0.0,0.0,0.0,0.0,0.0,0.0,0.0,0.0,0.0,0.0,0.0,0.0,0.0,0.0,0.0,0.0,0.0,0.0,0.0,-1.3421,-1.3999,-1.7303,-1.9042,-1.9127,-1.9755,-1.9608,-1.8618,-1.7854,-1.6368,0.0,0.0,0.0,0.0,0.0,0.0,0.0,0.0,0.0,0.0,0.0,0.0,0.0,0.0,0.0,0.0,0.0,0.0,0.0,0.0,0.0,0.0,0.0,0.0,0.0,0.0,0.0,0.0,-1.2807,-1.3605,-1.4135,0.0,0.0,0.0,0.0,0.0,0.0,0.0,0.0,0.0,0.0,-2.1898,-2.2424,-2.2606,0.0,0.0,-2.3213,-2.3225,-2.378,-2.3537,-2.29,-2.1821,-2.1455,0.0,0.0,0.0,0.0,0.0,0.0,0.0,0.0,0.0,0.0,0.0,0.0,0.0,0.0,0.0,0.0,0.0,0.0,0.0,0.0,0.0,0.0,0.0,0.0,0.0,0.0,0.0,-0.7423,0.0,0.0,0.0,0.0,0.0,0.0,0.0,0.0,0.0,0.0,0.0,0.0,0.0,0.0,0.0,0.0,0.0,0.0,0.0,0.0,0.0,0.0,0.0,0.0,-1.3696,-1.4336,-1.7539,-1.9258,-1.943,-1.9992,-1.9896,-1.911,-1.8429,-1.7151,0.0,0.0,0.0,0.0,0.0,0.0,0.0,0.0,0.0,0.0,0.0,0.0,0.0,0.0,0.0,0.0,0.0,0.0,0.0,0.0,0.0,0.0,0.0,0.0,0.0,0.0,0.0,0.0,-1.3633,-1.4584,-1.5134,0.0,0.0,0.0,0.0,0.0,0.0,0.0,0.0,0.0,0.0,-2.2262,-2.2737,-2.3116,-2.336,-2.3494,-2.3598,-2.375,-2.3831,-2.3482,-2.3067,-2.257,0.0,0.0,0.0,0.0,0.0,0.0,0.0,0.0,0.0,0.0,0.0,0.0,0.0,0.0,0.0,0.0,0.0,0.0,0.0,0.0,0.0,0.0,0.0,0.0,0.0,0.0,0.0,-0.7802,0.0,0.0,-0.8187,0.0,0.0,0.0,0.0,0.0,0.0,0.0,0.0,0.0,0.0,0.0,0.0,0.0,0.0,0.0,0.0,0.0,0.0,0.0,0.0,0.0,0.0,-1.4219,-1.5082,-1.7932,-1.9672,-2.0127,-2.0411,-2.0374,-2.0154,-1.9581,-1.8623,-1.7204,0.0,0.0,0.0,0.0,0.0,0.0,0.0,0.0,0.0,0.0,0.0,0.0,0.0,0.0,0.0,0.0,0.0,0.0,0.0,0.0,0.0,0.0,0.0,0.0,0.0,0.0,-1.3069,-1.3712,-1.4486,0.0,0.0,0.0,0.0,0.0,0.0,0.0,0.0,0.0,-2.074,-2.1412,-2.2094,-2.2891,-2.3236,-2.343,-2.3494,-2.3611,-2.37,-2.3721,-2.3753,-2.3526,0.0,0.0,0.0,0.0,0.0,0.0,0.0,0.0,0.0,0.0,0.0,0.0,0.0,0.0,0.0,0.0,0.0,0.0,0.0,0.0,0.0,0.0,0.0,0.0,0.0,0.0,0.0,-0.8701,-0.8731,0.0,0.0,0.0,0.0,0.0,0.0,0.0,0.0,0.0,0.0,0.0,-1.3235,-1.3704,0.0,0.0,0.0,0.0,0.0,0.0,0.0,0.0,0.0,0.0,0.0,0.0,-1.5435,-1.5931,-1.8662,-2.0246,-2.0541,-2.074,-2.0718,-2.0462,-2.0124,-1.9071,-1.729,0.0,0.0,0.0,0.0,0.0,0.0,0.0,0.0,0.0,0.0,0.0,0.0,0.0,0.0,0.0,0.0,0.0,0.0,0.0,0.0,0.0,0.0,0.0,0.0,0.0,-1.5304,0.0,0.0,0.0,0.0,0.0,0.0,0.0,0.0,0.0,0.0,-2.0142,-2.0908,-2.2258,-2.2513,-2.2805,-2.3387,-2.3594,-2.3656,0.0,0.0,0.0,0.0,0.0,0.0,0.0,0.0,0.0,0.0,0.0,0.0,0.0,0.0,-2.4373,-2.2038,-2.1241,-2.1225,-2.2135,0.0,0.0,0.0,0.0,0.0,0.0,0.0,0.0,0.0,0.0,0.0,0.0,0.0,0.0,-1.0521,-1.0519,-1.0338,0.0,0.0,0.0,0.0,0.0,0.0,0.0,0.0,-1.4502,-1.5263,-1.5123,-1.5548,-1.5712,-1.5646,-1.5403,-1.4566,0.0,0.0,0.0,0.0,0.0,0.0,0.0,0.0,-1.6211,-1.656,-1.935,-2.0868,-2.0994,-2.1075,-2.1137,-2.112,-2.0868,-1.9893,-1.8263,-1.7394,-1.6201,0.0,0.0,0.0,0.0,0.0,0.0,0.0,0.0,0.0,0.0,0.0,0.0,0.0,0.0,0.0,0.0,0.0,0.0,0.0,0.0,0.0,0.0,0.0,-1.6128,0.0,0.0,0.0,0.0,0.0,0.0,0.0,0.0,0.0,-2.0938,-2.131,-2.2024,-2.3124,-2.3236,-2.3335,-2.3589,0.0,0.0,0.0,0.0,0.0,0.0,0.0,-2.4125,-2.4272,-2.4572,-2.5104,-2.5987,-2.6742,-2.7266,-2.7388,0.0,0.0,-2.4245,-2.3858,-2.4017,-2.4467,-2.4992,-2.5536,-2.6073,-2.6516,-2.6516,0.0,0.0,0.0,0.0,-1.1947,0.0,0.0,0.0,-1.3088,-1.2995,0.0,-1.2411,0.0,0.0,0.0,0.0,-1.2831,-1.4439,0.0,0.0,-1.7797,-1.8484,-1.7217,-1.7705,-1.7928,-1.7805,-1.7072,-1.6705,-1.6585,-1.5412,-1.4315,0.0,0.0,0.0,0.0,0.0,-1.6733,-1.7124,-1.9921,-2.1489,-2.1623,-2.1506,-2.1684,-2.2179,-2.1825,-2.1181,-2.0192,-1.8989,-1.8068,-1.7548,-1.5796,0.0,0.0,0.0,0.0,0.0,0.0,0.0,0.0,0.0,0.0,0.0,0.0,0.0,0.0,0.0,0.0,0.0,0.0,0.0,0.0,-1.6138,0.0,0.0,0.0,0.0,0.0,0.0,0.0,0.0,0.0,-2.2646,-2.1541,-2.1902,-2.2531,-2.3302,0.0,0.0,0.0,0.0,-2.3395,-2.3318,-2.3389,-2.3513,-2.3537,-2.4311,-2.496,-2.5045,0.0,0.0,-2.7082,-2.7292,-2.7447,-2.7475,-2.7733,-2.7714,-2.7494,-2.6958,-2.6734,-2.7066,-2.7142,-2.7275,-2.738,-2.7894,-2.8126,-1.6772,0.0,0.0,0.0,0.0,-1.361,-1.4011,-1.4728,-1.421,-1.4033,-1.4057,-1.3826,0.0,0.0,0.0,0.0,0.0,0.0,-1.5889,-1.7153,-1.8411,-1.9176,-1.9479,-1.976,-1.9649,-1.9154,-1.8912,-1.8809,-1.8794,-1.8475,-1.7137,-1.4929,0.0,0.0,0.0,0.0,-1.8408,-1.9474,-2.1044,-2.2034,-2.2512,-2.217,-2.2175,-2.2625,-2.2574,-2.2393,-2.2086,-2.1887,-2.0982,-1.9291,-1.8748,0.0,0.0,0.0,0.0,0.0,0.0,0.0,0.0,0.0,0.0,0.0,0.0,0.0,0.0,0.0,0.0,0.0,0.0,0.0,-1.6677,-1.7588,-1.8148,0.0,0.0,0.0,0.0,0.0,0.0,0.0,0.0,0.0,-2.3871,-2.3491,-2.3298,0.0,0.0,-2.3678,-2.3589,-2.4105,-2.4509,-2.4441,-2.4931,0.0,-2.5448,-2.5553,-2.5668,-2.5749,-2.6851,-2.7771,-2.7904,-2.8606,-2.9188,-2.9285,-2.9408,-2.9505,-2.9449,-2.8445,-2.7689,-2.7761,-2.8071,-2.8429,-2.8681,-2.9286,-2.9567,-1.9538,-1.7237,-1.6593,-1.6369,-1.645,-1.6346,-1.6734,-1.7441,-1.6965,-1.6794,-1.6804,-1.6586,-1.6121,-1.5452,-1.5294,0.0,0.0,0.0,-1.791,-1.9455,-1.9783,-2.0318,-2.0935,-2.1057,-2.0887,-2.0483,-2.0505,-2.0542,-2.0527,-2.0324,-1.9337,-1.7632,0.0,-1.648,-1.7071,-1.8693,-1.9869,-2.0683,-2.1958,-2.2754,-2.3038,-2.2979,-2.3098,-2.3375,-2.3314,-2.3366,-2.349,-2.3349,-2.2758,-2.1548,-2.0863,-1.9539,0.0,0.0,0.0,0.0,0.0,0.0,0.0,0.0,0.0,0.0,0.0,-1.5104,-1.4226,0.0,0.0,0.0,-1.7107,-1.7502,-1.7634,-1.8481,0.0,0.0,0.0,0.0,0.0,0.0,0.0,-2.3221,-2.4039,-2.4842,-2.5512,-2.516,-2.4905,-2.499,-2.4947,-2.4844,-2.4759,0.0,-2.5439,-2.5352,-2.5762,-2.6134,-2.625,-2.6428,-2.6712,-2.7273,-2.8052,-2.8688,-2.8858,-2.9451,-2.9905,-3.0003,-3.0098,-3.0199,-3.0312,-2.9502,-2.8895,-2.9014,-2.9284,-2.9573,-2.9785,-3.0163,-3.0317,-2.1628,-2.1624,-2.0225,-1.9606,-1.9588,-1.9482,-1.9904,-2.0606,-2.0484,-2.0457,-2.0387,-1.9949,-1.9288,-1.8509,-1.7897,0.0,-1.9864,-1.9998,-2.0571,-2.1634,-2.1634,-2.1689,-2.1794,-2.1809,-2.1779,-2.1749,-2.1798,-2.1822,-2.1777,-2.1189,-2.0873,-2.079,-1.9946,-1.9141,-1.854,-2.0172,-2.1067,-2.1003,-2.2623,-2.342,-2.3348,-2.3867,-2.4219,-2.4369,-2.4147,-2.4175,-2.4466,-2.4016,-2.3797,-2.3933,-2.2394,-2.1193,-2.041,0.0,0.0,0.0,0.0,0.0,0.0,0.0,0.0,0.0,0.0,0.0,0.0,0.0,0.0,0.0,-1.7924,0.0,-1.8971,-1.9185,0.0,0.0,0.0,-2.2258,-2.3376,-2.43,-2.5157,-2.6027,0.0,0.0,-2.6604,-2.68,-2.6991,-2.7177,-2.6915,-2.6665,-2.6521,-2.6366,-2.6258,-2.617,-2.6267,-2.6387,-2.6613,-2.7149,-2.7903,-2.8839,-2.9372,-2.9475,-2.9626,-2.977,-2.9907,-2.9924,-3.0019,-3.0109,-3.0171,-3.0184,-3.0352,-3.0452,-3.0521,-3.055,-3.054,-3.0578,-3.054,-2.2861,-2.2861,-2.2497,-2.1877,-2.1138,-2.0874,-2.0862,-2.1025,-2.0868,-2.0754,-2.0796,-2.0741,-2.0712,-2.0673,-2.0592,-2.0853,-2.1371,-2.1292,-2.1824,-2.2738,-2.2682,-2.2722,-2.2913,-2.2888,-2.2589,-2.2117,-2.1994,-2.194,-2.1955,-2.1881,-2.1546,-2.091,-2.1174,-2.0655,-1.9309,-2.0006,-2.0803,-2.165,-2.2194,-2.2931,-2.3879,-2.4369,-2.4735,-2.4895,-2.501,-2.5212,-2.5526,-2.5455,-2.5228,-2.4816,-2.3868,-2.2762,-2.1429,-1.9577,0.0,0.0,0.0,0.0,0.0,0.0,0.0,0.0,0.0,-1.7032,-1.5935,0.0,-2.0118,0.0,-1.9459,-2.0371,-2.104,-2.193,0.0,0.0,-2.3744,-2.4926,-2.5243,-2.624,-2.6722,-2.637,-2.7077,-2.7651,-2.7771,-2.7886,-2.824,-2.8914,-2.7678,-2.6643,-2.6521,-2.6944,-2.7255,-2.7268,-2.7765,-2.8226,-2.8195,-2.8304,-2.8608,-2.9153,-2.9338,-2.9457,-2.9718,-2.9841,-2.9907,-2.9924,-3.0022,-3.0098,-3.0128,-3.0207,-3.0299,-3.0371,-3.0419,-3.0472,-3.0569,-3.0617,-3.0617,-2.3837,-2.3911,-2.4358,-2.3773,-2.2596,-2.2352,-2.2201,-2.2119,-2.212,-2.2105,-2.2129,-2.2235,-2.2435,-2.2615,-2.2671,-2.2752,-2.2844,-2.2819,-2.3112,-2.3682,-2.3611,-2.357,-2.3626,-2.3585,-2.3346,-2.293,-2.297,-2.297,-2.297,-2.3075,-2.2891,-2.2539,-2.2931,-2.237,-2.0886,-2.0863,-2.1212,-2.1847,-2.2521,-2.3498,-2.4728,-2.5036,-2.5064,-2.4777,-2.4928,-2.4915,-2.47,-2.4827,-2.4577,-2.4007,-2.3603,-2.2878,-2.1707,-2.0439,-1.9548,0.0,0.0,0.0,0.0,0.0,0.0,0.0,0.0,0.0,0.0,0.0,-2.1104,-2.0697,-2.1504,-2.2313,-2.2929,-2.3595,-2.4001,-2.4037,-2.5569,-2.6685,-2.6867,-2.7791,-2.823,-2.7851,-2.8287,-2.8705,-2.8839,-2.8914,-2.9101,-2.9626,-2.8688,-2.7934,-2.7892,-2.8135,-2.8323,-2.8382,-2.8682,-2.8975,-2.9003,-2.9012,-2.9064,-2.9291,-2.9454,-2.9589,-2.9737,-2.9841,-2.9907,-2.9924,-2.9972,-3.0053,-3.0049,-3.0138,-3.0207,-3.0241,-3.0285,-3.0367,-3.051,-3.0588,-3.0608,-2.4521,-2.4761,-2.5575,-2.5123,-2.3909,-2.3806,-2.3509,-2.3079,-2.326,-2.3378,-2.3546,-2.3794,-2.3967,-2.4162,-2.4094,-2.4094,-2.4162,-2.4162,-2.4245,-2.4343,-2.4359,-2.4276,-2.4067,-2.412,-2.4078,-2.3882,-2.4109,-2.4223,-2.425,-2.4317,-2.4354,-2.4374,-2.448,-2.3834,-2.2571,-2.2141,-2.1963,-2.194,-2.3219,-2.4382,-2.5405,-2.5415,-2.4984,-2.4216,-2.4366,-2.4094,-2.3307,-2.343,-2.3264,-2.2725,-2.2702,-2.2501,-2.196,-2.1101,-2.0697,0.0,-2.0146,0.0,0.0,0.0,0.0,0.0,0.0,0.0,0.0,-2.0422,-2.1528,-2.3454,-2.3835,-2.4213,-2.4879,-2.4933,-2.5118,-2.556,-2.694,-2.7945,-2.827,-2.8942,-2.9448,-2.9511,-2.9512,-2.9569,-2.9645,-2.9776,-2.987,-2.9889,-2.9926,-2.9755,-2.9642,-2.9368,-2.9144,-2.9302,-2.9152,-2.9067,-2.9178,-2.9286,-2.9349,-2.9409,-2.9587,-2.9777,-2.972,-2.9938,-3.004,-2.9945,-3.0203,-3.0333,-3.0181,-3.0224,-3.0285,-3.0386,-3.0308,-3.0248,-3.0436,-3.0527,-3.0567,-2.4665,-2.528,-2.5381,-2.526,-2.5038,-2.5148,-2.3911,-2.175,-2.1863,-2.2372,-2.3178,-2.3886,-2.4276,-2.44,-2.4482,-2.4508,-2.4508,-2.4508,-2.4549,-2.4701,-2.4686,-2.4605,-2.4523,-2.4492,-2.4385,-2.4219,-2.4276,-2.4317,-2.4472,-2.4523,-2.4269,-2.374,-2.3865,-2.3465,-2.2666,0.0,0.0,0.0,-2.3671,-2.4303,-2.4526,-2.3983,-2.3578,-2.3414,-2.3606,0.0,-2.3531,-2.3549,-2.3552,-2.3538,-2.303,0.0,0.0,0.0,0.0,0.0,0.0,0.0,0.0,0.0,0.0,0.0,-2.1603,-2.0871,-2.0547,-2.1935,-2.3861,-2.6152,-2.6007,-2.6091,-2.7086,-2.7266,-2.7374,-2.7493,-2.8426,-2.9084,-2.9163,-2.9314,-2.9448,-2.9569,-2.9588,-2.9626,-2.9795,-3.0338,-3.0771,-3.0677,-3.1222,-3.1354,-3.0696,-2.9878,-2.9339,-2.9302,-2.9218,-2.92,-2.9326,-2.9307,-2.931,-2.9451,-2.9567,-2.9701,-2.9869,-3.0394,-3.054,-3.0137,-3.1023,-3.1684,-3.1116,-3.1016,-3.1064,-3.1083,-3.0579,-3.0152,-3.0304,-3.039,-3.0433,-2.5732,-2.6141,-2.6501,-2.6198,0.0,-2.5734,-2.4579,-2.2582,-2.3453,-2.4204,-2.4868,-2.5392,-2.5675,-2.5743,-2.5023,-2.471,-2.4664,-2.3943,-2.403,-2.4791,-2.4806,-2.5086,-2.5644,-2.5701,-2.5644,-2.5501,-2.5544,-2.5659,-2.577,-2.5425,-2.5161,-2.4863,-2.4764,-2.4527,-2.4248,-2.4538,-2.4411,-2.379,-2.4269,-2.4749,-2.5216,-2.4928,-2.4517,-2.4018,-2.4072,0.0,0.0,0.0,0.0,0.0,0.0,0.0,0.0,0.0,0.0,-2.419,-2.3932,-2.3936,-2.4382,-2.469,-2.4898,-2.4931,-2.4461,-2.3602,-2.2246,-2.3822,-2.5602,-2.7253,-2.7464,-2.7757,-2.836,-2.8522,-2.8587,-2.869,-2.9124,-2.9388,-2.9444,-2.976,-3.0044,-3.0222,-3.0541,-3.0806,-3.0884,-3.128,-3.1544,-3.1466,-3.1824,-3.2032,-3.1504,-3.063,-2.9845,-2.9416,-2.9304,-2.9326,-2.9386,-2.9368,-2.9514,-2.9915,-3.0238,-3.0524,-3.0846,-3.1242,-3.1431,-3.1202,-3.1806,-3.2183,-3.1915,-3.1853,-3.1811,-3.1452,-3.0712,-3.0361,-3.0782,-3.1262,-3.1411,-2.6874,-2.7089,-2.7728,-2.7295,-2.6138,-2.6296,-2.5672,-2.4607,-2.5617,0.0,0.0,-2.6808,-2.6954,-2.7004,-2.5768,-2.5192,-2.5114,-2.3951,-2.4045,-2.5192,-2.5192,-2.5723,-2.6673,-2.6879,-2.6863,-2.6686,-2.6848,-2.7036,-2.7148,-2.6576,-2.6333,-2.6414,-2.6075,-2.5938,-2.6007,-2.6241,-2.5942,-2.5155,-2.4937,-2.5203,-2.5936,-2.5891,-2.5423,-2.4622,-2.4605,-2.4326,-2.3669,-2.3786,-2.3556,-2.2982,-2.3621,-2.3962,-2.3706,-2.4343,-2.491,-2.5409,-2.5553,-2.5985,-2.6831,-2.7201,-2.736,-2.7234,-2.6927,-2.6106,-2.4511,-2.5739,-2.6958,-2.7885,-2.8516,-2.8952,-2.9134,-2.9156,-2.9218,-2.9386,-2.9537,-2.963,-2.9667,-3.0315,-3.0863,-3.1082,-3.157,-3.2042,-3.2108,-3.2278,-3.2411,-3.243,-3.2657,-3.2523,-3.2276,-3.1514,-3.0655,-3.0116,-3.0039,-2.9909,-2.9853,-2.9927,-3.0113,-3.0727,-3.1073,-3.1472,-3.1885,-3.2152,-3.2274,-3.2166,-3.2487,-3.2732,-3.2692,-3.2688,-3.2553,-3.2064,-3.1212,-3.0758,-3.1599,-3.247,-3.2761,-2.721,-2.7819,-2.7974,-2.7894,-2.7689,-2.7713,-2.7735,-2.7585,-2.6184,-2.5571,-2.5718,-2.6557,-2.6969,-2.7099,-2.6893,-2.6756,-2.674,-2.6551,-2.6567,-2.6772,-2.6772,-2.6749,-2.6733,-2.6965,-2.695,-2.6729,-2.695,-2.7248,-2.7467,-2.751,-2.7299,-2.7033,-2.7036,-2.6836,-2.6364,-2.6417,-2.6418,-2.6335,-2.5443,-2.5023,-2.5157,-2.4393,-2.3914,-2.3765,-2.3916,-2.3918,-2.3836,-2.3902,-2.3869,-2.3835,-2.4094,-2.465,-2.5473,-2.5743,-2.6375,-2.7448,-2.7575,-2.7713,-2.7958,-2.8121,-2.8066,-2.7743,-2.7739,-2.7598,-2.7204,-2.7482,-2.8025,-2.8791,-2.9016,-2.9218,-2.9344,-2.9326,-2.9365,-2.9442,-3.002,-3.0429,-3.0429,-3.1136,-3.1722,-3.1909,-3.2004,-3.2219,-3.2524,-3.3089,-3.354,-3.3703,-3.4011,-3.4317,-3.3431,-3.2461,-3.1853,-3.1705,-3.156,-3.147,-3.1281,-3.1429,-3.1411,-3.16,-3.1693,-3.1849,-3.2142,-3.2649,-3.2884,-3.241,-3.341,-3.3979,-3.3639,-3.3524,-3.3467,-3.3297,-3.271,-3.2348,-3.2533,-3.3551,-3.4075,-2.7862,-2.8186,-2.8217,-2.8201,-2.8217,-2.8301,-2.8414,-2.8542,-2.7705,-2.7287,-2.7389,-2.7852,-2.8144,-2.8097,-2.7356,-2.6981,-2.6934,-2.6152,-2.623,-2.695,-2.6965,-2.7446,-2.8199,-2.8351,-2.8423,-2.8478,-2.8597,-2.8828,-2.9074,-2.8756,-2.854,-2.8445,-2.8231,-2.8028,-2.7801,-2.7397,-2.723,-2.7248,-2.6334,-2.5863,-2.5829,-2.5445,-2.5212,-2.5212,-2.5279,-2.538,-2.5514,-2.5547,-2.5563,-2.5659,-2.5788,-2.6179,-2.6844,-2.6981,-2.7344,-2.8045,-2.8164,-2.8246,-2.83,-2.8881,-2.941,-2.9821,-2.9886,-2.9867,-2.9826,-2.857,-2.8143,-2.8971,-2.9044,-2.9112,-2.9283,-2.9283,-2.9326,-2.9386,-3.0113,-3.0597,-3.0764,-3.1793,-3.2608,-3.2833,-3.3252,-3.3617,-3.3733,-3.413,-3.445,-3.4558,-3.4952,-3.4952,-3.4504,-3.3923,-3.3141,-3.2268,-3.1979,-3.189,-3.1842,-3.176,-3.1927,-3.2358,-3.2428,-3.2637,-3.3041,-3.3566,-3.3598,-3.3505,-3.4193,-3.4521,-3.4301,-3.4321,-3.4339,-3.4319,-3.4149,-3.3864,-3.4067,-3.4594,-3.4704,-2.8411,-2.8444,-2.8411,-2.8396,-2.8444,-2.8591,-2.8748,-2.8826,-2.892,-2.8967,-2.8967,-2.9075,-2.9091,-2.8965,-2.7895,-2.7422,-2.7205,-2.6219,-2.6329,-2.7343,-2.745,-2.8211,-2.939,-2.956,-2.9754,-2.9973,-3.006,-3.0248,-3.0377,-2.9906,-2.9663,-2.966,-2.9143,-2.8901,-2.8975,-2.8383,-2.8043,-2.8009,-2.745,-2.7044,-2.6806,-2.6842,-2.6842,-2.6893,-2.6859,-2.6894,-2.6926,-2.6926,-2.7007,-2.7184,-2.7448,-2.7705,-2.8024,-2.8288,-2.8521,-2.8764,-2.8892,-2.8945,-2.9035,-2.9769,-3.06,-3.147,-3.1549,-3.1597,-3.1478,-2.9812,-2.8856,-2.9444,-2.9627,-2.9655,-2.985,-2.9854,-2.982,-2.9962,-3.0671,-3.1229,-3.1347,-3.2549,-3.3537,-3.3761,-3.437,-3.4792,-3.4908,-3.4964,-3.4963,-3.507,-3.516,-3.5174,-3.516,-3.4982,-3.4148,-3.3135,-3.254,-3.2549,-3.2362,-3.2354,-3.2609,-3.3194,-3.3245,-3.3467,-3.3937,-3.416,-3.4245,-3.4274,-3.4442,-3.4626,-3.4788,-3.4831,-3.4832,-3.4832,-3.4756,-3.4906,-3.503,-3.51,-3.519,-2.8444,-2.8589,-2.846,-2.8493,-2.8636,-2.8732,-2.8826,-2.892,-2.9029,-2.9075,-2.9075,-2.9075,-2.9091,-2.9075,-2.8902,-2.8823,-2.8807,-2.8744,-2.8697,-2.8853,-2.9143,-2.9342,-2.956,-2.9798,-2.9973,-3.006,-3.0231,-3.0459,-3.0651,-3.069,-3.0516,-3.0015,-2.9347,-2.9025,-2.9028,-2.896,-2.8909,-2.8856,-2.8805,-2.8433,-2.7739,-2.7688,-2.7688,-2.7688,-2.7688,-2.7453,-2.7111,-2.6975,-2.7137,-2.7487,-2.8281,-2.8798,-2.903,-2.9816,-3.0384,-3.051,-3.0538,-3.063,-3.0767,-3.106,-3.1304,-3.1409,-3.1737,-3.1853,-3.1853,-3.1547,-3.1312,-3.1381,-3.1357,-3.1275,-3.1537,-3.1463,-3.1392,-3.1396,-3.2139,-3.2813,-3.2944,-3.3732,-3.4383,-3.4634,-3.4713,-3.4868,-3.5001,-3.5057,-3.511,-3.516,-3.5193,-3.5176,-3.5127,-3.4982,-3.4754,-3.4341,-3.417,-3.3957,-3.3849,-3.3956,-3.3844,-3.3974,-3.4048,-3.4104,-3.4179,-3.4197,-3.4245,-3.434,-3.4495,-3.4623,-3.4749,-3.4849,-3.4908,-3.4926,-3.5001,-3.5129,-3.5234,-3.5264,-3.5223,-2.846,-2.8539,-2.8925,-2.9224,-2.9387,-2.9046,-2.8934,-2.9013,-2.9091,-2.9091,-2.9091,-2.9091,-2.9091,-2.9091,-2.9091,-2.9091,-2.9137,-2.9259,-2.9335,-2.9335,-2.9589,-2.9722,-2.993,-3.006,-3.0189,-3.03,-3.0485,-3.0651,-3.0831,-3.0992,-3.096,-3.0751,-3.0412,-3.0294,-3.026,-2.9854,-2.9651,-2.9634,-2.9211,-2.9115,-2.9291,-2.89,-2.8625,-2.8537,-2.868,-2.8699,-2.8476,-2.8543,-2.8756,-2.9074,-2.9528,-2.9852,-3.0105,-3.0543,-3.079,-3.0902,-3.092,-3.1147,-3.1673,-3.1883,-3.2224,-3.2779,-3.2994,-3.3141,-3.3213,-3.3189,-3.3189,-3.3078,-3.2289,-3.1691,-3.1819,-3.1801,-3.1846,-3.1983,-3.2598,-3.3146,-3.3299,-3.4073,-3.4645,-3.4788,-3.4849,-3.487,-3.4964,-3.5057,-3.5129,-3.5145,-3.516,-3.516,-3.5092,-3.4945,-3.4753,-3.4588,-3.439,-3.4293,-3.4221,-3.4173,-3.4173,-3.4173,-3.4173,-3.4148,-3.4197,-3.4216,-3.4221,-3.425,-3.4386,-3.4517,-3.4645,-3.4811,-3.4927,-3.4944,-3.5162,-3.5337,-3.5312,-3.5339,-3.5383,-2.8965,-2.911,-2.9676,-3.0058,-3.0156,-2.9486,-2.9294,-2.9342,-2.9185,-2.9121,-2.9213,-2.9213,-2.9259,-2.9289,-2.9167,-2.9137,-2.9213,-2.9441,-2.9515,-2.9605,-2.981,-2.9984,-3.0205,-3.0333,-3.0401,-3.0568,-3.0733,-3.0855,-3.0992,-3.1112,-3.119,-3.119,-3.119,-3.119,-3.114,-3.0632,-3.0395,-3.0362,-2.9875,-2.9949,-3.0469,-3.024,-2.9863,-2.9532,-2.9712,-2.9748,-2.9592,-2.9726,-2.9972,-3.0348,-3.0587,-3.088,-3.116,-3.1433,-3.1598,-3.1655,-3.1655,-3.1908,-3.2506,-3.2629,-3.3049,-3.3715,-3.3939,-3.4074,-3.4173,-3.4216,-3.4221,-3.4115,-3.3143,-3.2507,-3.2474,-3.2497,-3.2564,-3.2686,-3.3209,-3.3593,-3.3817,-3.4406,-3.4768,-3.481,-3.4888,-3.4908,-3.4927,-3.4983,-3.5038,-3.5039,-3.5092,-3.5073,-3.4983,-3.4831,-3.4651,-3.4505,-3.4367,-3.4269,-3.4197,-3.4173,-3.4148,-3.4173,-3.4173,-3.4148,-3.4197,-3.4197,-3.4216,-3.4245,-3.4335,-3.4473,-3.4645,-3.4791,-3.4963,-3.5049,-3.5242,-3.545,-3.5403,-3.5446,-3.5474,-3.0371,-3.053,-3.0673,-3.0738,-3.0707,-3.0196,-3.0002,-3.0016,-2.9404,-2.9259,-2.947,-2.947,-2.9589,-2.9722,-2.9335,-2.9259,-2.947,-2.9515,-2.9633,-2.981,-3.0087,-3.0189,-3.0231,-3.0526,-3.0692,-3.0692,-3.0855,-3.1015,-3.1134,-3.119,-3.119,-3.119,-3.123,-3.119,-3.1213,-3.1162,-3.114,-3.1116,-3.107,-3.1176,-3.1189,-3.1554,-3.1339,-3.0732,-3.0644,-3.0508,-3.0199,-3.0106,-3.034,-3.0787,-3.1534,-3.1971,-3.2187,-3.2832,-3.3194,-3.3194,-3.3212,-3.3248,-3.3314,-3.3393,-3.357,-3.3788,-3.3921,-3.4049,-3.4191,-3.4216,-3.4197,-3.4221,-3.4125,-3.4037,-3.4013,-3.3929,-3.4068,-3.4128,-3.4349,-3.4492,-3.4655,-3.4675,-3.481,-3.4888,-3.4889,-3.4889,-3.4908,-3.4908,-3.4908,-3.4907,-3.4907,-3.4887,-3.4788,-3.4645,-3.4517,-3.445,-3.4316,-3.4221,-3.4216,-3.4216,-3.4216,-3.4197,-3.4197,-3.4197,-3.4197,-3.4216,-3.4216,-3.424,-3.4311,-3.445,-3.4626,-3.4831,-3.5035,-3.5174,-3.5346,-3.546,-3.5446,-3.5474,-3.5507,-3.1259,-3.1754,-3.1444,-3.1357,-3.1399,-3.0787,-3.0337,-2.9923,-2.9675,-2.9624,-2.9677,-2.9677,-2.9705,-2.9793,-2.9633,-2.9589,-2.9722,-2.9924,-3.0038,-3.014,-3.0468,-3.0667,-3.0651,-3.079,-3.0831,-3.0855,-3.0935,-3.1072,-3.119,-3.119,-3.1286,-3.1363,-3.1402,-3.1462,-3.1559,-3.1576,-3.1576,-3.1596,-3.1596,-3.1691,-3.1858,-3.2073,-3.2109,-3.2102,-3.1999,-3.1825,-3.1727,-3.1824,-3.2014,-3.229,-3.2559,-3.2763,-3.2947,-3.3248,-3.3393,-3.3393,-3.3393,-3.3393,-3.3422,-3.352,-3.3643,-3.3788,-3.3921,-3.403,-3.4173,-3.4216,-3.4221,-3.4245,-3.4245,-3.4269,-3.4335,-3.4363,-3.445,-3.4517,-3.4539,-3.4626,-3.4791,-3.483,-3.4829,-3.4888,-3.4849,-3.483,-3.483,-3.483,-3.4849,-3.4829,-3.4848,-3.4809,-3.4768,-3.4626,-3.4561,-3.4517,-3.4427,-3.4316,-3.4269,-3.4221,-3.4216,-3.4216,-3.4197,-3.4197,-3.4216,-3.4197,-3.4221,-3.4245,-3.4293,-3.4454,-3.4668,-3.4964,-3.5157,-3.5339,-3.5489,-3.5489,-3.5493,-3.5507,-3.5507,-3.2241,-3.2739,-3.244,-3.2348,-3.2395,-3.1586,-3.0988,-3.0457,-2.9999,-2.9842,-2.9913,-2.9957,-2.9984,-3.007,-3.0027,-3.007,-3.0156,-3.0267,-3.0351,-3.0435,-3.0773,-3.0912,-3.0912,-3.0912,-3.0935,-3.0952,-3.1032,-3.1134,-3.1269,-3.1286,-3.1402,-3.1593,-3.1593,-3.1651,-3.18,-3.18,-3.18,-3.18,-3.1837,-3.1948,-3.2179,-3.2335,-3.2521,-3.2784,-3.2802,-3.2752,-3.2752,-3.2898,-3.3024,-3.3165,-3.3178,-3.3256,-3.3382,-3.3393,-3.3393,-3.3393,-3.3393,-3.3393,-3.3393,-3.3481,-3.3605,-3.378,-3.3868,-3.3998,-3.4173,-3.4221,-3.4227,-3.4269,-3.4237,-3.4237,-3.4293,-3.434,-3.4431,-3.4517,-3.4539,-3.4604,-3.4752,-3.4788,-3.4788,-3.4848,-3.4829,-3.4809,-3.4788,-3.4788,-3.4788,-3.4749,-3.4769,-3.479,-3.4749,-3.471,-3.4647,-3.4645,-3.4542,-3.4476,-3.4409,-3.4363,-3.4269,-3.4245,-3.4221,-3.4221,-3.4245,-3.4245,-3.4269,-3.4269,-3.4363,-3.452,-3.4752,-3.5054,-3.5273,-3.5446,-3.5493,-3.5479,-3.5507,-3.5507,-3.5603,-3.3351,-3.3491,-3.363,-3.3633,-3.3542,-3.2524,-3.2035,-3.1674,-3.0504,-3.0103,-3.032,-3.0222,-3.0359,-3.0551,-3.0485,-3.0626,-3.0833,-3.0609,-3.0559,-3.0692,-3.0871,-3.0952,-3.0952,-3.1076,-3.1133,-3.1116,-3.1168,-3.1308,-3.1479,-3.1479,-3.1631,-3.1763,-3.1783,-3.1837,-3.1837,-3.1873,-3.1837,-3.1856,-3.1948,-3.2002,-3.2039,-3.2386,-3.2621,-3.2844,-3.3006,-3.3086,-3.3068,-3.3086,-3.3178,-3.3364,-3.3364,-3.3393,-3.3393,-3.3393,-3.3393,-3.3393,-3.3393,-3.3393,-3.3393,-3.3422,-3.3567,-3.3908,-3.387,-3.3957,-3.4297,-3.4282,-3.4213,-3.4208,-3.4228,-3.4218,-3.4232,-3.4316,-3.4386,-3.4409,-3.4476,-3.4583,-3.4604,-3.4666,-3.4708,-3.4768,-3.4768,-3.4769,-3.4732,-3.473,-3.4728,-3.4708,-3.4751,-3.4791,-3.4749,-3.4751,-3.4771,-3.473,-3.471,-3.463,-3.4586,-3.4539,-3.4409,-3.4316,-3.4269,-3.4269,-3.4321,-3.4367,-3.4454,-3.4476,-3.4588,-3.4733,-3.4908,-3.5209,-3.532,-3.546,-3.5474,-3.5622,-3.5776,-3.5872,-3.5892,-3.4,-3.4101,-3.43,-3.4088,-3.3697,-3.3362,-3.2978,-3.2397,-3.1447,-3.108,-3.1087,-3.0632,-3.0526,-3.0651,-3.0651,-3.1016,-3.1608,-3.1533,-3.1323,-3.1036,-3.1066,-3.1162,-3.1246,-3.1675,-3.1894,-3.1833,-3.1545,-3.144,-3.1534,-3.1668,-3.18,-3.1965,-3.2001,-3.209,-3.2161,-3.2214,-3.2249,-3.2301,-3.2335,-3.2488,-3.2687,-3.2834,-3.2993,-3.3178,-3.3304,-3.3286,-3.3304,-3.3304,-3.3334,-3.3393,-3.3393,-3.3393,-3.3393,-3.3393,-3.3393,-3.3393,-3.3393,-3.3452,-3.3491,-3.3499,-3.3868,-3.444,-3.4191,-3.4297,-3.4878,-3.4586,-3.4293,-3.4269,-3.426,-3.426,-3.4293,-3.4269,-3.4293,-3.4404,-3.4431,-3.4495,-3.4583,-3.4604,-3.4645,-3.4666,-3.4666,-3.4647,-3.4647,-3.4666,-3.4666,-3.4645,-3.471,-3.4769,-3.4769,-3.4831,-3.4851,-3.485,-3.4831,-3.4812,-3.4752,-3.4691,-3.4628,-3.448,-3.4413,-3.439,-3.4458,-3.4524,-3.4607,-3.4732,-3.4832,-3.4963,-3.5155,-3.5285,-3.5393,-3.5551,-3.5641,-3.5892,-3.6219,-3.6392,-3.6488,-3.4349,-3.4448,-3.4611,-3.4463,-3.4055,-3.3919,-3.3521,-3.302,-3.2303,-3.2031,-3.1911,-3.1314,-3.105,-3.1174,-3.1191,-3.1566,-3.2208,-3.2502,-3.2483,-3.2173,-3.2002,-3.2002,-3.2093,-3.2598,-3.2836,-3.2723,-3.2325,-3.2063,-3.2121,-3.1975,-3.2018,-3.2196,-3.2196,-3.2284,-3.2406,-3.2422,-3.2457,-3.2507,-3.2623,-3.2787,-3.2948,-3.3073,-3.3196,-3.3364,-3.3393,-3.3393,-3.3393,-3.3393,-3.3393,-3.3393,-3.3393,-3.3393,-3.3393,-3.3393,-3.3393,-3.3393,-3.3393,-3.3422,-3.3509,-3.38,-3.4061,-3.4559,-3.4502,-3.4489,-3.4878,-3.4492,-3.4293,-3.4293,-3.4354,-3.4372,-3.4311,-3.4293,-3.4293,-3.4269,-3.434,-3.4427,-3.4539,-3.458,-3.4561,-3.4602,-3.4623,-3.4583,-3.4561,-3.458,-3.4539,-3.4539,-3.4687,-3.4791,-3.4811,-3.4927,-3.4964,-3.502,-3.5038,-3.4982,-3.4889,-3.4851,-3.485,-3.4711,-3.4586,-3.4588,-3.4591,-3.4672,-3.4733,-3.4963,-3.5124,-3.5168,-3.5345,-3.5369,-3.5457,-3.563,-3.6073,-3.6554,-3.7016,-3.7189,-3.7324,-3.4497,-3.4691,-3.4691,-3.4787,-3.4736,-3.4203,-3.3912,-3.3769,-3.2982,-3.2713,-3.2657,-3.1933,-3.1809,-3.2017,-3.1991,-3.2307,-3.2827,-3.3424,-3.3898,-3.3962,-3.3799,-3.3558,-3.3473,-3.3451,-3.3424,-3.3533,-3.308,-3.2876,-3.2782,-3.2473,-3.2249,-3.2388,-3.2388,-3.2458,-3.258,-3.2544,-3.256,-3.2751,-3.2778,-3.287,-3.3011,-3.3104,-3.3226,-3.3393,-3.3393,-3.3393,-3.3393,-3.3393,-3.3393,-3.3393,-3.3393,-3.3393,-3.3393,-3.3393,-3.3393,-3.352,-3.3484,-3.3567,-3.3706,-3.4229,-3.453,-3.4283,-3.4639,-3.5036,-3.4569,-3.4418,-3.4274,-3.4316,-3.4475,-3.4554,-3.4489,-3.4503,-3.4474,-3.4334,-3.4494,-3.454,-3.4544,-3.4604,-3.4622,-3.4577,-3.4561,-3.458,-3.4495,-3.4495,-3.4495,-3.4495,-3.4649,-3.4792,-3.4851,-3.4963,-3.5143,-3.516,-3.5143,-3.5108,-3.5019,-3.502,-3.5134,-3.5875,-3.5475,-3.5077,-3.4927,-3.4926,-3.4997,-3.5219,-3.5426,-3.5474,-3.5643,-3.583,-3.6177,-3.6678,-3.7141,-3.7533,-3.7828,-3.8059,-3.8315,-3.4643,-3.4691,-3.4787,-3.4835,-3.4883,-3.4667,-3.4695,-3.4559,-3.3378,-3.2988,-3.2847,-3.1832,-3.1861,-3.2394,-3.2582,-3.3254,-3.4232,-3.4685,-3.5167,-3.5663,-3.5631,-3.512,-3.4328,-3.3447,-3.33,-3.3659,-3.3291,-3.2723,-3.2492,-3.2843,-3.2827,-3.2473,-3.2493,-3.2808,-3.3263,-3.2823,-3.2962,-3.3466,-3.3152,-3.3046,-3.3201,-3.331,-3.3334,-3.3393,-3.3393,-3.3393,-3.3393,-3.3393,-3.3393,-3.3393,-3.3393,-3.3393,-3.3393,-3.3429,-3.3683,-3.4117,-3.4364,-3.4422,-3.4459,-3.4681,-3.4824,-3.4842,-3.4547,-3.4507,-3.5194,-3.4665,-3.4409,-3.44,-3.4517,-3.4839,-3.5184,-3.5224,-3.5349,-3.5766,-3.5388,-3.505,-3.5052,-3.5089,-3.4928,-3.4489,-3.4404,-3.4386,-3.4431,-3.4473,-3.4495,-3.4498,-3.4672,-3.487,-3.4908,-3.5053,-3.5242,-3.5209,-3.5193,-3.5176,-3.516,-3.5181,-3.5658,-3.6854,-3.6611,-3.5757,-3.5558,-3.5366,-3.5388,-3.5514,-3.5753,-3.5859,-3.6369,-3.6762,-3.7251,-3.7692,-3.8117,-3.8472,-3.8807,-3.9069,-3.9403,-3.4756,-3.4804,-3.4851,-3.4916,-3.4996,-3.4963,-3.5071,-3.499,-3.4101,-3.3869,-3.3878,-3.292,-3.2827,-3.3596,-3.3785,-3.4357,-3.5267,-3.5688,-3.611,-3.647,-3.6539,-3.6149,-3.5425,-3.4524,-3.4455,-3.4702,-3.3986,-3.348,-3.3157,-3.3196,-3.3019,-3.3054,-3.3035,-3.3299,-3.3686,-3.3454,-3.3255,-3.3544,-3.3512,-3.3579,-3.3346,-3.3695,-3.3665,-3.3502,-3.3393,-3.3393,-3.3411,-3.3719,-3.3773,-3.3502,-3.3393,-3.3393,-3.3429,-3.3826,-3.4189,-3.4637,-3.5071,-3.5261,-3.4965,-3.518,-3.522,-3.4895,-3.4452,-3.4666,-3.4872,-3.4586,-3.4386,-3.44,-3.5044,-3.5553,-3.5698,-3.5833,-3.63,-3.6795,-3.6279,-3.5633,-3.5403,-3.5064,-3.4779,-3.4442,-3.434,-3.434,-3.4386,-3.445,-3.4495,-3.4564,-3.4733,-3.4889,-3.4981,-3.5174,-3.54,-3.55,-3.5656,-3.5771,-3.5911,-3.5971,-3.6181,-3.7321,-3.7865,-3.6952,-3.64,-3.6073,-3.59,-3.5983,-3.6112,-3.6425,-3.7007,-3.7589,-3.8073,-3.8498,-3.8983,-3.9356,-3.9644,-3.9805,-4.0177,-3.4787,-3.4899,-3.4899,-3.5013,-3.5063,-3.5138,-3.5182,-3.5186,-3.4688,-3.4837,-3.5146,-3.4367,-3.426,-3.5221,-3.5007,-3.5382,-3.5754,-3.6342,-3.6706,-3.6891,-3.6891,-3.6684,-3.6353,-3.6006,-3.5919,-3.5943,-3.513,-3.4684,-3.432,-3.3528,-3.3438,-3.3844,-3.4018,-3.4107,-3.4389,-3.4296,-3.388,-3.3892,-3.4321,-3.4326,-3.4045,-3.4395,-3.4443,-3.4057,-3.3731,-3.3676,-3.3803,-3.4135,-3.4298,-3.3749,-3.3647,-3.3737,-3.3803,-3.4441,-3.492,-3.506,-3.5725,-3.5834,-3.5261,-3.5707,-3.5605,-3.4541,-3.4958,-3.5206,-3.4742,-3.4692,-3.4785,-3.4965,-3.6138,-3.6531,-3.6403,-3.657,-3.7155,-3.7572,-3.6969,-3.6104,-3.5614,-3.4958,-3.4479,-3.4381,-3.4363,-3.4386,-3.4409,-3.445,-3.4498,-3.4649,-3.4889,-3.5205,-3.5422,-3.5726,-3.5936,-3.6133,-3.6296,-3.6481,-3.6642,-3.6837,-3.7159,-3.7766,-3.855,-3.8272,-3.755,-3.7109,-3.6667,-3.6588,-3.6998,-3.7326,-3.7685,-3.8228,-3.8811,-3.9345,-3.982,-4.0117,-4.037,-4.0378,-4.0604,-3.4899,-3.4899,-3.4994,-3.5091,-3.511,-3.5232,-3.535,-3.5414,-3.4871,-3.4874,-3.4941,-3.453,-3.4797,-3.5461,-3.5667,-3.5994,-3.654,-3.686,-3.697,-3.697,-3.697,-3.7009,-3.6773,-3.6404,-3.605,-3.5983,-3.5872,-3.5526,-3.519,-3.5243,-3.5346,-3.5005,-3.5025,-3.5361,-3.5823,-3.5357,-3.5477,-3.5756,-3.5656,-3.5345,-3.5227,-3.5336,-3.5434,-3.5169,-3.4709,-3.4454,-3.4425,-3.4528,-3.4867,-3.5254,-3.5351,-3.5072,-3.4655,-3.526,-3.586,-3.6157,-3.6241,-3.6221,-3.5809,-3.5523,-3.5098,-3.437,-3.4784,-3.5354,-3.5459,-3.5448,-3.5808,-3.6298,-3.7125,-3.7549,-3.7497,-3.8106,-3.8359,-3.8217,-3.7216,-3.6325,-3.6239,-3.5692,-3.502,-3.4524,-3.4433,-3.4386,-3.4483,-3.4743,-3.4807,-3.4811,-3.5152,-3.5548,-3.5925,-3.6281,-3.6639,-3.6922,-3.7299,-3.7502,-3.745,-3.7709,-3.8131,-3.8512,-3.9196,-3.9534,-3.882,-3.8315,-3.7915,-3.7861,-3.8002,-3.8291,-3.8505,-3.9081,-3.9704,-4.0193,-4.0548,-4.0616,-4.0699,-4.0808,-4.0797,-3.5011,-3.4994,-3.5135,-3.5248,-3.5315,-3.5388,-3.5441,-3.5436,-3.5113,-3.5197,-3.5425,-3.5218,-3.55,-3.6204,-3.6334,-3.6658,-3.6943,-3.7126,-3.7164,-3.7164,-3.7182,-3.7241,-3.7339,-3.7001,-3.6734,-3.6549,-3.6252,-3.6025,-3.5918,-3.595,-3.584,-3.5982,-3.5998,-3.6175,-3.6638,-3.6296,-3.6128,-3.6226,-3.6385,-3.62,-3.5937,-3.6245,-3.6168,-3.6006,-3.5515,-3.5296,-3.5296,-3.5715,-3.5891,-3.6176,-3.6668,-3.6485,-3.5636,-3.6121,-3.6614,-3.6448,-3.6964,-3.6417,-3.5836,-3.5404,-3.4992,-3.4222,-3.4612,-3.507,-3.5578,-3.5963,-3.6423,-3.7038,-3.786,-3.8646,-3.8577,-3.8838,-3.9082,-3.8701,-3.747,-3.6665,-3.6604,-3.6114,-3.5514,-3.52,-3.5619,-3.5801,-3.5882,-3.5606,-3.5533,-3.5703,-3.5902,-3.629,-3.6614,-3.7003,-3.7564,-3.7943,-3.8363,-3.8537,-3.8382,-3.8587,-3.908,-3.9513,-4.0069,-4.0268,-3.9956,-3.9564,-3.9238,-3.9053,-3.8785,-3.9074,-3.9354,-3.9967,-4.0351,-4.0622,-4.0824,-4.0897,-4.0897,-4.0851,-4.0796,-3.5152,-3.5135,-3.5291,-3.545,-3.5518,-3.5525,-3.5549,-3.5565,-3.5454,-3.5707,-3.6177,-3.602,-3.6303,-3.6869,-3.6995,-3.7069,-3.7164,-3.7297,-3.7372,-3.7392,-3.7392,-3.7522,-3.7667,-3.7703,-3.7649,-3.7377,-3.7024,-3.6737,-3.6575,-3.6231,-3.66,-3.6836,-3.6942,-3.7063,-3.7043,-3.7006,-3.691,-3.6731,-3.7039,-3.7021,-3.663,-3.6994,-3.6934,-3.6383,-3.6279,-3.6225,-3.6346,-3.6723,-3.7009,-3.6644,-3.7857,-3.7662,-3.7046,-3.6893,-3.7191,-3.6255,-3.6905,-3.6417,-3.5541,-3.5158,-3.4835,-3.424,-3.4498,-3.4857,-3.5571,-3.6395,-3.6967,-3.7633,-3.845,-3.9408,-3.9331,-3.9305,-3.9272,-3.895,-3.778,-3.7131,-3.7019,-3.6615,-3.6352,-3.5937,-3.6607,-3.7209,-3.6969,-3.6673,-3.6612,-3.6616,-3.6804,-3.7073,-3.7411,-3.7851,-3.8452,-3.9005,-3.9467,-3.9627,-3.9472,-3.9393,-3.9876,-4.0089,-4.0699,-4.0703,-4.0701,-4.0451,-3.9994,-3.9587,-3.9466,-3.9743,-3.9972,-4.0337,-4.0682,-4.0954,-4.1023,-4.0994,-4.0946,-4.0854,-4.0812,-3.5412,-3.5274,-3.5594,-3.5661,-3.5501,-3.5537,-3.556,-3.565,-3.5899,-3.6147,-3.6333,-3.6663,-3.6823,-3.7091,-3.722,-3.7259,-3.7317,-3.7484,-3.7577,-3.7595,-3.7667,-3.7792,-3.7949,-3.8052,-3.807,-3.8138,-3.7935,-3.7881,-3.7832,-3.7881,-3.7645,-3.7917,-3.7902,-3.7902,-3.7899,-3.799,-3.7893,-3.7649,-3.7899,-3.7858,-3.784,-3.7872,-3.7763,-3.7101,-3.7107,-3.7186,-3.7198,-3.7326,-3.7631,-3.8339,-3.8536,-3.8456,-3.8029,-3.7774,-3.7421,-3.7024,-3.6343,-3.5784,-3.5273,-3.4723,-3.4511,-3.4573,-3.5011,-3.5533,-3.6126,-3.6784,-3.7351,-3.8369,-3.9052,-3.9689,-3.9483,-3.9452,-3.9376,-3.9037,-3.8546,-3.7903,-3.8075,-3.7961,-3.7475,-3.6781,-3.7622,-3.8442,-3.8118,-3.779,-3.7658,-3.768,-3.7841,-3.8178,-3.8588,-3.9044,-3.9567,-4.0092,-4.0607,-4.0636,-4.0597,-4.0513,-4.0622,-4.0513,-4.0787,-4.0818,-4.0849,-4.0935,-4.066,-4.0224,-4.0116,-4.0307,-4.0544,-4.0733,-4.0604,-4.0591,-4.0801,-4.1043,-4.0956,-4.0856,-4.0812,-3.4411,-3.4269,-3.4678,-3.4914,-3.5105,-3.5209,-3.5477,-3.5817,-3.6137,-3.632,-3.6509,-3.6825,-3.7076,-3.7185,-3.7259,-3.7354,-3.7503,-3.7667,-3.781,-3.7933,-3.7984,-3.8068,-3.8201,-3.8234,-3.83,-3.8401,-3.8483,-3.8483,-3.8368,-3.8318,-3.8354,-3.8336,-3.8322,-3.8322,-3.8336,-3.83,-3.8419,-3.8451,-3.8433,-3.8415,-3.8446,-3.8428,-3.8204,-3.812,-3.8053,-3.8132,-3.8143,-3.8214,-3.8416,-3.8807,-3.891,-3.8692,-3.8275,-3.7718,-3.7173,-3.6869,-3.6025,-3.5237,-3.4909,-3.4431,-3.4545,-3.5136,-3.5615,-3.6321,-3.6688,-3.6933,-3.7411,-3.8934,-3.9488,-3.9804,-3.9717,-3.967,-3.9623,-3.9472,-3.8935,-3.8609,-3.8643,-3.8785,-3.8345,-3.7808,-3.8744,-3.9334,-3.9272,-3.8988,-3.8739,-3.8742,-3.8886,-3.9219,-3.9654,-4.001,-4.0377,-4.0599,-4.0929,-4.0918,-4.091,-4.0897,-4.0906,-4.0878,-4.0849,-4.0898,-4.0917,-4.098,-4.0988,-4.0785,-4.0813,-4.075,-4.0797,-4.085,-4.0552,-4.0338,-4.0735,-4.1033,-4.0927,-4.0858,-4.0815,-3.3539,-3.3347,-3.3836,-3.4267,-3.4624,-3.4908,-3.5215,-3.5702,-3.6178,-3.6406,-3.6487,-3.6851,-3.7173,-3.7317,-3.7372,-3.7466,-3.7703,-3.7846,-3.8054,-3.8189,-3.8238,-3.835,-3.8446,-3.8496,-3.8515,-3.8528,-3.8627,-3.8596,-3.8465,-3.8433,-3.8415,-3.8415,-3.8415,-3.8415,-3.8446,-3.8415,-3.8528,-3.8578,-3.8546,-3.8478,-3.851,-3.8572,-3.8621,-3.875,-3.8822,-3.8826,-3.881,-3.8839,-3.8923,-3.9063,-3.9027,-3.8774,-3.8035,-3.7256,-3.6782,-3.6456,-3.5783,-3.5019,-3.4661,-3.468,-3.5053,-3.566,-3.6045,-3.6979,-3.7537,-3.7294,-3.7256,-3.9537,-4.0108,-3.9975,-3.9935,-3.9935,-3.9935,-3.9884,-3.9527,-3.9185,-3.9296,-3.9438,-3.9604,-3.9565,-4.0117,-4.0134,-3.998,-3.9981,-3.9683,-3.9704,-3.983,-3.9869,-4.0263,-4.0524,-4.0799,-4.0896,-4.1019,-4.1,-4.0974,-4.0935,-4.0937,-4.0921,-4.0913,-4.0943,-4.0952,-4.0976,-4.0996,-4.1023,-4.0964,-4.0894,-4.094,-4.0811,-4.0409,-4.0337,-4.0816,-4.0994,-4.0888,-4.0839,-4.0807,-3.399,-3.3768,-3.4237,-3.4419,-3.4425,-3.5002,-3.4967,-3.4797,-3.6165,-3.6388,-3.6168,-3.6847,-3.7287,-3.7394,-3.7521,-3.7594,-3.7721,-3.7949,-3.8138,-3.8271,-3.8451,-3.8596,-3.8676,-3.8658,-3.8627,-3.864,-3.8689,-3.8609,-3.8528,-3.851,-3.851,-3.846,-3.8446,-3.8415,-3.8465,-3.8478,-3.851,-3.8559,-3.8609,-3.8658,-3.8689,-3.8773,-3.8851,-3.8892,-3.8979,-3.9073,-3.9101,-3.912,-3.9175,-3.9287,-3.9175,-3.8763,-3.8097,-3.7343,-3.7079,-3.6578,-3.5739,-3.4648,-3.4883,-3.5199,-3.5728,-3.6274,-3.6755,-3.7315,-3.7927,-3.8499,-3.8785,-3.9929,-4.0196,-4.0157,-4.0138,-4.0119,-4.0139,-4.0195,-4.0095,-4.0082,-4.02,-3.9991,-4.0159,-4.0294,-4.0513,-4.0591,-4.0556,-4.0618,-4.0652,-4.0713,-4.0723,-4.0712,-4.0746,-4.0909,-4.1011,-4.1047,-4.1072,-4.1057,-4.1047,-4.0998,-4.1,-4.0981,-4.0979,-4.0976,-4.1003,-4.1018,-4.1052,-4.1078,-4.1032,-4.085,-4.0688,-4.0455,-4.0156,-4.0303,-4.068,-4.082,-4.0859,-4.0819,-4.0828,-3.3175,-3.2786,-3.3174,-3.3508,-3.383,-3.4616,-3.5072,-3.5409,-3.6361,-3.6825,-3.6724,-3.7051,-3.738,-3.7522,-3.7703,-3.7846,-3.7915,-3.8135,-3.8318,-3.8419,-3.8596,-3.8707,-3.8707,-3.8707,-3.8707,-3.8707,-3.8707,-3.8689,-3.8609,-3.8609,-3.8609,-3.8609,-3.8578,-3.8578,-3.8546,-3.8609,-3.8609,-3.864,-3.8732,-3.881,-3.8851,-3.8921,-3.8989,-3.9017,-3.9101,-3.9202,-3.9229,-3.9256,-3.9303,-3.9378,-3.9293,-3.892,-3.8394,-3.7934,-3.7717,-3.7227,-3.672,-3.6283,-3.6201,-3.6064,-3.6462,-3.7241,-3.7858,-3.8419,-3.9014,-3.9432,-3.9812,-4.0288,-4.0326,-4.0307,-4.0342,-4.0339,-4.0375,-4.0425,-4.0469,-4.0534,-4.0602,-4.0694,-4.0676,-4.0776,-4.0837,-4.0828,-4.0839,-4.0819,-4.0789,-4.081,-4.082,-4.082,-4.0835,-4.0921,-4.1011,-4.1094,-4.1097,-4.1101,-4.109,-4.1076,-4.1061,-4.1045,-4.1046,-4.1052,-4.1052,-4.1085,-4.1091,-4.1103,-4.1078,-4.0844,-4.0474,-4.0416,-4.0415,-4.047,-4.0524,-4.0703,-4.0859,-4.0868,-4.0858,-3.3062,-3.2862,-3.286,-3.3122,-3.3582,-3.4622,-3.5315,-3.5721,-3.6736,-3.7127,-3.7143,-3.7253,-3.747,-3.7613,-3.7793,-3.7916,-3.8052,-3.8285,-3.8465,-3.8596,-3.8676,-3.8707,-3.8707,-3.8707,-3.8707,-3.8738,-3.875,-3.8719,-3.8719,-3.8719,-3.8719,-3.8707,-3.8658,-3.8689,-3.8719,-3.875,-3.878,-3.8803,-3.8892,-3.895,-3.8979,-3.9055,-3.911,-3.9165,-3.9237,-3.9309,-3.9309,-3.9354,-3.941,-3.9436,-3.9406,-3.9039,-3.8478,-3.8354,-3.8231,-3.7847,-3.747,-3.7583,-3.7578,-3.7553,-3.7551,-3.8177,-3.8942,-3.9334,-3.989,-4.0272,-4.0346,-4.0396,-4.0411,-4.046,-4.0508,-4.0504,-4.0519,-4.0549,-4.0607,-4.0668,-4.0726,-4.075,-4.0796,-4.0837,-4.0858,-4.0878,-4.0888,-4.0878,-4.0878,-4.0898,-4.0888,-4.0888,-4.0932,-4.0953,-4.1019,-4.109,-4.1101,-4.1104,-4.1113,-4.1105,-4.1111,-4.11,-4.1103,-4.111,-4.1085,-4.1091,-4.1103,-4.1109,-4.1114,-4.0688,-4.0266,-4.05,-4.075,-4.0743,-4.0757,-4.0829,-4.0917,-4.0898,-4.0898,-3.4772,-3.5371,-3.4276,-3.3939,-3.4193,-3.5663,-3.5865,-3.5543,-3.6897,-3.7147,-3.6861,-3.7219,-3.7595,-3.7703,-3.7864,-3.7969,-3.7969,-3.8271,-3.8433,-3.8496,-3.8578,-3.8676,-3.8707,-3.8707,-3.8719,-3.878,-3.878,-3.8762,-3.8792,-3.8792,-3.8732,-3.8689,-3.8707,-3.875,-3.8792,-3.8881,-3.8921,-3.8989,-3.9073,-3.9073,-3.9129,-3.9192,-3.9298,-3.9343,-3.9483,-3.9577,-3.9552,-3.9527,-3.9527,-3.9596,-3.9539,-3.9306,-3.8833,-3.8804,-3.8738,-3.8669,-3.8309,-3.8594,-3.8973,-3.8722,-3.8607,-3.8911,-3.9369,-3.9888,-4.0177,-4.0326,-4.0396,-4.043,-4.0476,-4.0523,-4.0569,-4.0598,-4.0626,-4.0654,-4.0694,-4.0739,-4.0764,-4.0781,-4.0826,-4.0877,-4.0888,-4.0868,-4.0878,-4.0868,-4.0888,-4.0888,-4.0917,-4.0917,-4.0941,-4.0979,-4.1013,-4.1072,-4.1094,-4.1117,-4.1109,-4.1115,-4.1106,-4.1114,-4.1097,-4.111,-4.111,-4.1117,-4.1109,-4.1089,-4.1031,-4.0545,-4.0137,-4.0247,-4.0446,-4.0801,-4.098,-4.0945,-4.0927,-4.0898,-4.0898,-3.552,-3.5797,-3.5786,-3.5493,-3.5037,-3.6109,-3.6345,-3.6148,-3.7094,-3.756,-3.731,-3.7632,-3.7828,-3.7967,-3.8104,-3.8204,-3.8238,-3.8469,-3.8546,-3.8578,-3.8658,-3.8707,-3.8707,-3.8689,-3.8689,-3.875,-3.875,-3.875,-3.875,-3.8822,-3.8833,-3.8792,-3.875,-3.8851,-3.8921,-3.9007,-3.9073,-3.9129,-3.9165,-3.9219,-3.9264,-3.9388,-3.9483,-3.9508,-3.9594,-3.9661,-3.9642,-3.9708,-3.975,-3.975,-3.9754,-3.9539,-3.9378,-3.9423,-3.9507,-3.9566,-3.9223,-3.9547,-3.9814,-3.9451,-3.903,-3.9562,-3.9906,-4.0138,-4.0234,-4.0379,-4.0444,-4.0508,-4.0549,-4.0593,-4.0706,-4.0733,-4.0746,-4.0778,-4.0771,-4.0796,-4.08,-4.0792,-4.0815,-4.0856,-4.0846,-4.0815,-4.0826,-4.0837,-4.0878,-4.0898,-4.0907,-4.0917,-4.096,-4.0991,-4.102,-4.1045,-4.1072,-4.11,-4.1091,-4.1106,-4.1114,-4.1109,-4.1117,-4.1117,-4.1117,-4.1103,-4.1114,-4.1095,-4.1075,-4.0811,-4.0467,-4.0059,-4.0096,-4.0424,-4.0729,-4.0936,-4.0907,-4.0898,-4.0907,-3.6523,-3.6796,-3.728,-3.6906,-3.6101,-3.6787,-3.7057,-3.7004,-3.7488,-3.7828,-3.7933,-3.7933,-3.8002,-3.8153,-3.8285,-3.8382,-3.8433,-3.8596,-3.8658,-3.8707,-3.8707,-3.8707,-3.8719,-3.875,-3.8762,-3.878,-3.878,-3.881,-3.8851,-3.8939,-3.896,-3.896,-3.8892,-3.8979,-3.9092,-3.9202,-3.9229,-3.9283,-3.9317,-3.9401,-3.9446,-3.9545,-3.9656,-3.9679,-3.9735,-3.9758,-3.9781,-3.9826,-3.9845,-3.9867,-3.9911,-3.9954,-4.0017,-4.0098,-4.0196,-4.0253,-4.0272,-4.0329,-4.0082,-3.9795,-3.9489,-3.9946,-4.0081,-4.0234,-4.0342,-4.0425,-4.0564,-4.0602,-4.0642,-4.07,-4.0796,-4.0788,-4.0788,-4.0788,-4.0796,-4.0808,-4.0808,-4.08,-4.0812,-4.0804,-4.0812,-4.0812,-4.0815,-4.0818,-4.0839,-4.0869,-4.0907,-4.0917,-4.0935,-4.0968,-4.0991,-4.102,-4.1045,-4.107,-4.107,-4.1089,-4.1095,-4.1114,-4.1109,-4.1109,-4.1109,-4.1114,-4.1106,-4.1091,-4.1091,-4.1086,-4.085,-4.0487,-4.0178,-3.9991,-4.0421,-4.0917,-4.0907,-4.0907,-4.0888,-3.79,-3.8634,-3.8585,-3.7948,-3.7108,-3.7737,-3.8002,-3.7877,-3.8005,-3.8068,-3.8101,-3.8101,-3.8119,-3.8168,-3.8382,-3.8433,-3.8465,-3.8627,-3.8707,-3.8707,-3.8719,-3.875,-3.878,-3.8792,-3.8833,-3.895,-3.8968,-3.895,-3.9045,-3.9073,-3.9137,-3.9192,-3.9156,-3.9129,-3.921,-3.9399,-3.952,-3.9596,-3.9558,-3.9613,-3.9623,-3.967,-3.9758,-3.9823,-3.9889,-3.9892,-3.9911,-3.9954,-3.9973,-3.9954,-3.9996,-4.0057,-4.0117,-4.0157,-4.0253,-4.0291,-4.0291,-4.031,-4.0291,-4.0119,-4.012,-4.0196,-4.0271,-4.0341,-4.0386,-4.0526,-4.0668,-4.0694,-4.073,-4.0784,-4.0796,-4.0796,-4.0796,-4.0804,-4.08,-4.08,-4.08,-4.0808,-4.08,-4.08,-4.08,-4.08,-4.0804,-4.0807,-4.0839,-4.0859,-4.0878,-4.0907,-4.0917,-4.0906,-4.0924,-4.0968,-4.0991,-4.1006,-4.1013,-4.1064,-4.1089,-4.1095,-4.1114,-4.112,-4.1106,-4.1115,-4.1105,-4.1109,-4.11,-4.1086,-4.1039,-4.0928,-4.0626,-4.0388,-4.0585,-4.0897,-4.0888,-4.0888,-4.0897,-3.845,-3.8707,-3.8707,-3.8493,-3.8162,-3.8223,-3.8232,-3.8094,-3.8103,-3.8168,-3.8267,-3.8318,-3.8401,-3.8483,-3.8564,-3.8596,-3.8627,-3.8627,-3.8707,-3.8707,-3.8719,-3.8762,-3.8822,-3.8851,-3.8892,-3.8939,-3.8979,-3.9036,-3.9017,-3.9183,-3.9245,-3.9272,-3.9395,-3.9343,-3.9343,-3.9458,-3.9577,-3.9602,-3.9613,-3.9689,-3.9717,-3.9804,-3.9848,-3.9892,-3.9975,-4.0036,-4.0036,-4.0096,-4.0117,-4.0098,-4.0138,-4.0176,-4.0196,-4.0253,-4.0272,-4.0309,-4.0327,-4.0345,-4.0363,-4.0323,-4.0375,-4.0392,-4.0408,-4.0469,-4.0568,-4.0623,-4.0706,-4.0754,-4.0796,-4.0818,-4.0807,-4.0807,-4.0807,-4.0807,-4.0815,-4.0815,-4.0804,-4.08,-4.0788,-4.0776,-4.0776,-4.0757,-4.075,-4.0784,-4.0798,-4.0828,-4.0849,-4.0878,-4.0878,-4.0849,-4.0859,-4.0888,-4.0936,-4.0935,-4.096,-4.1025,-4.1058,-4.107,-4.11,-4.1111,-4.1115,-4.1109,-4.1113,-4.1113,-4.1105,-4.1111,-4.107,-4.1026,-4.0979,-4.0918,-4.0941,-4.0915,-4.0897,-4.0906,-4.0915,-3.8707,-3.8707,-3.8707,-3.8707,-3.8689,-3.8548,-3.842,-3.8321,-3.831,-3.8382,-3.8465,-3.8496,-3.8564,-3.8676,-3.8707,-3.8707,-3.8707,-3.8707,-3.8707,-3.8707,-3.875,-3.8792,-3.8833,-3.891,-3.8979,-3.9026,-3.911,-3.9166,-3.9221,-3.9343,-3.9452,-3.9551,-3.9637,-3.9637,-3.9594,-3.9637,-3.9637,-3.9661,-3.9712,-3.9804,-3.987,-3.9933,-3.9994,-4.0057,-4.0117,-4.0195,-4.0176,-4.0234,-4.0291,-4.0272,-4.0291,-4.0291,-4.0291,-4.029,-4.0345,-4.0344,-4.0377,-4.0413,-4.0463,-4.0523,-4.0549,-4.0602,-4.0607,-4.0648,-4.0738,-4.0754,-4.0787,-4.0828,-4.0839,-4.0839,-4.0839,-4.0839,-4.0839,-4.0839,-4.0848,-4.0848,-4.0826,-4.0834,-4.0812,-4.0788,-4.0796,-4.0745,-4.0725,-4.075,-4.0796,-4.0807,-4.0837,-4.0848,-4.0858,-4.0818,-4.0818,-4.0848,-4.0898,-4.0907,-4.0935,-4.0988,-4.1025,-4.1039,-4.1075,-4.1115,-4.1109,-4.1101,-4.1101,-4.1101,-4.1117,-4.1109,-4.1086,-4.1045,-4.1,-4.0986,-4.0991,-4.0968,-4.0935,-4.0924,-4.0932,-3.8707,-3.8707,-3.8707,-3.8707,-3.8707,-3.8689,-3.8689,-3.8689,-3.8658,-3.8658,-3.8707,-3.8658,-3.8707,-3.8707,-3.8707,-3.8707,-3.8707,-3.8707,-3.8719,-3.8719,-3.878,-3.8822,-3.8921,-3.9007,-3.912,-3.9248,-3.9328,-3.9406,-3.952,-3.9564,-3.9689,-3.9804,-3.9823,-3.9823,-3.98,-3.9781,-3.9735,-3.9758,-3.9845,-3.9933,-4.0015,-4.0077,-4.0157,-4.0215,-4.0273,-4.0272,-4.0291,-4.031,-4.031,-4.0327,-4.0362,-4.0362,-4.036,-4.0356,-4.0394,-4.0447,-4.0476,-4.0543,-4.0603,-4.064,-4.0707,-4.0738,-4.0761,-4.0804,-4.0826,-4.0849,-4.0888,-4.0878,-4.0907,-4.0907,-4.0907,-4.0907,-4.0907,-4.0917,-4.0908,-4.0898,-4.0877,-4.0856,-4.0834,-4.0823,-4.082,-4.08,-4.0812,-4.0804,-4.0819,-4.0829,-4.0849,-4.0849,-4.0859,-4.0818,-4.0818,-4.0828,-4.0868,-4.0888,-4.0926,-4.098,-4.0999,-4.1033,-4.1086,-4.1105,-4.1117,-4.1108,-4.1104,-4.1104,-4.1108,-4.1101,-4.1085,-4.1067,-4.1025,-4.1033,-4.1032,-4.1011,-4.098,-4.0968,-4.0976,-3.8707,-3.8707,-3.8707,-3.8707,-3.8707,-3.8707,-3.8707,-3.8707,-3.8707,-3.8707,-3.8707,-3.8707,-3.8707,-3.8707,-3.8707,-3.8707,-3.8707,-3.8689,-3.8762,-3.8822,-3.8881,-3.9007,-3.912,-3.9229,-3.9335,-3.942,-3.9521,-3.9613,-3.9708,-3.9781,-3.9804,-3.987,-3.9933,-3.9911,-3.9933,-3.9954,-3.9911,-3.9911,-3.9975,-4.0057,-4.0137,-4.0195,-4.0273,-4.031,-4.031,-4.0328,-4.0363,-4.0362,-4.0379,-4.0427,-4.046,-4.0441,-4.0457,-4.0469,-4.05,-4.0598,-4.0593,-4.0588,-4.0662,-4.0738,-4.0784,-4.0828,-4.0839,-4.0878,-4.0898,-4.0917,-4.0954,-4.0954,-4.0943,-4.0943,-4.0943,-4.0943,-4.0963,-4.0954,-4.0956,-4.0946,-4.0927,-4.0907,-4.0867,-4.0867,-4.0856,-4.0877,-4.0858,-4.0859,-4.0876,-4.0857,-4.0876,-4.0876,-4.0858,-4.0849,-4.0819,-4.0849,-4.0859,-4.0897,-4.0926,-4.096,-4.0999,-4.1033,-4.1067,-4.1109,-4.1101,-4.1108,-4.1108,-4.1114,-4.1099,-4.1116,-4.1104,-4.107,-4.1042,-4.1064,-4.1085,-4.1045,-4.1011,-4.1011,-4.0999,-3.8707,-3.8707,-3.8707,-3.8707,-3.8707,-3.8707,-3.8707,-3.8707,-3.8707,-3.8707,-3.8707,-3.8707,-3.8707,-3.8707,-3.8689,-3.8719,-3.8762,-3.881,-3.887,-3.8976,-3.9064,-3.9173,-3.9298,-3.9446,-3.9545,-3.9623,-3.967,-3.9758,-3.9848,-3.9933,-3.9994,-4.0057,-4.0057,-4.0057,-4.0077,-4.0137,-4.0137,-4.0117,-4.0118,-4.0157,-4.0215,-4.0273,-4.0291,-4.0346,-4.0327,-4.0362,-4.0427,-4.0444,-4.0457,-4.0519,-4.0515,-4.0583,-4.0579,-4.0602,-4.0596,-4.07,-4.0742,-4.0734,-4.0787,-4.0849,-4.0869,-4.0887,-4.0896,-4.0924,-4.0943,-4.0971,-4.0971,-4.098,-4.0988,-4.0996,-4.0996,-4.0996,-4.0988,-4.098,-4.0991,-4.0982,-4.0956,-4.0927,-4.0898,-4.0888,-4.0907,-4.0906,-4.0913,-4.0926,-4.094,-4.096,-4.096,-4.1006,-4.0945,-4.0894,-4.0876,-4.0867,-4.0887,-4.0924,-4.0952,-4.0976,-4.1013,-4.1045,-4.1086,-4.1109,-4.1104,-4.1111,-4.1114,-4.1101,-4.1108,-4.1108,-4.111,-4.1103,-4.1097,-4.1105,-4.1103,-4.1078,-4.1052,-4.1052,-4.1052,-3.8579,-3.8579,-3.867,-3.8707,-3.8707,-3.8707,-3.8707,-3.8707,-3.8719,-3.8689,-3.8689,-3.8738,-3.8719,-3.875,-3.878,-3.8822,-3.8892,-3.8921,-3.9005,-3.9118,-3.9256,-3.9338,-3.9494,-3.9609,-3.9717,-3.9804,-3.9889,-3.9933,-3.9973,-4.0076,-4.0176,-4.0272,-4.0273,-4.0253,-4.0253,-4.0273,-4.0253,-4.0234,-4.0234,-4.0272,-4.0272,-4.031,-4.0327,-4.0379,-4.0413,-4.0444,-4.0508,-4.0519,-4.0534,-4.0559,-4.0602,-4.0694,-4.0725,-4.0742,-4.0754,-4.0768,-4.084,-4.0858,-4.0896,-4.0957,-4.096,-4.0974,-4.0981,-4.1006,-4.0999,-4.0996,-4.0996,-4.1003,-4.1011,-4.103,-4.1038,-4.1018,-4.1011,-4.1011,-4.0984,-4.0976,-4.0968,-4.0943,-4.0943,-4.0932,-4.0964,-4.0979,-4.0986,-4.0994,-4.0998,-4.1031,-4.105,-4.1081,-4.105,-4.0961,-4.0933,-4.0918,-4.0937,-4.0964,-4.0972,-4.1013,-4.1052,-4.1075,-4.1096,-4.1109,-4.1104,-4.1114,-4.1116,-4.1108,-4.1113,-4.1111,-4.111,-4.1112,-4.1112,-4.1108,-4.1115,-4.1103,-4.111,-4.1085,-4.1085,-3.7771,-3.7845,-3.845,-3.8707,-3.8707,-3.8707,-3.8689,-3.8719,-3.8833,-3.8748,-3.8719,-3.8773,-3.8851,-3.8851,-3.895,-3.8989,-3.9045,-3.9073,-3.9194,-3.933,-3.9458,-3.9609,-3.9731,-3.9832,-3.9914,-4.0015,-4.0076,-4.0096,-4.0176,-4.0215,-4.0273,-4.0291,-4.0329,-4.0329,-4.031,-4.031,-4.0329,-4.0329,-4.0364,-4.0345,-4.0328,-4.0363,-4.0396,-4.0411,-4.0425,-4.0539,-4.0598,-4.066,-4.0675,-4.0718,-4.0742,-4.0787,-4.0849,-4.0878,-4.0885,-4.091,-4.0918,-4.0933,-4.0967,-4.1007,-4.1,-4.1,-4.1013,-4.1039,-4.1033,-4.1025,-4.1018,-4.1025,-4.1025,-4.1052,-4.1071,-4.1052,-4.1059,-4.1013,-4.0993,-4.0993,-4.0993,-4.0979,-4.0953,-4.0993,-4.1039,-4.105,-4.1056,-4.1052,-4.107,-4.1074,-4.1097,-4.1097,-4.1097,-4.1042,-4.1006,-4.0994,-4.0981,-4.1007,-4.1019,-4.105,-4.1072,-4.1096,-4.1109,-4.1101,-4.1111,-4.1103,-4.1112,-4.1113,-4.1108,-4.1099,-4.1108,-4.1111,-4.1108,-4.1108,-4.1105,-4.1103,-4.111,-4.1091,-4.111,-3.6964,-3.7055,-3.7826,-3.8163,-3.8224,-3.8585,-3.8596,-3.8319,-3.8396,-3.8183,-3.7995,-3.8543,-3.8989,-3.8989,-3.9073,-3.9165,-3.9192,-3.9272,-3.9395,-3.9539,-3.9703,-3.9854,-3.996,-4.0039,-4.0118,-4.0176,-4.0176,-4.0234,-4.0291,-4.0311,-4.0311,-4.0329,-4.0329,-4.0329,-4.031,-4.0328,-4.0327,-4.0345,-4.0413,-4.043,-4.0398,-4.043,-4.0476,-4.0489,-4.0549,-4.064,-4.0694,-4.0752,-4.0781,-4.0828,-4.0859,-4.0887,-4.0937,-4.0986,-4.0993,-4.1007,-4.1,-4.1006,-4.105,-4.1042,-4.1028,-4.1047,-4.1052,-4.1081,-4.1076,-4.1061,-4.1058,-4.1064,-4.1065,-4.1104,-4.1104,-4.1085,-4.1097,-4.1058,-4.1045,-4.1045,-4.1033,-4.102,-4.1032,-4.1059,-4.1075,-4.1085,-4.109,-4.109,-4.1085,-4.1097,-4.1099,-4.1099,-4.1099,-4.1099,-4.1078,-4.1042,-4.1042,-4.1046,-4.1058,-4.1081,-4.1101,-4.1104,-4.1111,-4.1101,-4.111,-4.1113,-4.1111,-4.1105,-4.1114,-4.1117,-4.1105,-4.1109,-4.1116,-4.1113,-4.1104,-4.1117,-4.1117,-4.1114,-4.1106,-3.625,-3.6434,-3.7095,-3.7374,-3.754,-3.8358,-3.8311,-3.7694,-3.7813,-3.7489,-3.6983,-3.8181,-3.8803,-3.8961,-3.9016,-3.9197,-3.9357,-3.9502,-3.9628,-3.9785,-3.9973,-4.0039,-4.0138,-4.0234,-4.0253,-4.0253,-4.0291,-4.0291,-4.0329,-4.0329,-4.0329,-4.0329,-4.0329,-4.0329,-4.031,-4.0363,-4.0396,-4.0413,-4.046,-4.0523,-4.0504,-4.0504,-4.0549,-4.0607,-4.0681,-4.0739,-4.08,-4.0826,-4.0848,-4.0907,-4.0952,-4.0999,-4.1013,-4.1056,-4.1042,-4.1028,-4.1046,-4.1066,-4.109,-4.1101,-4.1088,-4.1111,-4.1111,-4.1111,-4.1108,-4.1097,-4.11,-4.1111,-4.1114,-4.1109,-4.1109,-4.1114,-4.1106,-4.1111,-4.1096,-4.1081,-4.1067,-4.1056,-4.1075,-4.1114,-4.11,-4.1111,-4.1114,-4.1114,-4.1099,-4.1105,-4.111,-4.111,-4.111,-4.111,-4.1086,-4.1084,-4.1084,-4.1086,-4.1087,-4.109,-4.1108,-4.1131,-4.1132,-4.1113,-4.1113,-4.1108,-4.1099,-4.1108,-4.1109,-4.1115,-4.11,-4.1109,-4.1099,-4.1112,-4.1114,-4.11,-4.1113,-4.1104,-4.1108,-3.5845,-3.6544,-3.6729,-3.6777,-3.6888,-3.7716,-3.7623,-3.7037,-3.7673,-3.7605,-3.7001,-3.7149,-3.7729,-3.8301,-3.8525,-3.8846,-3.9368,-3.9584,-3.9829,-4.0034,-4.0057,-4.0157,-4.0234,-4.0291,-4.031,-4.0329,-4.0329,-4.0329,-4.0329,-4.0329,-4.0329,-4.0329,-4.0329,-4.031,-4.031,-4.0363,-4.0411,-4.0444,-4.0539,-4.0612,-4.0593,-4.0593,-4.0626,-4.0681,-4.0752,-4.0812,-4.0867,-4.0878,-4.0915,-4.0976,-4.102,-4.1064,-4.1091,-4.109,-4.1078,-4.1074,-4.1088,-4.1088,-4.1111,-4.1103,-4.1108,-4.1108,-4.1108,-4.1107,-4.1103,-4.1119,-4.1111,-4.1108,-4.1101,-4.1104,-4.1104,-4.1104,-4.1111,-4.1111,-4.1091,-4.1097,-4.1097,-4.1097,-4.1097,-4.1116,-4.1101,-4.1107,-4.1105,-4.1105,-4.1105,-4.1112,-4.1111,-4.1111,-4.1112,-4.1113,-4.1113,-4.1113,-4.1113,-4.1133,-4.1152,-4.1111,-4.111,-4.1125,-4.1142,-4.1121,-4.1099,-4.1114,-4.1101,-4.1109,-4.11,-4.1106,-4.1111,-4.1109,-4.1111,-4.1111,-4.1119,-4.1105,-4.1097,-4.1112,-4.1113]}]]